<?xml version="1.0" encoding="UTF-8" standalone="no" ?>
<gpx xmlns="http://www.topografix.com/GPX/1/1" xmlns:xsi="http://www.w3.org/2001/XMLSchema-instance" xsi:schemaLocation="http://www.topografix.com/GPX/1/1 http://www.topografix.com/GPX/1/1/gpx.xsd" version="1.1" creator="VisuGPX - https://www.visugpx.com">
  <metadata>
    <name>LES CRETES RIVOLET</name>
  </metadata>
  <trk>
    <name><![CDATA[LES CRETES RIVOLET_1]]></name>
    <trkseg>
      <trkpt lat="46.00626" lon="4.60091">
        <ele>342.6</ele>
        <time>2021-09-08T11:26:14Z</time>
      </trkpt>
      <trkpt lat="46.00628" lon="4.60088">
        <ele>342.4</ele>
        <time>2021-09-08T11:26:15Z</time>
      </trkpt>
      <trkpt lat="46.00632" lon="4.60077">
        <ele>342.4</ele>
        <time>2021-09-08T11:26:22Z</time>
      </trkpt>
      <trkpt lat="46.00641" lon="4.60073">
        <ele>342.4</ele>
        <time>2021-09-08T11:26:29Z</time>
      </trkpt>
      <trkpt lat="46.00642" lon="4.60074">
        <ele>342.4</ele>
        <time>2021-09-08T11:26:30Z</time>
      </trkpt>
      <trkpt lat="46.00643" lon="4.60073">
        <ele>342.4</ele>
        <time>2021-09-08T11:26:31Z</time>
      </trkpt>
      <trkpt lat="46.00642" lon="4.60071">
        <ele>342.6</ele>
        <time>2021-09-08T11:26:33Z</time>
      </trkpt>
      <trkpt lat="46.00633" lon="4.60077">
        <ele>342.6</ele>
        <time>2021-09-08T11:26:36Z</time>
      </trkpt>
      <trkpt lat="46.00625" lon="4.60093">
        <ele>342.8</ele>
        <time>2021-09-08T11:26:41Z</time>
      </trkpt>
      <trkpt lat="46.00624" lon="4.60088">
        <ele>342.8</ele>
        <time>2021-09-08T11:26:44Z</time>
      </trkpt>
      <trkpt lat="46.00629" lon="4.60079">
        <ele>342.6</ele>
        <time>2021-09-08T11:26:48Z</time>
      </trkpt>
      <trkpt lat="46.00644" lon="4.60074">
        <ele>342.8</ele>
        <time>2021-09-08T11:26:54Z</time>
      </trkpt>
      <trkpt lat="46.00659" lon="4.60076">
        <ele>343.8</ele>
        <time>2021-09-08T11:26:59Z</time>
      </trkpt>
      <trkpt lat="46.00669" lon="4.60078">
        <ele>345.4</ele>
        <time>2021-09-08T11:27:03Z</time>
      </trkpt>
      <trkpt lat="46.00677" lon="4.6008">
        <ele>346.4</ele>
        <time>2021-09-08T11:27:06Z</time>
      </trkpt>
      <trkpt lat="46.00684" lon="4.60083">
        <ele>347.6</ele>
        <time>2021-09-08T11:27:09Z</time>
      </trkpt>
      <trkpt lat="46.00691" lon="4.60084">
        <ele>348.2</ele>
        <time>2021-09-08T11:27:12Z</time>
      </trkpt>
      <trkpt lat="46.00699" lon="4.60085">
        <ele>348.8</ele>
        <time>2021-09-08T11:27:15Z</time>
      </trkpt>
      <trkpt lat="46.00708" lon="4.6008">
        <ele>350</ele>
        <time>2021-09-08T11:27:19Z</time>
      </trkpt>
      <trkpt lat="46.00711" lon="4.60079">
        <ele>350.4</ele>
        <time>2021-09-08T11:27:20Z</time>
      </trkpt>
      <trkpt lat="46.00715" lon="4.60076">
        <ele>351.2</ele>
        <time>2021-09-08T11:27:22Z</time>
      </trkpt>
      <trkpt lat="46.00728" lon="4.60062">
        <ele>351.6</ele>
        <time>2021-09-08T11:27:28Z</time>
      </trkpt>
      <trkpt lat="46.00734" lon="4.60056">
        <ele>352</ele>
        <time>2021-09-08T11:27:31Z</time>
      </trkpt>
      <trkpt lat="46.00742" lon="4.60049">
        <ele>352.6</ele>
        <time>2021-09-08T11:27:35Z</time>
      </trkpt>
      <trkpt lat="46.00748" lon="4.60043">
        <ele>353.2</ele>
        <time>2021-09-08T11:27:38Z</time>
      </trkpt>
      <trkpt lat="46.00758" lon="4.60031">
        <ele>354.2</ele>
        <time>2021-09-08T11:27:44Z</time>
      </trkpt>
      <trkpt lat="46.00765" lon="4.60019">
        <ele>355.4</ele>
        <time>2021-09-08T11:27:49Z</time>
      </trkpt>
      <trkpt lat="46.00765" lon="4.60016">
        <ele>355.6</ele>
        <time>2021-09-08T11:27:50Z</time>
      </trkpt>
      <trkpt lat="46.00763" lon="4.60012">
        <ele>356.4</ele>
        <time>2021-09-08T11:27:52Z</time>
      </trkpt>
      <trkpt lat="46.00761" lon="4.60002">
        <ele>357.4</ele>
        <time>2021-09-08T11:27:56Z</time>
      </trkpt>
      <trkpt lat="46.0076" lon="4.6">
        <ele>357.6</ele>
        <time>2021-09-08T11:27:57Z</time>
      </trkpt>
      <trkpt lat="46.00757" lon="4.59993">
        <ele>358.6</ele>
        <time>2021-09-08T11:28:00Z</time>
      </trkpt>
      <trkpt lat="46.00753" lon="4.59985">
        <ele>359.8</ele>
        <time>2021-09-08T11:28:04Z</time>
      </trkpt>
      <trkpt lat="46.00752" lon="4.59983">
        <ele>360.2</ele>
        <time>2021-09-08T11:28:05Z</time>
      </trkpt>
      <trkpt lat="46.00748" lon="4.5998">
        <ele>360.6</ele>
        <time>2021-09-08T11:28:07Z</time>
      </trkpt>
      <trkpt lat="46.00746" lon="4.59979">
        <ele>361.2</ele>
        <time>2021-09-08T11:28:08Z</time>
      </trkpt>
      <trkpt lat="46.00739" lon="4.59976">
        <ele>362.4</ele>
        <time>2021-09-08T11:28:12Z</time>
      </trkpt>
      <trkpt lat="46.00728" lon="4.59971">
        <ele>364</ele>
        <time>2021-09-08T11:28:19Z</time>
      </trkpt>
      <trkpt lat="46.00727" lon="4.5997">
        <ele>364.6</ele>
        <time>2021-09-08T11:28:20Z</time>
      </trkpt>
      <trkpt lat="46.00723" lon="4.59968">
        <ele>365.4</ele>
        <time>2021-09-08T11:28:22Z</time>
      </trkpt>
      <trkpt lat="46.00717" lon="4.59964">
        <ele>366.4</ele>
        <time>2021-09-08T11:28:26Z</time>
      </trkpt>
      <trkpt lat="46.00714" lon="4.59963">
        <ele>367</ele>
        <time>2021-09-08T11:28:28Z</time>
      </trkpt>
      <trkpt lat="46.00712" lon="4.59962">
        <ele>367.6</ele>
        <time>2021-09-08T11:28:29Z</time>
      </trkpt>
      <trkpt lat="46.00703" lon="4.59955">
        <ele>368.6</ele>
        <time>2021-09-08T11:28:35Z</time>
      </trkpt>
      <trkpt lat="46.00697" lon="4.59949">
        <ele>370</ele>
        <time>2021-09-08T11:28:39Z</time>
      </trkpt>
      <trkpt lat="46.00693" lon="4.59941">
        <ele>371</ele>
        <time>2021-09-08T11:28:43Z</time>
      </trkpt>
      <trkpt lat="46.00693" lon="4.59931">
        <ele>372.2</ele>
        <time>2021-09-08T11:28:47Z</time>
      </trkpt>
      <trkpt lat="46.00695" lon="4.59924">
        <ele>373.2</ele>
        <time>2021-09-08T11:28:50Z</time>
      </trkpt>
      <trkpt lat="46.00696" lon="4.59922">
        <ele>373.4</ele>
        <time>2021-09-08T11:28:51Z</time>
      </trkpt>
      <trkpt lat="46.007" lon="4.59915">
        <ele>374.4</ele>
        <time>2021-09-08T11:28:55Z</time>
      </trkpt>
      <trkpt lat="46.00706" lon="4.59907">
        <ele>375.6</ele>
        <time>2021-09-08T11:28:59Z</time>
      </trkpt>
      <trkpt lat="46.00711" lon="4.59901">
        <ele>376.8</ele>
        <time>2021-09-08T11:29:03Z</time>
      </trkpt>
      <trkpt lat="46.00715" lon="4.59897">
        <ele>377.8</ele>
        <time>2021-09-08T11:29:06Z</time>
      </trkpt>
      <trkpt lat="46.00717" lon="4.59896">
        <ele>378.4</ele>
        <time>2021-09-08T11:29:07Z</time>
      </trkpt>
      <trkpt lat="46.0072" lon="4.59895">
        <ele>379</ele>
        <time>2021-09-08T11:29:09Z</time>
      </trkpt>
      <trkpt lat="46.00723" lon="4.59897">
        <ele>379.4</ele>
        <time>2021-09-08T11:29:11Z</time>
      </trkpt>
      <trkpt lat="46.00723" lon="4.599">
        <ele>379.6</ele>
        <time>2021-09-08T11:29:12Z</time>
      </trkpt>
      <trkpt lat="46.00721" lon="4.59909">
        <ele>380.6</ele>
        <time>2021-09-08T11:29:15Z</time>
      </trkpt>
      <trkpt lat="46.00721" lon="4.59915">
        <ele>381</ele>
        <time>2021-09-08T11:29:17Z</time>
      </trkpt>
      <trkpt lat="46.00723" lon="4.59921">
        <ele>382</ele>
        <time>2021-09-08T11:29:19Z</time>
      </trkpt>
      <trkpt lat="46.00728" lon="4.59927">
        <ele>383</ele>
        <time>2021-09-08T11:29:22Z</time>
      </trkpt>
      <trkpt lat="46.00735" lon="4.59928">
        <ele>384</ele>
        <time>2021-09-08T11:29:25Z</time>
      </trkpt>
      <trkpt lat="46.00737" lon="4.59926">
        <ele>384.4</ele>
        <time>2021-09-08T11:29:26Z</time>
      </trkpt>
      <trkpt lat="46.00739" lon="4.59924">
        <ele>384.6</ele>
        <time>2021-09-08T11:29:27Z</time>
      </trkpt>
      <trkpt lat="46.00745" lon="4.59914">
        <ele>385.8</ele>
        <time>2021-09-08T11:29:32Z</time>
      </trkpt>
      <trkpt lat="46.00746" lon="4.59913">
        <ele>386</ele>
        <time>2021-09-08T11:29:33Z</time>
      </trkpt>
      <trkpt lat="46.0075" lon="4.59908">
        <ele>386.8</ele>
        <time>2021-09-08T11:29:36Z</time>
      </trkpt>
      <trkpt lat="46.00755" lon="4.59904">
        <ele>387.8</ele>
        <time>2021-09-08T11:29:39Z</time>
      </trkpt>
      <trkpt lat="46.00757" lon="4.59903">
        <ele>388</ele>
        <time>2021-09-08T11:29:40Z</time>
      </trkpt>
      <trkpt lat="46.00761" lon="4.599">
        <ele>389.2</ele>
        <time>2021-09-08T11:29:43Z</time>
      </trkpt>
      <trkpt lat="46.00765" lon="4.59897">
        <ele>389.8</ele>
        <time>2021-09-08T11:29:46Z</time>
      </trkpt>
      <trkpt lat="46.00766" lon="4.59896">
        <ele>390</ele>
        <time>2021-09-08T11:29:47Z</time>
      </trkpt>
      <trkpt lat="46.00768" lon="4.59895">
        <ele>390.4</ele>
        <time>2021-09-08T11:29:48Z</time>
      </trkpt>
      <trkpt lat="46.00777" lon="4.59889">
        <ele>391.4</ele>
        <time>2021-09-08T11:29:54Z</time>
      </trkpt>
      <trkpt lat="46.00778" lon="4.59888">
        <ele>391.8</ele>
        <time>2021-09-08T11:29:55Z</time>
      </trkpt>
      <trkpt lat="46.00783" lon="4.59886">
        <ele>393.2</ele>
        <time>2021-09-08T11:29:58Z</time>
      </trkpt>
      <trkpt lat="46.00786" lon="4.59884">
        <ele>394</ele>
        <time>2021-09-08T11:30:00Z</time>
      </trkpt>
      <trkpt lat="46.00788" lon="4.59883">
        <ele>394.4</ele>
        <time>2021-09-08T11:30:01Z</time>
      </trkpt>
      <trkpt lat="46.00796" lon="4.5988">
        <ele>395.4</ele>
        <time>2021-09-08T11:30:06Z</time>
      </trkpt>
      <trkpt lat="46.00799" lon="4.59879">
        <ele>396</ele>
        <time>2021-09-08T11:30:08Z</time>
      </trkpt>
      <trkpt lat="46.00802" lon="4.59878">
        <ele>397</ele>
        <time>2021-09-08T11:30:10Z</time>
      </trkpt>
      <trkpt lat="46.00808" lon="4.59877">
        <ele>398.6</ele>
        <time>2021-09-08T11:30:13Z</time>
      </trkpt>
      <trkpt lat="46.0081" lon="4.59877">
        <ele>398.8</ele>
        <time>2021-09-08T11:30:14Z</time>
      </trkpt>
      <trkpt lat="46.00814" lon="4.59875">
        <ele>400</ele>
        <time>2021-09-08T11:30:17Z</time>
      </trkpt>
      <trkpt lat="46.0082" lon="4.59874">
        <ele>401.2</ele>
        <time>2021-09-08T11:30:20Z</time>
      </trkpt>
      <trkpt lat="46.00826" lon="4.59873">
        <ele>402.4</ele>
        <time>2021-09-08T11:30:24Z</time>
      </trkpt>
      <trkpt lat="46.0083" lon="4.59872">
        <ele>403</ele>
        <time>2021-09-08T11:30:26Z</time>
      </trkpt>
      <trkpt lat="46.00833" lon="4.59871">
        <ele>403.8</ele>
        <time>2021-09-08T11:30:28Z</time>
      </trkpt>
      <trkpt lat="46.00837" lon="4.5987">
        <ele>405</ele>
        <time>2021-09-08T11:30:30Z</time>
      </trkpt>
      <trkpt lat="46.00841" lon="4.59869">
        <ele>406.2</ele>
        <time>2021-09-08T11:30:33Z</time>
      </trkpt>
      <trkpt lat="46.00843" lon="4.59868">
        <ele>406.4</ele>
        <time>2021-09-08T11:30:34Z</time>
      </trkpt>
      <trkpt lat="46.0085" lon="4.59868">
        <ele>407.6</ele>
        <time>2021-09-08T11:30:38Z</time>
      </trkpt>
      <trkpt lat="46.00856" lon="4.59866">
        <ele>409</ele>
        <time>2021-09-08T11:30:41Z</time>
      </trkpt>
      <trkpt lat="46.00858" lon="4.59865">
        <ele>409.2</ele>
        <time>2021-09-08T11:30:42Z</time>
      </trkpt>
      <trkpt lat="46.00861" lon="4.59861">
        <ele>409.8</ele>
        <time>2021-09-08T11:30:44Z</time>
      </trkpt>
      <trkpt lat="46.0087" lon="4.59856">
        <ele>410.6</ele>
        <time>2021-09-08T11:30:49Z</time>
      </trkpt>
      <trkpt lat="46.00876" lon="4.59854">
        <ele>411</ele>
        <time>2021-09-08T11:30:52Z</time>
      </trkpt>
      <trkpt lat="46.00883" lon="4.5985">
        <ele>411.8</ele>
        <time>2021-09-08T11:30:56Z</time>
      </trkpt>
      <trkpt lat="46.00887" lon="4.59845">
        <ele>412.2</ele>
        <time>2021-09-08T11:30:59Z</time>
      </trkpt>
      <trkpt lat="46.00891" lon="4.59842">
        <ele>413.4</ele>
        <time>2021-09-08T11:31:01Z</time>
      </trkpt>
      <trkpt lat="46.00896" lon="4.59837">
        <ele>414.2</ele>
        <time>2021-09-08T11:31:04Z</time>
      </trkpt>
      <trkpt lat="46.00899" lon="4.59835">
        <ele>414.6</ele>
        <time>2021-09-08T11:31:06Z</time>
      </trkpt>
      <trkpt lat="46.00914" lon="4.59831">
        <ele>415.8</ele>
        <time>2021-09-08T11:31:14Z</time>
      </trkpt>
      <trkpt lat="46.00916" lon="4.59833">
        <ele>416.4</ele>
        <time>2021-09-08T11:31:16Z</time>
      </trkpt>
      <trkpt lat="46.00918" lon="4.59838">
        <ele>416.8</ele>
        <time>2021-09-08T11:31:18Z</time>
      </trkpt>
      <trkpt lat="46.00919" lon="4.5984">
        <ele>417</ele>
        <time>2021-09-08T11:31:19Z</time>
      </trkpt>
      <trkpt lat="46.00918" lon="4.59843">
        <ele>417.8</ele>
        <time>2021-09-08T11:31:20Z</time>
      </trkpt>
      <trkpt lat="46.00918" lon="4.59848">
        <ele>418.2</ele>
        <time>2021-09-08T11:31:22Z</time>
      </trkpt>
      <trkpt lat="46.00918" lon="4.5985">
        <ele>418.4</ele>
        <time>2021-09-08T11:31:23Z</time>
      </trkpt>
      <trkpt lat="46.00917" lon="4.59857">
        <ele>419.4</ele>
        <time>2021-09-08T11:31:25Z</time>
      </trkpt>
      <trkpt lat="46.00918" lon="4.59865">
        <ele>420.4</ele>
        <time>2021-09-08T11:31:28Z</time>
      </trkpt>
      <trkpt lat="46.00921" lon="4.59874">
        <ele>420.8</ele>
        <time>2021-09-08T11:31:31Z</time>
      </trkpt>
      <trkpt lat="46.00925" lon="4.59882">
        <ele>421.6</ele>
        <time>2021-09-08T11:31:34Z</time>
      </trkpt>
      <trkpt lat="46.00929" lon="4.59888">
        <ele>422</ele>
        <time>2021-09-08T11:31:37Z</time>
      </trkpt>
      <trkpt lat="46.00935" lon="4.59898">
        <ele>422.6</ele>
        <time>2021-09-08T11:31:41Z</time>
      </trkpt>
      <trkpt lat="46.00944" lon="4.59912">
        <ele>423.4</ele>
        <time>2021-09-08T11:31:47Z</time>
      </trkpt>
      <trkpt lat="46.00949" lon="4.59919">
        <ele>423.6</ele>
        <time>2021-09-08T11:31:50Z</time>
      </trkpt>
      <trkpt lat="46.00961" lon="4.59936">
        <ele>424.6</ele>
        <time>2021-09-08T11:31:58Z</time>
      </trkpt>
      <trkpt lat="46.00967" lon="4.59945">
        <ele>425.8</ele>
        <time>2021-09-08T11:32:02Z</time>
      </trkpt>
      <trkpt lat="46.00973" lon="4.59953">
        <ele>427</ele>
        <time>2021-09-08T11:32:06Z</time>
      </trkpt>
      <trkpt lat="46.00974" lon="4.59956">
        <ele>427.2</ele>
        <time>2021-09-08T11:32:07Z</time>
      </trkpt>
      <trkpt lat="46.0098" lon="4.59965">
        <ele>428</ele>
        <time>2021-09-08T11:32:11Z</time>
      </trkpt>
      <trkpt lat="46.00981" lon="4.59968">
        <ele>428.2</ele>
        <time>2021-09-08T11:32:12Z</time>
      </trkpt>
      <trkpt lat="46.00989" lon="4.59983">
        <ele>429.4</ele>
        <time>2021-09-08T11:32:18Z</time>
      </trkpt>
      <trkpt lat="46.00994" lon="4.59992">
        <ele>430.2</ele>
        <time>2021-09-08T11:32:21Z</time>
      </trkpt>
      <trkpt lat="46.00997" lon="4.59996">
        <ele>430.6</ele>
        <time>2021-09-08T11:32:23Z</time>
      </trkpt>
      <trkpt lat="46.01006" lon="4.60011">
        <ele>431.8</ele>
        <time>2021-09-08T11:32:29Z</time>
      </trkpt>
      <trkpt lat="46.01012" lon="4.60018">
        <ele>432.8</ele>
        <time>2021-09-08T11:32:33Z</time>
      </trkpt>
      <trkpt lat="46.01017" lon="4.60024">
        <ele>433.8</ele>
        <time>2021-09-08T11:32:36Z</time>
      </trkpt>
      <trkpt lat="46.01018" lon="4.60026">
        <ele>434</ele>
        <time>2021-09-08T11:32:37Z</time>
      </trkpt>
      <trkpt lat="46.01023" lon="4.60033">
        <ele>435.2</ele>
        <time>2021-09-08T11:32:40Z</time>
      </trkpt>
      <trkpt lat="46.01029" lon="4.6004">
        <ele>436.4</ele>
        <time>2021-09-08T11:32:44Z</time>
      </trkpt>
      <trkpt lat="46.01031" lon="4.60043">
        <ele>436.6</ele>
        <time>2021-09-08T11:32:45Z</time>
      </trkpt>
      <trkpt lat="46.01035" lon="4.60048">
        <ele>437.6</ele>
        <time>2021-09-08T11:32:48Z</time>
      </trkpt>
      <trkpt lat="46.01045" lon="4.60059">
        <ele>438.6</ele>
        <time>2021-09-08T11:32:53Z</time>
      </trkpt>
      <trkpt lat="46.01049" lon="4.60063">
        <ele>439.2</ele>
        <time>2021-09-08T11:32:55Z</time>
      </trkpt>
      <trkpt lat="46.01052" lon="4.60067">
        <ele>440</ele>
        <time>2021-09-08T11:32:57Z</time>
      </trkpt>
      <trkpt lat="46.01058" lon="4.60073">
        <ele>441.2</ele>
        <time>2021-09-08T11:33:00Z</time>
      </trkpt>
      <trkpt lat="46.01062" lon="4.60076">
        <ele>441.2</ele>
        <time>2021-09-08T11:33:02Z</time>
      </trkpt>
      <trkpt lat="46.01073" lon="4.60084">
        <ele>442.2</ele>
        <time>2021-09-08T11:33:08Z</time>
      </trkpt>
      <trkpt lat="46.01081" lon="4.6009">
        <ele>443.2</ele>
        <time>2021-09-08T11:33:12Z</time>
      </trkpt>
      <trkpt lat="46.01094" lon="4.60105">
        <ele>444</ele>
        <time>2021-09-08T11:33:18Z</time>
      </trkpt>
      <trkpt lat="46.01099" lon="4.60112">
        <ele>444.4</ele>
        <time>2021-09-08T11:33:21Z</time>
      </trkpt>
      <trkpt lat="46.01105" lon="4.60121">
        <ele>445.6</ele>
        <time>2021-09-08T11:33:25Z</time>
      </trkpt>
      <trkpt lat="46.01114" lon="4.60133">
        <ele>446.6</ele>
        <time>2021-09-08T11:33:30Z</time>
      </trkpt>
      <trkpt lat="46.01121" lon="4.60142">
        <ele>447.4</ele>
        <time>2021-09-08T11:33:34Z</time>
      </trkpt>
      <trkpt lat="46.01124" lon="4.60146">
        <ele>447.8</ele>
        <time>2021-09-08T11:33:36Z</time>
      </trkpt>
      <trkpt lat="46.01129" lon="4.60154">
        <ele>448.8</ele>
        <time>2021-09-08T11:33:39Z</time>
      </trkpt>
      <trkpt lat="46.01133" lon="4.60162">
        <ele>449.6</ele>
        <time>2021-09-08T11:33:42Z</time>
      </trkpt>
      <trkpt lat="46.01135" lon="4.60165">
        <ele>450</ele>
        <time>2021-09-08T11:33:43Z</time>
      </trkpt>
      <trkpt lat="46.01137" lon="4.60171">
        <ele>450.8</ele>
        <time>2021-09-08T11:33:45Z</time>
      </trkpt>
      <trkpt lat="46.01138" lon="4.60173">
        <ele>451.2</ele>
        <time>2021-09-08T11:33:46Z</time>
      </trkpt>
      <trkpt lat="46.01142" lon="4.60187">
        <ele>452.4</ele>
        <time>2021-09-08T11:33:50Z</time>
      </trkpt>
      <trkpt lat="46.01143" lon="4.6019">
        <ele>452.8</ele>
        <time>2021-09-08T11:33:51Z</time>
      </trkpt>
      <trkpt lat="46.01146" lon="4.60203">
        <ele>453.4</ele>
        <time>2021-09-08T11:33:55Z</time>
      </trkpt>
      <trkpt lat="46.01149" lon="4.60212">
        <ele>454.4</ele>
        <time>2021-09-08T11:33:58Z</time>
      </trkpt>
      <trkpt lat="46.01157" lon="4.60226">
        <ele>455.4</ele>
        <time>2021-09-08T11:34:03Z</time>
      </trkpt>
      <trkpt lat="46.01162" lon="4.60233">
        <ele>456</ele>
        <time>2021-09-08T11:34:06Z</time>
      </trkpt>
      <trkpt lat="46.01167" lon="4.60237">
        <ele>456.8</ele>
        <time>2021-09-08T11:34:08Z</time>
      </trkpt>
      <trkpt lat="46.0117" lon="4.60239">
        <ele>457</ele>
        <time>2021-09-08T11:34:10Z</time>
      </trkpt>
      <trkpt lat="46.01171" lon="4.60238">
        <ele>457</ele>
        <time>2021-09-08T11:34:11Z</time>
      </trkpt>
      <trkpt lat="46.01171" lon="4.60236">
        <ele>457.2</ele>
        <time>2021-09-08T11:34:13Z</time>
      </trkpt>
      <trkpt lat="46.0117" lon="4.60234">
        <ele>457.8</ele>
        <time>2021-09-08T11:34:14Z</time>
      </trkpt>
      <trkpt lat="46.01169" lon="4.60233">
        <ele>458.2</ele>
        <time>2021-09-08T11:34:15Z</time>
      </trkpt>
      <trkpt lat="46.01164" lon="4.60228">
        <ele>458.8</ele>
        <time>2021-09-08T11:34:18Z</time>
      </trkpt>
      <trkpt lat="46.01163" lon="4.60225">
        <ele>459.8</ele>
        <time>2021-09-08T11:34:20Z</time>
      </trkpt>
      <trkpt lat="46.01163" lon="4.60222">
        <ele>460.2</ele>
        <time>2021-09-08T11:34:21Z</time>
      </trkpt>
      <trkpt lat="46.01165" lon="4.60221">
        <ele>460.6</ele>
        <time>2021-09-08T11:34:22Z</time>
      </trkpt>
      <trkpt lat="46.01168" lon="4.60222">
        <ele>461.2</ele>
        <time>2021-09-08T11:34:24Z</time>
      </trkpt>
      <trkpt lat="46.01172" lon="4.60228">
        <ele>461.4</ele>
        <time>2021-09-08T11:34:26Z</time>
      </trkpt>
      <trkpt lat="46.0118" lon="4.60238">
        <ele>462.4</ele>
        <time>2021-09-08T11:34:31Z</time>
      </trkpt>
      <trkpt lat="46.01184" lon="4.6024">
        <ele>462.6</ele>
        <time>2021-09-08T11:34:33Z</time>
      </trkpt>
      <trkpt lat="46.0119" lon="4.60247">
        <ele>463.6</ele>
        <time>2021-09-08T11:34:37Z</time>
      </trkpt>
      <trkpt lat="46.01192" lon="4.60253">
        <ele>463.8</ele>
        <time>2021-09-08T11:34:39Z</time>
      </trkpt>
      <trkpt lat="46.01194" lon="4.60269">
        <ele>464.6</ele>
        <time>2021-09-08T11:34:44Z</time>
      </trkpt>
      <trkpt lat="46.01194" lon="4.60275">
        <ele>464.8</ele>
        <time>2021-09-08T11:34:46Z</time>
      </trkpt>
      <trkpt lat="46.01196" lon="4.60281">
        <ele>465.6</ele>
        <time>2021-09-08T11:34:48Z</time>
      </trkpt>
      <trkpt lat="46.01199" lon="4.60293">
        <ele>466.8</ele>
        <time>2021-09-08T11:34:52Z</time>
      </trkpt>
      <trkpt lat="46.01206" lon="4.60315">
        <ele>467.8</ele>
        <time>2021-09-08T11:34:59Z</time>
      </trkpt>
      <trkpt lat="46.01207" lon="4.60317">
        <ele>468</ele>
        <time>2021-09-08T11:35:00Z</time>
      </trkpt>
      <trkpt lat="46.01214" lon="4.60335">
        <ele>469.4</ele>
        <time>2021-09-08T11:35:06Z</time>
      </trkpt>
      <trkpt lat="46.01219" lon="4.60346">
        <ele>470.4</ele>
        <time>2021-09-08T11:35:10Z</time>
      </trkpt>
      <trkpt lat="46.01226" lon="4.60359">
        <ele>471.6</ele>
        <time>2021-09-08T11:35:16Z</time>
      </trkpt>
      <trkpt lat="46.01232" lon="4.60363">
        <ele>472.8</ele>
        <time>2021-09-08T11:35:19Z</time>
      </trkpt>
      <trkpt lat="46.01239" lon="4.60367">
        <ele>474</ele>
        <time>2021-09-08T11:35:22Z</time>
      </trkpt>
      <trkpt lat="46.01244" lon="4.60372">
        <ele>474.8</ele>
        <time>2021-09-08T11:35:25Z</time>
      </trkpt>
      <trkpt lat="46.01245" lon="4.60373">
        <ele>475.2</ele>
        <time>2021-09-08T11:35:26Z</time>
      </trkpt>
      <trkpt lat="46.01255" lon="4.60379">
        <ele>476.8</ele>
        <time>2021-09-08T11:35:31Z</time>
      </trkpt>
      <trkpt lat="46.01261" lon="4.60385">
        <ele>478</ele>
        <time>2021-09-08T11:35:35Z</time>
      </trkpt>
      <trkpt lat="46.01271" lon="4.60391">
        <ele>479.6</ele>
        <time>2021-09-08T11:35:40Z</time>
      </trkpt>
      <trkpt lat="46.01273" lon="4.60392">
        <ele>480.4</ele>
        <time>2021-09-08T11:35:41Z</time>
      </trkpt>
      <trkpt lat="46.01276" lon="4.60394">
        <ele>480.8</ele>
        <time>2021-09-08T11:35:43Z</time>
      </trkpt>
      <trkpt lat="46.01281" lon="4.60397">
        <ele>481.8</ele>
        <time>2021-09-08T11:35:46Z</time>
      </trkpt>
      <trkpt lat="46.01286" lon="4.60399">
        <ele>482.6</ele>
        <time>2021-09-08T11:35:49Z</time>
      </trkpt>
      <trkpt lat="46.01288" lon="4.604">
        <ele>483</ele>
        <time>2021-09-08T11:35:50Z</time>
      </trkpt>
      <trkpt lat="46.0129" lon="4.604">
        <ele>484</ele>
        <time>2021-09-08T11:35:51Z</time>
      </trkpt>
      <trkpt lat="46.01296" lon="4.60402">
        <ele>485.2</ele>
        <time>2021-09-08T11:35:54Z</time>
      </trkpt>
      <trkpt lat="46.013" lon="4.60403">
        <ele>485.8</ele>
        <time>2021-09-08T11:35:56Z</time>
      </trkpt>
      <trkpt lat="46.01302" lon="4.60404">
        <ele>486.4</ele>
        <time>2021-09-08T11:35:57Z</time>
      </trkpt>
      <trkpt lat="46.01307" lon="4.60406">
        <ele>487.6</ele>
        <time>2021-09-08T11:36:00Z</time>
      </trkpt>
      <trkpt lat="46.01314" lon="4.60411">
        <ele>488.6</ele>
        <time>2021-09-08T11:36:03Z</time>
      </trkpt>
      <trkpt lat="46.01315" lon="4.60412">
        <ele>488.8</ele>
        <time>2021-09-08T11:36:04Z</time>
      </trkpt>
      <trkpt lat="46.0133" lon="4.60432">
        <ele>489.4</ele>
        <time>2021-09-08T11:36:10Z</time>
      </trkpt>
      <trkpt lat="46.01346" lon="4.60461">
        <ele>489.4</ele>
        <time>2021-09-08T11:36:14Z</time>
      </trkpt>
      <trkpt lat="46.01351" lon="4.60468">
        <ele>489.4</ele>
        <time>2021-09-08T11:36:15Z</time>
      </trkpt>
      <trkpt lat="46.0136" lon="4.60481">
        <ele>489.2</ele>
        <time>2021-09-08T11:36:17Z</time>
      </trkpt>
      <trkpt lat="46.01368" lon="4.60488">
        <ele>489</ele>
        <time>2021-09-08T11:36:19Z</time>
      </trkpt>
      <trkpt lat="46.01376" lon="4.60493">
        <ele>489.2</ele>
        <time>2021-09-08T11:36:23Z</time>
      </trkpt>
      <trkpt lat="46.01383" lon="4.60498">
        <ele>490</ele>
        <time>2021-09-08T11:36:27Z</time>
      </trkpt>
      <trkpt lat="46.01384" lon="4.60499">
        <ele>490.2</ele>
        <time>2021-09-08T11:36:28Z</time>
      </trkpt>
      <trkpt lat="46.01389" lon="4.60502">
        <ele>491.2</ele>
        <time>2021-09-08T11:36:31Z</time>
      </trkpt>
      <trkpt lat="46.01395" lon="4.60508">
        <ele>492.6</ele>
        <time>2021-09-08T11:36:35Z</time>
      </trkpt>
      <trkpt lat="46.01397" lon="4.6051">
        <ele>493</ele>
        <time>2021-09-08T11:36:36Z</time>
      </trkpt>
      <trkpt lat="46.01399" lon="4.60512">
        <ele>493.8</ele>
        <time>2021-09-08T11:36:38Z</time>
      </trkpt>
      <trkpt lat="46.01401" lon="4.60518">
        <ele>494.4</ele>
        <time>2021-09-08T11:36:41Z</time>
      </trkpt>
      <trkpt lat="46.01402" lon="4.60521">
        <ele>494.8</ele>
        <time>2021-09-08T11:36:42Z</time>
      </trkpt>
      <trkpt lat="46.01406" lon="4.60531">
        <ele>496</ele>
        <time>2021-09-08T11:36:46Z</time>
      </trkpt>
      <trkpt lat="46.01407" lon="4.60536">
        <ele>496.8</ele>
        <time>2021-09-08T11:36:48Z</time>
      </trkpt>
      <trkpt lat="46.01407" lon="4.60539">
        <ele>497</ele>
        <time>2021-09-08T11:36:49Z</time>
      </trkpt>
      <trkpt lat="46.01404" lon="4.60552">
        <ele>498.4</ele>
        <time>2021-09-08T11:36:53Z</time>
      </trkpt>
      <trkpt lat="46.01403" lon="4.60557">
        <ele>498.8</ele>
        <time>2021-09-08T11:36:55Z</time>
      </trkpt>
      <trkpt lat="46.01406" lon="4.60567">
        <ele>499.2</ele>
        <time>2021-09-08T11:36:59Z</time>
      </trkpt>
      <trkpt lat="46.01407" lon="4.60568">
        <ele>499.4</ele>
        <time>2021-09-08T11:37:00Z</time>
      </trkpt>
      <trkpt lat="46.0141" lon="4.60569">
        <ele>499.4</ele>
        <time>2021-09-08T11:37:01Z</time>
      </trkpt>
      <trkpt lat="46.01413" lon="4.60569">
        <ele>499.8</ele>
        <time>2021-09-08T11:37:03Z</time>
      </trkpt>
      <trkpt lat="46.01416" lon="4.60571">
        <ele>500.4</ele>
        <time>2021-09-08T11:37:05Z</time>
      </trkpt>
      <trkpt lat="46.01416" lon="4.60571">
        <ele>500.6</ele>
        <time>2021-09-08T11:37:06Z</time>
      </trkpt>
      <trkpt lat="46.01416" lon="4.60571">
        <ele>501.6</ele>
        <time>2021-09-08T11:37:11Z</time>
      </trkpt>
      <trkpt lat="46.01416" lon="4.60571">
        <ele>501.6</ele>
        <time>2021-09-08T11:37:12Z</time>
      </trkpt>
      <trkpt lat="46.01415" lon="4.60572">
        <ele>502.2</ele>
        <time>2021-09-08T11:37:17Z</time>
      </trkpt>
      <trkpt lat="46.01415" lon="4.60575">
        <ele>502.4</ele>
        <time>2021-09-08T11:37:22Z</time>
      </trkpt>
      <trkpt lat="46.01415" lon="4.60577">
        <ele>502.6</ele>
        <time>2021-09-08T11:37:23Z</time>
      </trkpt>
      <trkpt lat="46.01414" lon="4.60582">
        <ele>502.6</ele>
        <time>2021-09-08T11:37:25Z</time>
      </trkpt>
      <trkpt lat="46.01413" lon="4.60584">
        <ele>502.8</ele>
        <time>2021-09-08T11:37:26Z</time>
      </trkpt>
      <trkpt lat="46.0141" lon="4.6059">
        <ele>503</ele>
        <time>2021-09-08T11:37:28Z</time>
      </trkpt>
      <trkpt lat="46.01404" lon="4.60601">
        <ele>503.8</ele>
        <time>2021-09-08T11:37:32Z</time>
      </trkpt>
      <trkpt lat="46.014" lon="4.60615">
        <ele>504.4</ele>
        <time>2021-09-08T11:37:37Z</time>
      </trkpt>
      <trkpt lat="46.014" lon="4.6063">
        <ele>505</ele>
        <time>2021-09-08T11:37:42Z</time>
      </trkpt>
      <trkpt lat="46.014" lon="4.60632">
        <ele>505.2</ele>
        <time>2021-09-08T11:37:43Z</time>
      </trkpt>
      <trkpt lat="46.01404" lon="4.60642">
        <ele>506.4</ele>
        <time>2021-09-08T11:37:47Z</time>
      </trkpt>
      <trkpt lat="46.01409" lon="4.6065">
        <ele>507.4</ele>
        <time>2021-09-08T11:37:51Z</time>
      </trkpt>
      <trkpt lat="46.01413" lon="4.60655">
        <ele>508.6</ele>
        <time>2021-09-08T11:37:54Z</time>
      </trkpt>
      <trkpt lat="46.01421" lon="4.60663">
        <ele>510</ele>
        <time>2021-09-08T11:37:59Z</time>
      </trkpt>
      <trkpt lat="46.01423" lon="4.60664">
        <ele>510</ele>
        <time>2021-09-08T11:38:00Z</time>
      </trkpt>
      <trkpt lat="46.01428" lon="4.60671">
        <ele>511</ele>
        <time>2021-09-08T11:38:04Z</time>
      </trkpt>
      <trkpt lat="46.01429" lon="4.60672">
        <ele>511.4</ele>
        <time>2021-09-08T11:38:05Z</time>
      </trkpt>
      <trkpt lat="46.0143" lon="4.60673">
        <ele>512.2</ele>
        <time>2021-09-08T11:38:06Z</time>
      </trkpt>
      <trkpt lat="46.01432" lon="4.60674">
        <ele>512.8</ele>
        <time>2021-09-08T11:38:07Z</time>
      </trkpt>
      <trkpt lat="46.01435" lon="4.60676">
        <ele>513.6</ele>
        <time>2021-09-08T11:38:09Z</time>
      </trkpt>
      <trkpt lat="46.01441" lon="4.60683">
        <ele>515</ele>
        <time>2021-09-08T11:38:14Z</time>
      </trkpt>
      <trkpt lat="46.01444" lon="4.60685">
        <ele>515.6</ele>
        <time>2021-09-08T11:38:16Z</time>
      </trkpt>
      <trkpt lat="46.01447" lon="4.60686">
        <ele>516</ele>
        <time>2021-09-08T11:38:18Z</time>
      </trkpt>
      <trkpt lat="46.01452" lon="4.60688">
        <ele>517</ele>
        <time>2021-09-08T11:38:21Z</time>
      </trkpt>
      <trkpt lat="46.01453" lon="4.60689">
        <ele>517.2</ele>
        <time>2021-09-08T11:38:22Z</time>
      </trkpt>
      <trkpt lat="46.01457" lon="4.60691">
        <ele>518.2</ele>
        <time>2021-09-08T11:38:25Z</time>
      </trkpt>
      <trkpt lat="46.01459" lon="4.60691">
        <ele>518.4</ele>
        <time>2021-09-08T11:38:26Z</time>
      </trkpt>
      <trkpt lat="46.01461" lon="4.60691">
        <ele>519</ele>
        <time>2021-09-08T11:38:28Z</time>
      </trkpt>
      <trkpt lat="46.01464" lon="4.60696">
        <ele>519.6</ele>
        <time>2021-09-08T11:38:30Z</time>
      </trkpt>
      <trkpt lat="46.01471" lon="4.6071">
        <ele>520.6</ele>
        <time>2021-09-08T11:38:34Z</time>
      </trkpt>
      <trkpt lat="46.01473" lon="4.60713">
        <ele>520.6</ele>
        <time>2021-09-08T11:38:35Z</time>
      </trkpt>
      <trkpt lat="46.01479" lon="4.60725">
        <ele>520.8</ele>
        <time>2021-09-08T11:38:39Z</time>
      </trkpt>
      <trkpt lat="46.01485" lon="4.60729">
        <ele>521</ele>
        <time>2021-09-08T11:38:42Z</time>
      </trkpt>
      <trkpt lat="46.01487" lon="4.60729">
        <ele>521.2</ele>
        <time>2021-09-08T11:38:43Z</time>
      </trkpt>
      <trkpt lat="46.01495" lon="4.60721">
        <ele>521.6</ele>
        <time>2021-09-08T11:38:48Z</time>
      </trkpt>
      <trkpt lat="46.01498" lon="4.60718">
        <ele>521.6</ele>
        <time>2021-09-08T11:38:50Z</time>
      </trkpt>
      <trkpt lat="46.01506" lon="4.60708">
        <ele>522</ele>
        <time>2021-09-08T11:38:56Z</time>
      </trkpt>
      <trkpt lat="46.01514" lon="4.60703">
        <ele>523</ele>
        <time>2021-09-08T11:39:02Z</time>
      </trkpt>
      <trkpt lat="46.01516" lon="4.60703">
        <ele>523.2</ele>
        <time>2021-09-08T11:39:03Z</time>
      </trkpt>
      <trkpt lat="46.0152" lon="4.60705">
        <ele>524.2</ele>
        <time>2021-09-08T11:39:06Z</time>
      </trkpt>
      <trkpt lat="46.01526" lon="4.60707">
        <ele>525.2</ele>
        <time>2021-09-08T11:39:09Z</time>
      </trkpt>
      <trkpt lat="46.01529" lon="4.60709">
        <ele>525.8</ele>
        <time>2021-09-08T11:39:11Z</time>
      </trkpt>
      <trkpt lat="46.01531" lon="4.60709">
        <ele>526.4</ele>
        <time>2021-09-08T11:39:12Z</time>
      </trkpt>
      <trkpt lat="46.01538" lon="4.60713">
        <ele>527.6</ele>
        <time>2021-09-08T11:39:15Z</time>
      </trkpt>
      <trkpt lat="46.01546" lon="4.60721">
        <ele>529</ele>
        <time>2021-09-08T11:39:19Z</time>
      </trkpt>
      <trkpt lat="46.01567" lon="4.60736">
        <ele>529.8</ele>
        <time>2021-09-08T11:39:28Z</time>
      </trkpt>
      <trkpt lat="46.01583" lon="4.60755">
        <ele>530</ele>
        <time>2021-09-08T11:39:37Z</time>
      </trkpt>
      <trkpt lat="46.01584" lon="4.60757">
        <ele>530</ele>
        <time>2021-09-08T11:39:38Z</time>
      </trkpt>
      <trkpt lat="46.01586" lon="4.60759">
        <ele>530.2</ele>
        <time>2021-09-08T11:39:39Z</time>
      </trkpt>
      <trkpt lat="46.01596" lon="4.6077">
        <ele>530.4</ele>
        <time>2021-09-08T11:39:46Z</time>
      </trkpt>
      <trkpt lat="46.01609" lon="4.6078">
        <ele>530.4</ele>
        <time>2021-09-08T11:39:52Z</time>
      </trkpt>
      <trkpt lat="46.01625" lon="4.60797">
        <ele>529.8</ele>
        <time>2021-09-08T11:39:57Z</time>
      </trkpt>
      <trkpt lat="46.01629" lon="4.608">
        <ele>529.4</ele>
        <time>2021-09-08T11:39:58Z</time>
      </trkpt>
      <trkpt lat="46.01649" lon="4.60816">
        <ele>529</ele>
        <time>2021-09-08T11:40:02Z</time>
      </trkpt>
      <trkpt lat="46.01673" lon="4.60832">
        <ele>528.8</ele>
        <time>2021-09-08T11:40:07Z</time>
      </trkpt>
      <trkpt lat="46.01679" lon="4.60834">
        <ele>528.4</ele>
        <time>2021-09-08T11:40:10Z</time>
      </trkpt>
      <trkpt lat="46.01682" lon="4.60833">
        <ele>528.4</ele>
        <time>2021-09-08T11:40:11Z</time>
      </trkpt>
      <trkpt lat="46.01687" lon="4.60826">
        <ele>528.4</ele>
        <time>2021-09-08T11:40:14Z</time>
      </trkpt>
      <trkpt lat="46.01698" lon="4.60799">
        <ele>528.8</ele>
        <time>2021-09-08T11:40:22Z</time>
      </trkpt>
      <trkpt lat="46.01703" lon="4.60782">
        <ele>530</ele>
        <time>2021-09-08T11:40:27Z</time>
      </trkpt>
      <trkpt lat="46.01706" lon="4.60773">
        <ele>531</ele>
        <time>2021-09-08T11:40:30Z</time>
      </trkpt>
      <trkpt lat="46.01707" lon="4.60771">
        <ele>531.2</ele>
        <time>2021-09-08T11:40:31Z</time>
      </trkpt>
      <trkpt lat="46.01711" lon="4.60761">
        <ele>532.2</ele>
        <time>2021-09-08T11:40:34Z</time>
      </trkpt>
      <trkpt lat="46.01717" lon="4.6075">
        <ele>533.2</ele>
        <time>2021-09-08T11:40:38Z</time>
      </trkpt>
      <trkpt lat="46.01719" lon="4.60744">
        <ele>534</ele>
        <time>2021-09-08T11:40:40Z</time>
      </trkpt>
      <trkpt lat="46.01722" lon="4.60739">
        <ele>534.6</ele>
        <time>2021-09-08T11:40:42Z</time>
      </trkpt>
      <trkpt lat="46.01727" lon="4.60733">
        <ele>535.4</ele>
        <time>2021-09-08T11:40:45Z</time>
      </trkpt>
      <trkpt lat="46.01728" lon="4.60729">
        <ele>535.6</ele>
        <time>2021-09-08T11:40:46Z</time>
      </trkpt>
      <trkpt lat="46.01735" lon="4.60716">
        <ele>537.2</ele>
        <time>2021-09-08T11:40:51Z</time>
      </trkpt>
      <trkpt lat="46.01737" lon="4.60714">
        <ele>537.6</ele>
        <time>2021-09-08T11:40:52Z</time>
      </trkpt>
      <trkpt lat="46.0174" lon="4.60709">
        <ele>538.2</ele>
        <time>2021-09-08T11:40:54Z</time>
      </trkpt>
      <trkpt lat="46.01746" lon="4.60693">
        <ele>539</ele>
        <time>2021-09-08T11:40:59Z</time>
      </trkpt>
      <trkpt lat="46.01752" lon="4.60678">
        <ele>539.2</ele>
        <time>2021-09-08T11:41:04Z</time>
      </trkpt>
      <trkpt lat="46.01755" lon="4.60668">
        <ele>539.8</ele>
        <time>2021-09-08T11:41:07Z</time>
      </trkpt>
      <trkpt lat="46.01756" lon="4.60665">
        <ele>540.2</ele>
        <time>2021-09-08T11:41:08Z</time>
      </trkpt>
      <trkpt lat="46.01762" lon="4.6065">
        <ele>541.4</ele>
        <time>2021-09-08T11:41:12Z</time>
      </trkpt>
      <trkpt lat="46.01765" lon="4.60643">
        <ele>542</ele>
        <time>2021-09-08T11:41:14Z</time>
      </trkpt>
      <trkpt lat="46.0177" lon="4.60633">
        <ele>542.6</ele>
        <time>2021-09-08T11:41:17Z</time>
      </trkpt>
      <trkpt lat="46.01777" lon="4.60621">
        <ele>543.8</ele>
        <time>2021-09-08T11:41:21Z</time>
      </trkpt>
      <trkpt lat="46.01778" lon="4.60617">
        <ele>543.8</ele>
        <time>2021-09-08T11:41:22Z</time>
      </trkpt>
      <trkpt lat="46.01784" lon="4.60607">
        <ele>544.8</ele>
        <time>2021-09-08T11:41:25Z</time>
      </trkpt>
      <trkpt lat="46.01788" lon="4.60598">
        <ele>545.8</ele>
        <time>2021-09-08T11:41:28Z</time>
      </trkpt>
      <trkpt lat="46.0179" lon="4.60595">
        <ele>546</ele>
        <time>2021-09-08T11:41:29Z</time>
      </trkpt>
      <trkpt lat="46.01793" lon="4.60591">
        <ele>547</ele>
        <time>2021-09-08T11:41:31Z</time>
      </trkpt>
      <trkpt lat="46.01797" lon="4.60586">
        <ele>548.2</ele>
        <time>2021-09-08T11:41:33Z</time>
      </trkpt>
      <trkpt lat="46.01802" lon="4.60579">
        <ele>549.6</ele>
        <time>2021-09-08T11:41:36Z</time>
      </trkpt>
      <trkpt lat="46.01806" lon="4.60577">
        <ele>550.2</ele>
        <time>2021-09-08T11:41:38Z</time>
      </trkpt>
      <trkpt lat="46.01811" lon="4.60573">
        <ele>550.8</ele>
        <time>2021-09-08T11:41:40Z</time>
      </trkpt>
      <trkpt lat="46.01819" lon="4.60571">
        <ele>552</ele>
        <time>2021-09-08T11:41:43Z</time>
      </trkpt>
      <trkpt lat="46.01825" lon="4.6057">
        <ele>552.6</ele>
        <time>2021-09-08T11:41:45Z</time>
      </trkpt>
      <trkpt lat="46.01829" lon="4.60567">
        <ele>553.2</ele>
        <time>2021-09-08T11:41:47Z</time>
      </trkpt>
      <trkpt lat="46.01838" lon="4.60566">
        <ele>554.6</ele>
        <time>2021-09-08T11:41:50Z</time>
      </trkpt>
      <trkpt lat="46.0184" lon="4.60565">
        <ele>554.6</ele>
        <time>2021-09-08T11:41:51Z</time>
      </trkpt>
      <trkpt lat="46.01847" lon="4.60562">
        <ele>555.8</ele>
        <time>2021-09-08T11:41:54Z</time>
      </trkpt>
      <trkpt lat="46.01853" lon="4.6056">
        <ele>556.6</ele>
        <time>2021-09-08T11:41:57Z</time>
      </trkpt>
      <trkpt lat="46.01858" lon="4.60559">
        <ele>556.8</ele>
        <time>2021-09-08T11:41:59Z</time>
      </trkpt>
      <trkpt lat="46.01864" lon="4.60554">
        <ele>557.8</ele>
        <time>2021-09-08T11:42:02Z</time>
      </trkpt>
      <trkpt lat="46.01867" lon="4.60553">
        <ele>558</ele>
        <time>2021-09-08T11:42:03Z</time>
      </trkpt>
      <trkpt lat="46.01878" lon="4.60549">
        <ele>558.8</ele>
        <time>2021-09-08T11:42:08Z</time>
      </trkpt>
      <trkpt lat="46.0188" lon="4.60548">
        <ele>559</ele>
        <time>2021-09-08T11:42:09Z</time>
      </trkpt>
      <trkpt lat="46.01884" lon="4.60548">
        <ele>559.4</ele>
        <time>2021-09-08T11:42:10Z</time>
      </trkpt>
      <trkpt lat="46.01888" lon="4.60547">
        <ele>559.8</ele>
        <time>2021-09-08T11:42:12Z</time>
      </trkpt>
      <trkpt lat="46.01891" lon="4.60547">
        <ele>560.2</ele>
        <time>2021-09-08T11:42:13Z</time>
      </trkpt>
      <trkpt lat="46.01896" lon="4.60545">
        <ele>560.6</ele>
        <time>2021-09-08T11:42:16Z</time>
      </trkpt>
      <trkpt lat="46.01899" lon="4.60543">
        <ele>560.8</ele>
        <time>2021-09-08T11:42:17Z</time>
      </trkpt>
      <trkpt lat="46.01904" lon="4.6054">
        <ele>561.2</ele>
        <time>2021-09-08T11:42:19Z</time>
      </trkpt>
      <trkpt lat="46.01909" lon="4.60538">
        <ele>561.8</ele>
        <time>2021-09-08T11:42:21Z</time>
      </trkpt>
      <trkpt lat="46.01911" lon="4.60537">
        <ele>562.2</ele>
        <time>2021-09-08T11:42:22Z</time>
      </trkpt>
      <trkpt lat="46.01912" lon="4.60536">
        <ele>562.4</ele>
        <time>2021-09-08T11:42:23Z</time>
      </trkpt>
      <trkpt lat="46.01919" lon="4.60529">
        <ele>563.8</ele>
        <time>2021-09-08T11:42:27Z</time>
      </trkpt>
      <trkpt lat="46.0192" lon="4.60528">
        <ele>564</ele>
        <time>2021-09-08T11:42:28Z</time>
      </trkpt>
      <trkpt lat="46.01925" lon="4.60527">
        <ele>565.2</ele>
        <time>2021-09-08T11:42:31Z</time>
      </trkpt>
      <trkpt lat="46.01935" lon="4.60524">
        <ele>566</ele>
        <time>2021-09-08T11:42:35Z</time>
      </trkpt>
      <trkpt lat="46.01937" lon="4.60522">
        <ele>566.4</ele>
        <time>2021-09-08T11:42:36Z</time>
      </trkpt>
      <trkpt lat="46.01942" lon="4.60519">
        <ele>567.4</ele>
        <time>2021-09-08T11:42:39Z</time>
      </trkpt>
      <trkpt lat="46.01945" lon="4.60519">
        <ele>567.8</ele>
        <time>2021-09-08T11:42:40Z</time>
      </trkpt>
      <trkpt lat="46.01948" lon="4.60519">
        <ele>568.2</ele>
        <time>2021-09-08T11:42:41Z</time>
      </trkpt>
      <trkpt lat="46.01953" lon="4.60518">
        <ele>568.8</ele>
        <time>2021-09-08T11:42:43Z</time>
      </trkpt>
      <trkpt lat="46.01958" lon="4.60515">
        <ele>569.4</ele>
        <time>2021-09-08T11:42:45Z</time>
      </trkpt>
      <trkpt lat="46.01959" lon="4.60514">
        <ele>569.8</ele>
        <time>2021-09-08T11:42:46Z</time>
      </trkpt>
      <trkpt lat="46.01961" lon="4.60514">
        <ele>570</ele>
        <time>2021-09-08T11:42:47Z</time>
      </trkpt>
      <trkpt lat="46.01967" lon="4.60513">
        <ele>570.4</ele>
        <time>2021-09-08T11:42:49Z</time>
      </trkpt>
      <trkpt lat="46.01972" lon="4.60511">
        <ele>571</ele>
        <time>2021-09-08T11:42:51Z</time>
      </trkpt>
      <trkpt lat="46.01981" lon="4.60509">
        <ele>571.6</ele>
        <time>2021-09-08T11:42:54Z</time>
      </trkpt>
      <trkpt lat="46.01985" lon="4.60505">
        <ele>572</ele>
        <time>2021-09-08T11:42:56Z</time>
      </trkpt>
      <trkpt lat="46.01986" lon="4.60505">
        <ele>572.2</ele>
        <time>2021-09-08T11:42:57Z</time>
      </trkpt>
      <trkpt lat="46.01986" lon="4.60504">
        <ele>572.4</ele>
        <time>2021-09-08T11:42:58Z</time>
      </trkpt>
      <trkpt lat="46.0199" lon="4.60502">
        <ele>573</ele>
        <time>2021-09-08T11:43:01Z</time>
      </trkpt>
      <trkpt lat="46.01995" lon="4.60501">
        <ele>573</ele>
        <time>2021-09-08T11:43:02Z</time>
      </trkpt>
      <trkpt lat="46.02001" lon="4.60499">
        <ele>573.2</ele>
        <time>2021-09-08T11:43:03Z</time>
      </trkpt>
      <trkpt lat="46.02015" lon="4.60495">
        <ele>574.6</ele>
        <time>2021-09-08T11:43:08Z</time>
      </trkpt>
      <trkpt lat="46.02017" lon="4.60493">
        <ele>574.8</ele>
        <time>2021-09-08T11:43:09Z</time>
      </trkpt>
      <trkpt lat="46.02024" lon="4.60484">
        <ele>575.6</ele>
        <time>2021-09-08T11:43:14Z</time>
      </trkpt>
      <trkpt lat="46.02037" lon="4.60481">
        <ele>576.8</ele>
        <time>2021-09-08T11:43:20Z</time>
      </trkpt>
      <trkpt lat="46.02053" lon="4.60474">
        <ele>578.2</ele>
        <time>2021-09-08T11:43:27Z</time>
      </trkpt>
      <trkpt lat="46.02056" lon="4.60473">
        <ele>578.4</ele>
        <time>2021-09-08T11:43:28Z</time>
      </trkpt>
      <trkpt lat="46.02067" lon="4.6047">
        <ele>579.2</ele>
        <time>2021-09-08T11:43:32Z</time>
      </trkpt>
      <trkpt lat="46.02069" lon="4.60469">
        <ele>579.4</ele>
        <time>2021-09-08T11:43:33Z</time>
      </trkpt>
      <trkpt lat="46.02073" lon="4.60467">
        <ele>580</ele>
        <time>2021-09-08T11:43:35Z</time>
      </trkpt>
      <trkpt lat="46.02078" lon="4.60465">
        <ele>580.4</ele>
        <time>2021-09-08T11:43:37Z</time>
      </trkpt>
      <trkpt lat="46.0208" lon="4.60464">
        <ele>580.4</ele>
        <time>2021-09-08T11:43:38Z</time>
      </trkpt>
      <trkpt lat="46.02084" lon="4.60461">
        <ele>581.2</ele>
        <time>2021-09-08T11:43:40Z</time>
      </trkpt>
      <trkpt lat="46.02086" lon="4.6046">
        <ele>581.4</ele>
        <time>2021-09-08T11:43:41Z</time>
      </trkpt>
      <trkpt lat="46.02095" lon="4.60453">
        <ele>583</ele>
        <time>2021-09-08T11:43:46Z</time>
      </trkpt>
      <trkpt lat="46.02101" lon="4.60448">
        <ele>584.4</ele>
        <time>2021-09-08T11:43:49Z</time>
      </trkpt>
      <trkpt lat="46.02106" lon="4.60445">
        <ele>585</ele>
        <time>2021-09-08T11:43:51Z</time>
      </trkpt>
      <trkpt lat="46.02108" lon="4.60443">
        <ele>585.4</ele>
        <time>2021-09-08T11:43:52Z</time>
      </trkpt>
      <trkpt lat="46.02114" lon="4.60434">
        <ele>586.4</ele>
        <time>2021-09-08T11:43:56Z</time>
      </trkpt>
      <trkpt lat="46.02116" lon="4.60428">
        <ele>586.8</ele>
        <time>2021-09-08T11:43:58Z</time>
      </trkpt>
      <trkpt lat="46.02119" lon="4.60418">
        <ele>587.4</ele>
        <time>2021-09-08T11:44:01Z</time>
      </trkpt>
      <trkpt lat="46.02119" lon="4.60408">
        <ele>588.6</ele>
        <time>2021-09-08T11:44:04Z</time>
      </trkpt>
      <trkpt lat="46.02119" lon="4.60405">
        <ele>588.8</ele>
        <time>2021-09-08T11:44:05Z</time>
      </trkpt>
      <trkpt lat="46.02117" lon="4.60391">
        <ele>589.8</ele>
        <time>2021-09-08T11:44:09Z</time>
      </trkpt>
      <trkpt lat="46.02117" lon="4.60386">
        <ele>590.4</ele>
        <time>2021-09-08T11:44:11Z</time>
      </trkpt>
      <trkpt lat="46.02116" lon="4.6038">
        <ele>591</ele>
        <time>2021-09-08T11:44:13Z</time>
      </trkpt>
      <trkpt lat="46.02114" lon="4.60367">
        <ele>591.6</ele>
        <time>2021-09-08T11:44:18Z</time>
      </trkpt>
      <trkpt lat="46.02113" lon="4.60363">
        <ele>591.8</ele>
        <time>2021-09-08T11:44:19Z</time>
      </trkpt>
      <trkpt lat="46.02112" lon="4.6036">
        <ele>592.4</ele>
        <time>2021-09-08T11:44:20Z</time>
      </trkpt>
      <trkpt lat="46.02109" lon="4.60352">
        <ele>593.2</ele>
        <time>2021-09-08T11:44:23Z</time>
      </trkpt>
      <trkpt lat="46.02107" lon="4.60348">
        <ele>593.4</ele>
        <time>2021-09-08T11:44:25Z</time>
      </trkpt>
      <trkpt lat="46.02106" lon="4.60345">
        <ele>594</ele>
        <time>2021-09-08T11:44:26Z</time>
      </trkpt>
      <trkpt lat="46.02105" lon="4.60338">
        <ele>594.6</ele>
        <time>2021-09-08T11:44:28Z</time>
      </trkpt>
      <trkpt lat="46.02104" lon="4.60334">
        <ele>594.6</ele>
        <time>2021-09-08T11:44:29Z</time>
      </trkpt>
      <trkpt lat="46.02103" lon="4.60326">
        <ele>595.6</ele>
        <time>2021-09-08T11:44:32Z</time>
      </trkpt>
      <trkpt lat="46.02102" lon="4.60319">
        <ele>596.4</ele>
        <time>2021-09-08T11:44:34Z</time>
      </trkpt>
      <trkpt lat="46.02102" lon="4.60316">
        <ele>597</ele>
        <time>2021-09-08T11:44:35Z</time>
      </trkpt>
      <trkpt lat="46.02098" lon="4.60301">
        <ele>597.6</ele>
        <time>2021-09-08T11:44:39Z</time>
      </trkpt>
      <trkpt lat="46.02097" lon="4.60299">
        <ele>597.8</ele>
        <time>2021-09-08T11:44:40Z</time>
      </trkpt>
      <trkpt lat="46.02097" lon="4.60297">
        <ele>597.8</ele>
        <time>2021-09-08T11:44:41Z</time>
      </trkpt>
      <trkpt lat="46.02097" lon="4.60294">
        <ele>598</ele>
        <time>2021-09-08T11:44:42Z</time>
      </trkpt>
      <trkpt lat="46.02094" lon="4.60286">
        <ele>598.4</ele>
        <time>2021-09-08T11:44:44Z</time>
      </trkpt>
      <trkpt lat="46.02092" lon="4.60278">
        <ele>598.6</ele>
        <time>2021-09-08T11:44:46Z</time>
      </trkpt>
      <trkpt lat="46.0209" lon="4.6027">
        <ele>599</ele>
        <time>2021-09-08T11:44:48Z</time>
      </trkpt>
      <trkpt lat="46.02089" lon="4.60267">
        <ele>599.2</ele>
        <time>2021-09-08T11:44:49Z</time>
      </trkpt>
      <trkpt lat="46.02087" lon="4.60248">
        <ele>600.4</ele>
        <time>2021-09-08T11:44:55Z</time>
      </trkpt>
      <trkpt lat="46.02085" lon="4.60234">
        <ele>601.6</ele>
        <time>2021-09-08T11:44:59Z</time>
      </trkpt>
      <trkpt lat="46.02078" lon="4.60218">
        <ele>602.6</ele>
        <time>2021-09-08T11:45:04Z</time>
      </trkpt>
      <trkpt lat="46.02077" lon="4.60217">
        <ele>603</ele>
        <time>2021-09-08T11:45:05Z</time>
      </trkpt>
      <trkpt lat="46.02074" lon="4.60211">
        <ele>603.8</ele>
        <time>2021-09-08T11:45:08Z</time>
      </trkpt>
      <trkpt lat="46.02071" lon="4.60206">
        <ele>605.2</ele>
        <time>2021-09-08T11:45:11Z</time>
      </trkpt>
      <trkpt lat="46.02065" lon="4.60192">
        <ele>606.2</ele>
        <time>2021-09-08T11:45:16Z</time>
      </trkpt>
      <trkpt lat="46.02067" lon="4.60187">
        <ele>607</ele>
        <time>2021-09-08T11:45:19Z</time>
      </trkpt>
      <trkpt lat="46.02067" lon="4.60184">
        <ele>607.6</ele>
        <time>2021-09-08T11:45:21Z</time>
      </trkpt>
      <trkpt lat="46.02065" lon="4.60182">
        <ele>608.6</ele>
        <time>2021-09-08T11:45:24Z</time>
      </trkpt>
      <trkpt lat="46.02064" lon="4.60181">
        <ele>608.8</ele>
        <time>2021-09-08T11:45:25Z</time>
      </trkpt>
      <trkpt lat="46.02061" lon="4.6018">
        <ele>609.2</ele>
        <time>2021-09-08T11:45:26Z</time>
      </trkpt>
      <trkpt lat="46.02058" lon="4.60176">
        <ele>609.4</ele>
        <time>2021-09-08T11:45:28Z</time>
      </trkpt>
      <trkpt lat="46.02054" lon="4.60168">
        <ele>609.8</ele>
        <time>2021-09-08T11:45:30Z</time>
      </trkpt>
      <trkpt lat="46.02052" lon="4.60165">
        <ele>610.2</ele>
        <time>2021-09-08T11:45:31Z</time>
      </trkpt>
      <trkpt lat="46.02048" lon="4.60158">
        <ele>610.8</ele>
        <time>2021-09-08T11:45:34Z</time>
      </trkpt>
      <trkpt lat="46.02039" lon="4.6015">
        <ele>612</ele>
        <time>2021-09-08T11:45:37Z</time>
      </trkpt>
      <trkpt lat="46.02035" lon="4.60143">
        <ele>613.2</ele>
        <time>2021-09-08T11:45:41Z</time>
      </trkpt>
      <trkpt lat="46.02033" lon="4.60139">
        <ele>613.8</ele>
        <time>2021-09-08T11:45:43Z</time>
      </trkpt>
      <trkpt lat="46.02032" lon="4.60136">
        <ele>614.2</ele>
        <time>2021-09-08T11:45:45Z</time>
      </trkpt>
      <trkpt lat="46.02027" lon="4.60122">
        <ele>615.6</ele>
        <time>2021-09-08T11:45:50Z</time>
      </trkpt>
      <trkpt lat="46.02025" lon="4.6012">
        <ele>616</ele>
        <time>2021-09-08T11:45:51Z</time>
      </trkpt>
      <trkpt lat="46.02022" lon="4.60114">
        <ele>616.8</ele>
        <time>2021-09-08T11:45:54Z</time>
      </trkpt>
      <trkpt lat="46.02021" lon="4.60111">
        <ele>617.4</ele>
        <time>2021-09-08T11:45:58Z</time>
      </trkpt>
      <trkpt lat="46.0202" lon="4.60108">
        <ele>618.2</ele>
        <time>2021-09-08T11:46:00Z</time>
      </trkpt>
      <trkpt lat="46.02017" lon="4.60102">
        <ele>619.2</ele>
        <time>2021-09-08T11:46:04Z</time>
      </trkpt>
      <trkpt lat="46.02017" lon="4.601">
        <ele>619.4</ele>
        <time>2021-09-08T11:46:05Z</time>
      </trkpt>
      <trkpt lat="46.02016" lon="4.60095">
        <ele>619.8</ele>
        <time>2021-09-08T11:46:07Z</time>
      </trkpt>
      <trkpt lat="46.02015" lon="4.6009">
        <ele>620.2</ele>
        <time>2021-09-08T11:46:09Z</time>
      </trkpt>
      <trkpt lat="46.02013" lon="4.60088">
        <ele>620.4</ele>
        <time>2021-09-08T11:46:10Z</time>
      </trkpt>
      <trkpt lat="46.02012" lon="4.60085">
        <ele>620.6</ele>
        <time>2021-09-08T11:46:11Z</time>
      </trkpt>
      <trkpt lat="46.02012" lon="4.60081">
        <ele>621</ele>
        <time>2021-09-08T11:46:13Z</time>
      </trkpt>
      <trkpt lat="46.02012" lon="4.60076">
        <ele>621.2</ele>
        <time>2021-09-08T11:46:15Z</time>
      </trkpt>
      <trkpt lat="46.02013" lon="4.60073">
        <ele>621.6</ele>
        <time>2021-09-08T11:46:16Z</time>
      </trkpt>
      <trkpt lat="46.02014" lon="4.60066">
        <ele>622.2</ele>
        <time>2021-09-08T11:46:19Z</time>
      </trkpt>
      <trkpt lat="46.02014" lon="4.60062">
        <ele>622.8</ele>
        <time>2021-09-08T11:46:21Z</time>
      </trkpt>
      <trkpt lat="46.02011" lon="4.60058">
        <ele>623</ele>
        <time>2021-09-08T11:46:22Z</time>
      </trkpt>
      <trkpt lat="46.0201" lon="4.60053">
        <ele>623.4</ele>
        <time>2021-09-08T11:46:24Z</time>
      </trkpt>
      <trkpt lat="46.02008" lon="4.60046">
        <ele>624.2</ele>
        <time>2021-09-08T11:46:26Z</time>
      </trkpt>
      <trkpt lat="46.02009" lon="4.60039">
        <ele>624.8</ele>
        <time>2021-09-08T11:46:28Z</time>
      </trkpt>
      <trkpt lat="46.02011" lon="4.60033">
        <ele>625</ele>
        <time>2021-09-08T11:46:30Z</time>
      </trkpt>
      <trkpt lat="46.02012" lon="4.60031">
        <ele>625.2</ele>
        <time>2021-09-08T11:46:31Z</time>
      </trkpt>
      <trkpt lat="46.02011" lon="4.60022">
        <ele>626.4</ele>
        <time>2021-09-08T11:46:34Z</time>
      </trkpt>
      <trkpt lat="46.02012" lon="4.60014">
        <ele>626.8</ele>
        <time>2021-09-08T11:46:36Z</time>
      </trkpt>
      <trkpt lat="46.02011" lon="4.60009">
        <ele>627.4</ele>
        <time>2021-09-08T11:46:38Z</time>
      </trkpt>
      <trkpt lat="46.02009" lon="4.60007">
        <ele>627.6</ele>
        <time>2021-09-08T11:46:39Z</time>
      </trkpt>
      <trkpt lat="46.02008" lon="4.59999">
        <ele>628.8</ele>
        <time>2021-09-08T11:46:43Z</time>
      </trkpt>
      <trkpt lat="46.02008" lon="4.59998">
        <ele>629</ele>
        <time>2021-09-08T11:46:45Z</time>
      </trkpt>
      <trkpt lat="46.02007" lon="4.59994">
        <ele>629.8</ele>
        <time>2021-09-08T11:46:48Z</time>
      </trkpt>
      <trkpt lat="46.02007" lon="4.59992">
        <ele>630.2</ele>
        <time>2021-09-08T11:46:49Z</time>
      </trkpt>
      <trkpt lat="46.02008" lon="4.5999">
        <ele>630.6</ele>
        <time>2021-09-08T11:46:51Z</time>
      </trkpt>
      <trkpt lat="46.02008" lon="4.59989">
        <ele>630.6</ele>
        <time>2021-09-08T11:46:52Z</time>
      </trkpt>
      <trkpt lat="46.02008" lon="4.59985">
        <ele>631</ele>
        <time>2021-09-08T11:46:54Z</time>
      </trkpt>
      <trkpt lat="46.02007" lon="4.59983">
        <ele>631.4</ele>
        <time>2021-09-08T11:46:55Z</time>
      </trkpt>
      <trkpt lat="46.02006" lon="4.59971">
        <ele>632</ele>
        <time>2021-09-08T11:46:58Z</time>
      </trkpt>
      <trkpt lat="46.02006" lon="4.59956">
        <ele>633</ele>
        <time>2021-09-08T11:47:03Z</time>
      </trkpt>
      <trkpt lat="46.02005" lon="4.59952">
        <ele>633.2</ele>
        <time>2021-09-08T11:47:04Z</time>
      </trkpt>
      <trkpt lat="46.02004" lon="4.59932">
        <ele>634.2</ele>
        <time>2021-09-08T11:47:10Z</time>
      </trkpt>
      <trkpt lat="46.02003" lon="4.59929">
        <ele>634.4</ele>
        <time>2021-09-08T11:47:11Z</time>
      </trkpt>
      <trkpt lat="46.02001" lon="4.59922">
        <ele>635.2</ele>
        <time>2021-09-08T11:47:14Z</time>
      </trkpt>
      <trkpt lat="46.02002" lon="4.59913">
        <ele>635.2</ele>
        <time>2021-09-08T11:47:16Z</time>
      </trkpt>
      <trkpt lat="46.02002" lon="4.59912">
        <ele>635.4</ele>
        <time>2021-09-08T11:47:17Z</time>
      </trkpt>
      <trkpt lat="46.02001" lon="4.59908">
        <ele>635.4</ele>
        <time>2021-09-08T11:47:18Z</time>
      </trkpt>
      <trkpt lat="46.01997" lon="4.599">
        <ele>635.4</ele>
        <time>2021-09-08T11:47:19Z</time>
      </trkpt>
      <trkpt lat="46.01998" lon="4.59898">
        <ele>635.6</ele>
        <time>2021-09-08T11:47:20Z</time>
      </trkpt>
      <trkpt lat="46.01998" lon="4.59888">
        <ele>636.2</ele>
        <time>2021-09-08T11:47:23Z</time>
      </trkpt>
      <trkpt lat="46.01996" lon="4.59884">
        <ele>636.4</ele>
        <time>2021-09-08T11:47:24Z</time>
      </trkpt>
      <trkpt lat="46.01994" lon="4.59878">
        <ele>636.8</ele>
        <time>2021-09-08T11:47:26Z</time>
      </trkpt>
      <trkpt lat="46.01996" lon="4.59875">
        <ele>637</ele>
        <time>2021-09-08T11:47:28Z</time>
      </trkpt>
      <trkpt lat="46.01997" lon="4.59869">
        <ele>637.4</ele>
        <time>2021-09-08T11:47:30Z</time>
      </trkpt>
      <trkpt lat="46.01997" lon="4.59866">
        <ele>637.4</ele>
        <time>2021-09-08T11:47:31Z</time>
      </trkpt>
      <trkpt lat="46.01996" lon="4.59858">
        <ele>638.4</ele>
        <time>2021-09-08T11:47:35Z</time>
      </trkpt>
      <trkpt lat="46.01995" lon="4.59853">
        <ele>638.6</ele>
        <time>2021-09-08T11:47:37Z</time>
      </trkpt>
      <trkpt lat="46.0199" lon="4.59833">
        <ele>639.4</ele>
        <time>2021-09-08T11:47:43Z</time>
      </trkpt>
      <trkpt lat="46.01988" lon="4.59819">
        <ele>639.6</ele>
        <time>2021-09-08T11:47:47Z</time>
      </trkpt>
      <trkpt lat="46.01983" lon="4.59799">
        <ele>639.6</ele>
        <time>2021-09-08T11:47:51Z</time>
      </trkpt>
      <trkpt lat="46.01983" lon="4.59794">
        <ele>639.6</ele>
        <time>2021-09-08T11:47:52Z</time>
      </trkpt>
      <trkpt lat="46.01984" lon="4.59785">
        <ele>639.8</ele>
        <time>2021-09-08T11:47:54Z</time>
      </trkpt>
      <trkpt lat="46.01983" lon="4.59781">
        <ele>639.8</ele>
        <time>2021-09-08T11:47:55Z</time>
      </trkpt>
      <trkpt lat="46.01976" lon="4.59773">
        <ele>640</ele>
        <time>2021-09-08T11:47:57Z</time>
      </trkpt>
      <trkpt lat="46.01968" lon="4.59766">
        <ele>640</ele>
        <time>2021-09-08T11:47:59Z</time>
      </trkpt>
      <trkpt lat="46.01963" lon="4.59766">
        <ele>640.2</ele>
        <time>2021-09-08T11:48:01Z</time>
      </trkpt>
      <trkpt lat="46.01958" lon="4.59771">
        <ele>640.4</ele>
        <time>2021-09-08T11:48:03Z</time>
      </trkpt>
      <trkpt lat="46.0195" lon="4.59795">
        <ele>640.2</ele>
        <time>2021-09-08T11:48:08Z</time>
      </trkpt>
      <trkpt lat="46.01943" lon="4.59842">
        <ele>639</ele>
        <time>2021-09-08T11:48:16Z</time>
      </trkpt>
      <trkpt lat="46.01939" lon="4.59871">
        <ele>638.6</ele>
        <time>2021-09-08T11:48:20Z</time>
      </trkpt>
      <trkpt lat="46.01938" lon="4.59879">
        <ele>638</ele>
        <time>2021-09-08T11:48:21Z</time>
      </trkpt>
      <trkpt lat="46.01937" lon="4.59885">
        <ele>637.8</ele>
        <time>2021-09-08T11:48:22Z</time>
      </trkpt>
      <trkpt lat="46.01934" lon="4.599">
        <ele>637.6</ele>
        <time>2021-09-08T11:48:24Z</time>
      </trkpt>
      <trkpt lat="46.01933" lon="4.59904">
        <ele>637.6</ele>
        <time>2021-09-08T11:48:25Z</time>
      </trkpt>
      <trkpt lat="46.01931" lon="4.59911">
        <ele>637.4</ele>
        <time>2021-09-08T11:48:26Z</time>
      </trkpt>
      <trkpt lat="46.01929" lon="4.59922">
        <ele>637.4</ele>
        <time>2021-09-08T11:48:28Z</time>
      </trkpt>
      <trkpt lat="46.01927" lon="4.59929">
        <ele>637.4</ele>
        <time>2021-09-08T11:48:29Z</time>
      </trkpt>
      <trkpt lat="46.01926" lon="4.59936">
        <ele>637.4</ele>
        <time>2021-09-08T11:48:30Z</time>
      </trkpt>
      <trkpt lat="46.01925" lon="4.59947">
        <ele>637.4</ele>
        <time>2021-09-08T11:48:32Z</time>
      </trkpt>
      <trkpt lat="46.01923" lon="4.5996">
        <ele>637.6</ele>
        <time>2021-09-08T11:48:34Z</time>
      </trkpt>
      <trkpt lat="46.01923" lon="4.59966">
        <ele>637.6</ele>
        <time>2021-09-08T11:48:35Z</time>
      </trkpt>
      <trkpt lat="46.0192" lon="4.59985">
        <ele>637.8</ele>
        <time>2021-09-08T11:48:39Z</time>
      </trkpt>
      <trkpt lat="46.0191" lon="4.60006">
        <ele>638.4</ele>
        <time>2021-09-08T11:48:45Z</time>
      </trkpt>
      <trkpt lat="46.01908" lon="4.60009">
        <ele>638.6</ele>
        <time>2021-09-08T11:48:46Z</time>
      </trkpt>
      <trkpt lat="46.01907" lon="4.60014">
        <ele>639.2</ele>
        <time>2021-09-08T11:48:48Z</time>
      </trkpt>
      <trkpt lat="46.01904" lon="4.60028">
        <ele>640.4</ele>
        <time>2021-09-08T11:48:53Z</time>
      </trkpt>
      <trkpt lat="46.01903" lon="4.6003">
        <ele>640.6</ele>
        <time>2021-09-08T11:48:54Z</time>
      </trkpt>
      <trkpt lat="46.01902" lon="4.60037">
        <ele>641.6</ele>
        <time>2021-09-08T11:48:56Z</time>
      </trkpt>
      <trkpt lat="46.01898" lon="4.60047">
        <ele>642.6</ele>
        <time>2021-09-08T11:49:00Z</time>
      </trkpt>
      <trkpt lat="46.01892" lon="4.60057">
        <ele>643.8</ele>
        <time>2021-09-08T11:49:04Z</time>
      </trkpt>
      <trkpt lat="46.01889" lon="4.60067">
        <ele>645</ele>
        <time>2021-09-08T11:49:07Z</time>
      </trkpt>
      <trkpt lat="46.01889" lon="4.6007">
        <ele>645.2</ele>
        <time>2021-09-08T11:49:08Z</time>
      </trkpt>
      <trkpt lat="46.01889" lon="4.60077">
        <ele>646.6</ele>
        <time>2021-09-08T11:49:10Z</time>
      </trkpt>
      <trkpt lat="46.01888" lon="4.60084">
        <ele>647.6</ele>
        <time>2021-09-08T11:49:13Z</time>
      </trkpt>
      <trkpt lat="46.01888" lon="4.60087">
        <ele>648</ele>
        <time>2021-09-08T11:49:14Z</time>
      </trkpt>
      <trkpt lat="46.01887" lon="4.60092">
        <ele>648.6</ele>
        <time>2021-09-08T11:49:16Z</time>
      </trkpt>
      <trkpt lat="46.01886" lon="4.60094">
        <ele>649.2</ele>
        <time>2021-09-08T11:49:17Z</time>
      </trkpt>
      <trkpt lat="46.01885" lon="4.60096">
        <ele>649.4</ele>
        <time>2021-09-08T11:49:18Z</time>
      </trkpt>
      <trkpt lat="46.01881" lon="4.60103">
        <ele>650.8</ele>
        <time>2021-09-08T11:49:21Z</time>
      </trkpt>
      <trkpt lat="46.01879" lon="4.60113">
        <ele>651.8</ele>
        <time>2021-09-08T11:49:25Z</time>
      </trkpt>
      <trkpt lat="46.01879" lon="4.60115">
        <ele>652.4</ele>
        <time>2021-09-08T11:49:26Z</time>
      </trkpt>
      <trkpt lat="46.01879" lon="4.60121">
        <ele>653.2</ele>
        <time>2021-09-08T11:49:28Z</time>
      </trkpt>
      <trkpt lat="46.01879" lon="4.60122">
        <ele>654</ele>
        <time>2021-09-08T11:49:29Z</time>
      </trkpt>
      <trkpt lat="46.01878" lon="4.60124">
        <ele>654.4</ele>
        <time>2021-09-08T11:49:30Z</time>
      </trkpt>
      <trkpt lat="46.01877" lon="4.60126">
        <ele>654.8</ele>
        <time>2021-09-08T11:49:31Z</time>
      </trkpt>
      <trkpt lat="46.01875" lon="4.6013">
        <ele>655.4</ele>
        <time>2021-09-08T11:49:33Z</time>
      </trkpt>
      <trkpt lat="46.01875" lon="4.60132">
        <ele>655.8</ele>
        <time>2021-09-08T11:49:34Z</time>
      </trkpt>
      <trkpt lat="46.01874" lon="4.60137">
        <ele>656.8</ele>
        <time>2021-09-08T11:49:36Z</time>
      </trkpt>
      <trkpt lat="46.01872" lon="4.60143">
        <ele>658</ele>
        <time>2021-09-08T11:49:39Z</time>
      </trkpt>
      <trkpt lat="46.01872" lon="4.60145">
        <ele>658.6</ele>
        <time>2021-09-08T11:49:40Z</time>
      </trkpt>
      <trkpt lat="46.01872" lon="4.60149">
        <ele>659</ele>
        <time>2021-09-08T11:49:41Z</time>
      </trkpt>
      <trkpt lat="46.01872" lon="4.60151">
        <ele>659.4</ele>
        <time>2021-09-08T11:49:42Z</time>
      </trkpt>
      <trkpt lat="46.01872" lon="4.60157">
        <ele>660.2</ele>
        <time>2021-09-08T11:49:44Z</time>
      </trkpt>
      <trkpt lat="46.01873" lon="4.60166">
        <ele>661.2</ele>
        <time>2021-09-08T11:49:47Z</time>
      </trkpt>
      <trkpt lat="46.01873" lon="4.60168">
        <ele>661.6</ele>
        <time>2021-09-08T11:49:48Z</time>
      </trkpt>
      <trkpt lat="46.01875" lon="4.60172">
        <ele>662.2</ele>
        <time>2021-09-08T11:49:50Z</time>
      </trkpt>
      <trkpt lat="46.01875" lon="4.60175">
        <ele>662.4</ele>
        <time>2021-09-08T11:49:51Z</time>
      </trkpt>
      <trkpt lat="46.01875" lon="4.60184">
        <ele>663.2</ele>
        <time>2021-09-08T11:49:54Z</time>
      </trkpt>
      <trkpt lat="46.01874" lon="4.60187">
        <ele>663.6</ele>
        <time>2021-09-08T11:49:55Z</time>
      </trkpt>
      <trkpt lat="46.01872" lon="4.60193">
        <ele>664.6</ele>
        <time>2021-09-08T11:49:58Z</time>
      </trkpt>
      <trkpt lat="46.01868" lon="4.60198">
        <ele>665.6</ele>
        <time>2021-09-08T11:50:02Z</time>
      </trkpt>
      <trkpt lat="46.01865" lon="4.60198">
        <ele>666.2</ele>
        <time>2021-09-08T11:50:04Z</time>
      </trkpt>
      <trkpt lat="46.01863" lon="4.60199">
        <ele>666.6</ele>
        <time>2021-09-08T11:50:06Z</time>
      </trkpt>
      <trkpt lat="46.01862" lon="4.602">
        <ele>666.8</ele>
        <time>2021-09-08T11:50:07Z</time>
      </trkpt>
      <trkpt lat="46.0186" lon="4.60203">
        <ele>667.4</ele>
        <time>2021-09-08T11:50:09Z</time>
      </trkpt>
      <trkpt lat="46.01855" lon="4.60212">
        <ele>667.6</ele>
        <time>2021-09-08T11:50:16Z</time>
      </trkpt>
      <trkpt lat="46.01855" lon="4.60213">
        <ele>667.6</ele>
        <time>2021-09-08T11:50:17Z</time>
      </trkpt>
      <trkpt lat="46.01855" lon="4.60213">
        <ele>667.4</ele>
        <time>2021-09-08T11:50:22Z</time>
      </trkpt>
      <trkpt lat="46.01855" lon="4.60213">
        <ele>666.4</ele>
        <time>2021-09-08T11:50:37Z</time>
      </trkpt>
      <trkpt lat="46.01857" lon="4.60213">
        <ele>666.2</ele>
        <time>2021-09-08T11:50:39Z</time>
      </trkpt>
      <trkpt lat="46.01861" lon="4.60201">
        <ele>666</ele>
        <time>2021-09-08T11:50:44Z</time>
      </trkpt>
      <trkpt lat="46.01862" lon="4.60195">
        <ele>666.2</ele>
        <time>2021-09-08T11:50:47Z</time>
      </trkpt>
      <trkpt lat="46.01861" lon="4.60194">
        <ele>666.2</ele>
        <time>2021-09-08T11:50:48Z</time>
      </trkpt>
      <trkpt lat="46.01859" lon="4.60192">
        <ele>666</ele>
        <time>2021-09-08T11:50:50Z</time>
      </trkpt>
      <trkpt lat="46.01858" lon="4.60192">
        <ele>666</ele>
        <time>2021-09-08T11:50:51Z</time>
      </trkpt>
      <trkpt lat="46.01858" lon="4.60192">
        <ele>665.8</ele>
        <time>2021-09-08T11:50:52Z</time>
      </trkpt>
      <trkpt lat="46.01858" lon="4.60192">
        <ele>665.4</ele>
        <time>2021-09-08T11:51:02Z</time>
      </trkpt>
      <trkpt lat="46.01858" lon="4.60192">
        <ele>665.2</ele>
        <time>2021-09-08T11:51:04Z</time>
      </trkpt>
      <trkpt lat="46.01855" lon="4.602">
        <ele>665.2</ele>
        <time>2021-09-08T11:51:07Z</time>
      </trkpt>
      <trkpt lat="46.01854" lon="4.60217">
        <ele>665.6</ele>
        <time>2021-09-08T11:51:13Z</time>
      </trkpt>
      <trkpt lat="46.01858" lon="4.60231">
        <ele>666</ele>
        <time>2021-09-08T11:51:18Z</time>
      </trkpt>
      <trkpt lat="46.01859" lon="4.60241">
        <ele>666.4</ele>
        <time>2021-09-08T11:51:22Z</time>
      </trkpt>
      <trkpt lat="46.0186" lon="4.60243">
        <ele>666.4</ele>
        <time>2021-09-08T11:51:24Z</time>
      </trkpt>
      <trkpt lat="46.0186" lon="4.60243">
        <ele>666</ele>
        <time>2021-09-08T11:51:34Z</time>
      </trkpt>
      <trkpt lat="46.0186" lon="4.60243">
        <ele>665.2</ele>
        <time>2021-09-08T11:51:42Z</time>
      </trkpt>
      <trkpt lat="46.0186" lon="4.60243">
        <ele>664.8</ele>
        <time>2021-09-08T11:52:19Z</time>
      </trkpt>
      <trkpt lat="46.0186" lon="4.60243">
        <ele>665.2</ele>
        <time>2021-09-08T11:53:08Z</time>
      </trkpt>
      <trkpt lat="46.0186" lon="4.60243">
        <ele>666.2</ele>
        <time>2021-09-08T11:53:32Z</time>
      </trkpt>
      <trkpt lat="46.01861" lon="4.60239">
        <ele>666.4</ele>
        <time>2021-09-08T11:53:34Z</time>
      </trkpt>
      <trkpt lat="46.0186" lon="4.60237">
        <ele>666.6</ele>
        <time>2021-09-08T11:53:35Z</time>
      </trkpt>
      <trkpt lat="46.0186" lon="4.60234">
        <ele>666.6</ele>
        <time>2021-09-08T11:53:36Z</time>
      </trkpt>
      <trkpt lat="46.01859" lon="4.60215">
        <ele>667.2</ele>
        <time>2021-09-08T11:53:41Z</time>
      </trkpt>
      <trkpt lat="46.01861" lon="4.60209">
        <ele>667.6</ele>
        <time>2021-09-08T11:53:43Z</time>
      </trkpt>
      <trkpt lat="46.01866" lon="4.60201">
        <ele>668</ele>
        <time>2021-09-08T11:53:46Z</time>
      </trkpt>
      <trkpt lat="46.0187" lon="4.60194">
        <ele>668.4</ele>
        <time>2021-09-08T11:53:50Z</time>
      </trkpt>
      <trkpt lat="46.01871" lon="4.60192">
        <ele>668.4</ele>
        <time>2021-09-08T11:53:51Z</time>
      </trkpt>
      <trkpt lat="46.01873" lon="4.60187">
        <ele>668.4</ele>
        <time>2021-09-08T11:53:53Z</time>
      </trkpt>
      <trkpt lat="46.01874" lon="4.60182">
        <ele>668.4</ele>
        <time>2021-09-08T11:53:55Z</time>
      </trkpt>
      <trkpt lat="46.01871" lon="4.60172">
        <ele>667.8</ele>
        <time>2021-09-08T11:53:58Z</time>
      </trkpt>
      <trkpt lat="46.01869" lon="4.60162">
        <ele>667.2</ele>
        <time>2021-09-08T11:54:00Z</time>
      </trkpt>
      <trkpt lat="46.01869" lon="4.60151">
        <ele>666.6</ele>
        <time>2021-09-08T11:54:02Z</time>
      </trkpt>
      <trkpt lat="46.0187" lon="4.60146">
        <ele>666.2</ele>
        <time>2021-09-08T11:54:03Z</time>
      </trkpt>
      <trkpt lat="46.01871" lon="4.60135">
        <ele>665.4</ele>
        <time>2021-09-08T11:54:05Z</time>
      </trkpt>
      <trkpt lat="46.01873" lon="4.60122">
        <ele>664.4</ele>
        <time>2021-09-08T11:54:08Z</time>
      </trkpt>
      <trkpt lat="46.01875" lon="4.60109">
        <ele>663.2</ele>
        <time>2021-09-08T11:54:10Z</time>
      </trkpt>
      <trkpt lat="46.01878" lon="4.60096">
        <ele>661.8</ele>
        <time>2021-09-08T11:54:12Z</time>
      </trkpt>
      <trkpt lat="46.0188" lon="4.60091">
        <ele>660.8</ele>
        <time>2021-09-08T11:54:13Z</time>
      </trkpt>
      <trkpt lat="46.01884" lon="4.60079">
        <ele>659.8</ele>
        <time>2021-09-08T11:54:15Z</time>
      </trkpt>
      <trkpt lat="46.01886" lon="4.60072">
        <ele>659.4</ele>
        <time>2021-09-08T11:54:16Z</time>
      </trkpt>
      <trkpt lat="46.0189" lon="4.60062">
        <ele>657.6</ele>
        <time>2021-09-08T11:54:18Z</time>
      </trkpt>
      <trkpt lat="46.01891" lon="4.60057">
        <ele>656.8</ele>
        <time>2021-09-08T11:54:19Z</time>
      </trkpt>
      <trkpt lat="46.01893" lon="4.60053">
        <ele>656</ele>
        <time>2021-09-08T11:54:20Z</time>
      </trkpt>
      <trkpt lat="46.01897" lon="4.60038">
        <ele>654.6</ele>
        <time>2021-09-08T11:54:23Z</time>
      </trkpt>
      <trkpt lat="46.01898" lon="4.60033">
        <ele>653.2</ele>
        <time>2021-09-08T11:54:24Z</time>
      </trkpt>
      <trkpt lat="46.019" lon="4.60029">
        <ele>652.4</ele>
        <time>2021-09-08T11:54:25Z</time>
      </trkpt>
      <trkpt lat="46.01903" lon="4.60025">
        <ele>652</ele>
        <time>2021-09-08T11:54:26Z</time>
      </trkpt>
      <trkpt lat="46.01912" lon="4.60013">
        <ele>651.2</ele>
        <time>2021-09-08T11:54:28Z</time>
      </trkpt>
      <trkpt lat="46.01916" lon="4.6">
        <ele>650.6</ele>
        <time>2021-09-08T11:54:29Z</time>
      </trkpt>
      <trkpt lat="46.0192" lon="4.59989">
        <ele>650</ele>
        <time>2021-09-08T11:54:30Z</time>
      </trkpt>
      <trkpt lat="46.01922" lon="4.59977">
        <ele>649.2</ele>
        <time>2021-09-08T11:54:31Z</time>
      </trkpt>
      <trkpt lat="46.01924" lon="4.59966">
        <ele>648</ele>
        <time>2021-09-08T11:54:32Z</time>
      </trkpt>
      <trkpt lat="46.01927" lon="4.59945">
        <ele>647.4</ele>
        <time>2021-09-08T11:54:34Z</time>
      </trkpt>
      <trkpt lat="46.01929" lon="4.59937">
        <ele>647.2</ele>
        <time>2021-09-08T11:54:35Z</time>
      </trkpt>
      <trkpt lat="46.01932" lon="4.59919">
        <ele>646.2</ele>
        <time>2021-09-08T11:54:37Z</time>
      </trkpt>
      <trkpt lat="46.01934" lon="4.5991">
        <ele>645.6</ele>
        <time>2021-09-08T11:54:38Z</time>
      </trkpt>
      <trkpt lat="46.01937" lon="4.59903">
        <ele>644.8</ele>
        <time>2021-09-08T11:54:39Z</time>
      </trkpt>
      <trkpt lat="46.01938" lon="4.59895">
        <ele>644.4</ele>
        <time>2021-09-08T11:54:40Z</time>
      </trkpt>
      <trkpt lat="46.01941" lon="4.59879">
        <ele>643.6</ele>
        <time>2021-09-08T11:54:42Z</time>
      </trkpt>
      <trkpt lat="46.01947" lon="4.59842">
        <ele>642.4</ele>
        <time>2021-09-08T11:54:47Z</time>
      </trkpt>
      <trkpt lat="46.01953" lon="4.59796">
        <ele>641.8</ele>
        <time>2021-09-08T11:54:53Z</time>
      </trkpt>
      <trkpt lat="46.01956" lon="4.59788">
        <ele>641.8</ele>
        <time>2021-09-08T11:54:54Z</time>
      </trkpt>
      <trkpt lat="46.0196" lon="4.59775">
        <ele>641.8</ele>
        <time>2021-09-08T11:54:56Z</time>
      </trkpt>
      <trkpt lat="46.01961" lon="4.59768">
        <ele>641.8</ele>
        <time>2021-09-08T11:54:57Z</time>
      </trkpt>
      <trkpt lat="46.01962" lon="4.59761">
        <ele>642</ele>
        <time>2021-09-08T11:54:58Z</time>
      </trkpt>
      <trkpt lat="46.01967" lon="4.59728">
        <ele>642.4</ele>
        <time>2021-09-08T11:55:03Z</time>
      </trkpt>
      <trkpt lat="46.01969" lon="4.59717">
        <ele>642.6</ele>
        <time>2021-09-08T11:55:05Z</time>
      </trkpt>
      <trkpt lat="46.01973" lon="4.59695">
        <ele>643</ele>
        <time>2021-09-08T11:55:08Z</time>
      </trkpt>
      <trkpt lat="46.01977" lon="4.59677">
        <ele>643.4</ele>
        <time>2021-09-08T11:55:11Z</time>
      </trkpt>
      <trkpt lat="46.01978" lon="4.59665">
        <ele>643.6</ele>
        <time>2021-09-08T11:55:13Z</time>
      </trkpt>
      <trkpt lat="46.01974" lon="4.59643">
        <ele>644</ele>
        <time>2021-09-08T11:55:17Z</time>
      </trkpt>
      <trkpt lat="46.01964" lon="4.5962">
        <ele>644.6</ele>
        <time>2021-09-08T11:55:21Z</time>
      </trkpt>
      <trkpt lat="46.01955" lon="4.59601">
        <ele>645.2</ele>
        <time>2021-09-08T11:55:24Z</time>
      </trkpt>
      <trkpt lat="46.01951" lon="4.59589">
        <ele>645.8</ele>
        <time>2021-09-08T11:55:26Z</time>
      </trkpt>
      <trkpt lat="46.01944" lon="4.59563">
        <ele>646.4</ele>
        <time>2021-09-08T11:55:30Z</time>
      </trkpt>
      <trkpt lat="46.01941" lon="4.59531">
        <ele>646.6</ele>
        <time>2021-09-08T11:55:35Z</time>
      </trkpt>
      <trkpt lat="46.0194" lon="4.59526">
        <ele>646.8</ele>
        <time>2021-09-08T11:55:36Z</time>
      </trkpt>
      <trkpt lat="46.01945" lon="4.59489">
        <ele>647.2</ele>
        <time>2021-09-08T11:55:42Z</time>
      </trkpt>
      <trkpt lat="46.01949" lon="4.59465">
        <ele>647.4</ele>
        <time>2021-09-08T11:55:46Z</time>
      </trkpt>
      <trkpt lat="46.01949" lon="4.59452">
        <ele>647.8</ele>
        <time>2021-09-08T11:55:48Z</time>
      </trkpt>
      <trkpt lat="46.0195" lon="4.59445">
        <ele>648</ele>
        <time>2021-09-08T11:55:49Z</time>
      </trkpt>
      <trkpt lat="46.01955" lon="4.59426">
        <ele>648.4</ele>
        <time>2021-09-08T11:55:52Z</time>
      </trkpt>
      <trkpt lat="46.01956" lon="4.59419">
        <ele>648.4</ele>
        <time>2021-09-08T11:55:53Z</time>
      </trkpt>
      <trkpt lat="46.01958" lon="4.59404">
        <ele>648.2</ele>
        <time>2021-09-08T11:55:55Z</time>
      </trkpt>
      <trkpt lat="46.01959" lon="4.5939">
        <ele>648.4</ele>
        <time>2021-09-08T11:55:57Z</time>
      </trkpt>
      <trkpt lat="46.01961" lon="4.59377">
        <ele>648.2</ele>
        <time>2021-09-08T11:55:59Z</time>
      </trkpt>
      <trkpt lat="46.01962" lon="4.59371">
        <ele>648.2</ele>
        <time>2021-09-08T11:56:00Z</time>
      </trkpt>
      <trkpt lat="46.01965" lon="4.59358">
        <ele>648.6</ele>
        <time>2021-09-08T11:56:02Z</time>
      </trkpt>
      <trkpt lat="46.01967" lon="4.59331">
        <ele>648.8</ele>
        <time>2021-09-08T11:56:06Z</time>
      </trkpt>
      <trkpt lat="46.01969" lon="4.59319">
        <ele>649</ele>
        <time>2021-09-08T11:56:08Z</time>
      </trkpt>
      <trkpt lat="46.0197" lon="4.59313">
        <ele>649.2</ele>
        <time>2021-09-08T11:56:09Z</time>
      </trkpt>
      <trkpt lat="46.01973" lon="4.59299">
        <ele>649.2</ele>
        <time>2021-09-08T11:56:11Z</time>
      </trkpt>
      <trkpt lat="46.01984" lon="4.59279">
        <ele>648.6</ele>
        <time>2021-09-08T11:56:15Z</time>
      </trkpt>
      <trkpt lat="46.01989" lon="4.59271">
        <ele>649.6</ele>
        <time>2021-09-08T11:56:17Z</time>
      </trkpt>
      <trkpt lat="46.02011" lon="4.59236">
        <ele>650</ele>
        <time>2021-09-08T11:56:25Z</time>
      </trkpt>
      <trkpt lat="46.02014" lon="4.59231">
        <ele>649.8</ele>
        <time>2021-09-08T11:56:26Z</time>
      </trkpt>
      <trkpt lat="46.02025" lon="4.59214">
        <ele>650.2</ele>
        <time>2021-09-08T11:56:30Z</time>
      </trkpt>
      <trkpt lat="46.02046" lon="4.59192">
        <ele>650.4</ele>
        <time>2021-09-08T11:56:36Z</time>
      </trkpt>
      <trkpt lat="46.02053" lon="4.59185">
        <ele>650.4</ele>
        <time>2021-09-08T11:56:38Z</time>
      </trkpt>
      <trkpt lat="46.02073" lon="4.59166">
        <ele>650.2</ele>
        <time>2021-09-08T11:56:43Z</time>
      </trkpt>
      <trkpt lat="46.02078" lon="4.59161">
        <ele>650</ele>
        <time>2021-09-08T11:56:44Z</time>
      </trkpt>
      <trkpt lat="46.0209" lon="4.5915">
        <ele>649.4</ele>
        <time>2021-09-08T11:56:47Z</time>
      </trkpt>
      <trkpt lat="46.02094" lon="4.59145">
        <ele>649</ele>
        <time>2021-09-08T11:56:49Z</time>
      </trkpt>
      <trkpt lat="46.02095" lon="4.59143">
        <ele>648.8</ele>
        <time>2021-09-08T11:56:50Z</time>
      </trkpt>
      <trkpt lat="46.02096" lon="4.59143">
        <ele>648.8</ele>
        <time>2021-09-08T11:56:52Z</time>
      </trkpt>
      <trkpt lat="46.02106" lon="4.59136">
        <ele>648.6</ele>
        <time>2021-09-08T11:56:58Z</time>
      </trkpt>
      <trkpt lat="46.02125" lon="4.59121">
        <ele>647.6</ele>
        <time>2021-09-08T11:57:02Z</time>
      </trkpt>
      <trkpt lat="46.0213" lon="4.59116">
        <ele>647.4</ele>
        <time>2021-09-08T11:57:03Z</time>
      </trkpt>
      <trkpt lat="46.02134" lon="4.59111">
        <ele>646.8</ele>
        <time>2021-09-08T11:57:04Z</time>
      </trkpt>
      <trkpt lat="46.02149" lon="4.59101">
        <ele>646.4</ele>
        <time>2021-09-08T11:57:06Z</time>
      </trkpt>
      <trkpt lat="46.02174" lon="4.59087">
        <ele>645.2</ele>
        <time>2021-09-08T11:57:10Z</time>
      </trkpt>
      <trkpt lat="46.02186" lon="4.59081">
        <ele>644.6</ele>
        <time>2021-09-08T11:57:12Z</time>
      </trkpt>
      <trkpt lat="46.02191" lon="4.59077">
        <ele>644</ele>
        <time>2021-09-08T11:57:13Z</time>
      </trkpt>
      <trkpt lat="46.02202" lon="4.59064">
        <ele>643</ele>
        <time>2021-09-08T11:57:16Z</time>
      </trkpt>
      <trkpt lat="46.02213" lon="4.59046">
        <ele>642.8</ele>
        <time>2021-09-08T11:57:20Z</time>
      </trkpt>
      <trkpt lat="46.02216" lon="4.59042">
        <ele>643</ele>
        <time>2021-09-08T11:57:21Z</time>
      </trkpt>
      <trkpt lat="46.02226" lon="4.59033">
        <ele>644</ele>
        <time>2021-09-08T11:57:24Z</time>
      </trkpt>
      <trkpt lat="46.02234" lon="4.59026">
        <ele>644.6</ele>
        <time>2021-09-08T11:57:27Z</time>
      </trkpt>
      <trkpt lat="46.02236" lon="4.5901">
        <ele>645.6</ele>
        <time>2021-09-08T11:57:31Z</time>
      </trkpt>
      <trkpt lat="46.02237" lon="4.58986">
        <ele>647</ele>
        <time>2021-09-08T11:57:35Z</time>
      </trkpt>
      <trkpt lat="46.02237" lon="4.5898">
        <ele>647.4</ele>
        <time>2021-09-08T11:57:36Z</time>
      </trkpt>
      <trkpt lat="46.02235" lon="4.58952">
        <ele>647.6</ele>
        <time>2021-09-08T11:57:41Z</time>
      </trkpt>
      <trkpt lat="46.02237" lon="4.58947">
        <ele>647.6</ele>
        <time>2021-09-08T11:57:42Z</time>
      </trkpt>
      <trkpt lat="46.02244" lon="4.58929">
        <ele>646.8</ele>
        <time>2021-09-08T11:57:45Z</time>
      </trkpt>
      <trkpt lat="46.02247" lon="4.58922">
        <ele>646.8</ele>
        <time>2021-09-08T11:57:46Z</time>
      </trkpt>
      <trkpt lat="46.02251" lon="4.58909">
        <ele>646.6</ele>
        <time>2021-09-08T11:57:48Z</time>
      </trkpt>
      <trkpt lat="46.02253" lon="4.58903">
        <ele>646.4</ele>
        <time>2021-09-08T11:57:49Z</time>
      </trkpt>
      <trkpt lat="46.02256" lon="4.58896">
        <ele>646.4</ele>
        <time>2021-09-08T11:57:50Z</time>
      </trkpt>
      <trkpt lat="46.02261" lon="4.58885">
        <ele>646</ele>
        <time>2021-09-08T11:57:52Z</time>
      </trkpt>
      <trkpt lat="46.02265" lon="4.58881">
        <ele>646</ele>
        <time>2021-09-08T11:57:53Z</time>
      </trkpt>
      <trkpt lat="46.02284" lon="4.58851">
        <ele>645</ele>
        <time>2021-09-08T11:58:00Z</time>
      </trkpt>
      <trkpt lat="46.02298" lon="4.5884">
        <ele>644.6</ele>
        <time>2021-09-08T11:58:05Z</time>
      </trkpt>
      <trkpt lat="46.02306" lon="4.58836">
        <ele>645.2</ele>
        <time>2021-09-08T11:58:08Z</time>
      </trkpt>
      <trkpt lat="46.02309" lon="4.58826">
        <ele>646</ele>
        <time>2021-09-08T11:58:10Z</time>
      </trkpt>
      <trkpt lat="46.02311" lon="4.58823">
        <ele>646.2</ele>
        <time>2021-09-08T11:58:11Z</time>
      </trkpt>
      <trkpt lat="46.02321" lon="4.58802">
        <ele>647.6</ele>
        <time>2021-09-08T11:58:14Z</time>
      </trkpt>
      <trkpt lat="46.02324" lon="4.58789">
        <ele>647.8</ele>
        <time>2021-09-08T11:58:16Z</time>
      </trkpt>
      <trkpt lat="46.02326" lon="4.58774">
        <ele>647.8</ele>
        <time>2021-09-08T11:58:18Z</time>
      </trkpt>
      <trkpt lat="46.02338" lon="4.58749">
        <ele>648.4</ele>
        <time>2021-09-08T11:58:22Z</time>
      </trkpt>
      <trkpt lat="46.02341" lon="4.58745">
        <ele>648.4</ele>
        <time>2021-09-08T11:58:23Z</time>
      </trkpt>
      <trkpt lat="46.02344" lon="4.58741">
        <ele>648.4</ele>
        <time>2021-09-08T11:58:24Z</time>
      </trkpt>
      <trkpt lat="46.02348" lon="4.58733">
        <ele>648.4</ele>
        <time>2021-09-08T11:58:26Z</time>
      </trkpt>
      <trkpt lat="46.02353" lon="4.58719">
        <ele>648.8</ele>
        <time>2021-09-08T11:58:29Z</time>
      </trkpt>
      <trkpt lat="46.02358" lon="4.58712">
        <ele>648.8</ele>
        <time>2021-09-08T11:58:31Z</time>
      </trkpt>
      <trkpt lat="46.02374" lon="4.58691">
        <ele>649</ele>
        <time>2021-09-08T11:58:37Z</time>
      </trkpt>
      <trkpt lat="46.02376" lon="4.58688">
        <ele>649.4</ele>
        <time>2021-09-08T11:58:38Z</time>
      </trkpt>
      <trkpt lat="46.02379" lon="4.58682">
        <ele>650.2</ele>
        <time>2021-09-08T11:58:40Z</time>
      </trkpt>
      <trkpt lat="46.02381" lon="4.58681">
        <ele>650.6</ele>
        <time>2021-09-08T11:58:41Z</time>
      </trkpt>
      <trkpt lat="46.02383" lon="4.58678">
        <ele>650.6</ele>
        <time>2021-09-08T11:58:42Z</time>
      </trkpt>
      <trkpt lat="46.02386" lon="4.58674">
        <ele>651</ele>
        <time>2021-09-08T11:58:43Z</time>
      </trkpt>
      <trkpt lat="46.0239" lon="4.58667">
        <ele>651.4</ele>
        <time>2021-09-08T11:58:45Z</time>
      </trkpt>
      <trkpt lat="46.02392" lon="4.58664">
        <ele>651.4</ele>
        <time>2021-09-08T11:58:46Z</time>
      </trkpt>
      <trkpt lat="46.02396" lon="4.5866">
        <ele>651.8</ele>
        <time>2021-09-08T11:58:47Z</time>
      </trkpt>
      <trkpt lat="46.02399" lon="4.58656">
        <ele>652.4</ele>
        <time>2021-09-08T11:58:48Z</time>
      </trkpt>
      <trkpt lat="46.02403" lon="4.58652">
        <ele>652.6</ele>
        <time>2021-09-08T11:58:49Z</time>
      </trkpt>
      <trkpt lat="46.02409" lon="4.58646">
        <ele>652.8</ele>
        <time>2021-09-08T11:58:51Z</time>
      </trkpt>
      <trkpt lat="46.02413" lon="4.58643">
        <ele>653</ele>
        <time>2021-09-08T11:58:52Z</time>
      </trkpt>
      <trkpt lat="46.02425" lon="4.58632">
        <ele>653.2</ele>
        <time>2021-09-08T11:58:56Z</time>
      </trkpt>
      <trkpt lat="46.02435" lon="4.58615">
        <ele>653.6</ele>
        <time>2021-09-08T11:59:00Z</time>
      </trkpt>
      <trkpt lat="46.0244" lon="4.5861">
        <ele>653.6</ele>
        <time>2021-09-08T11:59:01Z</time>
      </trkpt>
      <trkpt lat="46.02455" lon="4.58593">
        <ele>653.8</ele>
        <time>2021-09-08T11:59:05Z</time>
      </trkpt>
      <trkpt lat="46.02463" lon="4.58585">
        <ele>654</ele>
        <time>2021-09-08T11:59:07Z</time>
      </trkpt>
      <trkpt lat="46.02472" lon="4.58569">
        <ele>653.8</ele>
        <time>2021-09-08T11:59:10Z</time>
      </trkpt>
      <trkpt lat="46.02485" lon="4.58551">
        <ele>653.2</ele>
        <time>2021-09-08T11:59:14Z</time>
      </trkpt>
      <trkpt lat="46.02488" lon="4.58547">
        <ele>653.2</ele>
        <time>2021-09-08T11:59:15Z</time>
      </trkpt>
      <trkpt lat="46.02496" lon="4.58543">
        <ele>652.6</ele>
        <time>2021-09-08T11:59:17Z</time>
      </trkpt>
      <trkpt lat="46.02505" lon="4.5854">
        <ele>652.2</ele>
        <time>2021-09-08T11:59:20Z</time>
      </trkpt>
      <trkpt lat="46.02523" lon="4.58532">
        <ele>652.6</ele>
        <time>2021-09-08T11:59:26Z</time>
      </trkpt>
      <trkpt lat="46.02538" lon="4.58524">
        <ele>653.4</ele>
        <time>2021-09-08T11:59:31Z</time>
      </trkpt>
      <trkpt lat="46.02544" lon="4.58519">
        <ele>653.8</ele>
        <time>2021-09-08T11:59:33Z</time>
      </trkpt>
      <trkpt lat="46.02553" lon="4.58517">
        <ele>654.8</ele>
        <time>2021-09-08T11:59:36Z</time>
      </trkpt>
      <trkpt lat="46.02565" lon="4.58511">
        <ele>656</ele>
        <time>2021-09-08T11:59:40Z</time>
      </trkpt>
      <trkpt lat="46.02568" lon="4.58509">
        <ele>656.4</ele>
        <time>2021-09-08T11:59:41Z</time>
      </trkpt>
      <trkpt lat="46.02573" lon="4.58503">
        <ele>657</ele>
        <time>2021-09-08T11:59:43Z</time>
      </trkpt>
      <trkpt lat="46.02579" lon="4.58499">
        <ele>657.8</ele>
        <time>2021-09-08T11:59:45Z</time>
      </trkpt>
      <trkpt lat="46.02587" lon="4.58498">
        <ele>658</ele>
        <time>2021-09-08T11:59:48Z</time>
      </trkpt>
      <trkpt lat="46.02597" lon="4.58496">
        <ele>658.4</ele>
        <time>2021-09-08T11:59:51Z</time>
      </trkpt>
      <trkpt lat="46.02602" lon="4.58495">
        <ele>659.2</ele>
        <time>2021-09-08T11:59:53Z</time>
      </trkpt>
      <trkpt lat="46.02609" lon="4.58491">
        <ele>660.4</ele>
        <time>2021-09-08T11:59:55Z</time>
      </trkpt>
      <trkpt lat="46.02611" lon="4.58491">
        <ele>660.6</ele>
        <time>2021-09-08T11:59:56Z</time>
      </trkpt>
      <trkpt lat="46.02615" lon="4.5849">
        <ele>661.8</ele>
        <time>2021-09-08T11:59:57Z</time>
      </trkpt>
      <trkpt lat="46.02623" lon="4.58488">
        <ele>662.8</ele>
        <time>2021-09-08T12:00:00Z</time>
      </trkpt>
      <trkpt lat="46.02626" lon="4.58487">
        <ele>663</ele>
        <time>2021-09-08T12:00:01Z</time>
      </trkpt>
      <trkpt lat="46.02629" lon="4.58484">
        <ele>664</ele>
        <time>2021-09-08T12:00:02Z</time>
      </trkpt>
      <trkpt lat="46.02634" lon="4.58483">
        <ele>665.2</ele>
        <time>2021-09-08T12:00:04Z</time>
      </trkpt>
      <trkpt lat="46.02637" lon="4.58483">
        <ele>665.6</ele>
        <time>2021-09-08T12:00:05Z</time>
      </trkpt>
      <trkpt lat="46.0264" lon="4.58482">
        <ele>665.8</ele>
        <time>2021-09-08T12:00:06Z</time>
      </trkpt>
      <trkpt lat="46.02648" lon="4.58477">
        <ele>666.2</ele>
        <time>2021-09-08T12:00:08Z</time>
      </trkpt>
      <trkpt lat="46.0265" lon="4.58477">
        <ele>666.8</ele>
        <time>2021-09-08T12:00:09Z</time>
      </trkpt>
      <trkpt lat="46.02658" lon="4.58473">
        <ele>667</ele>
        <time>2021-09-08T12:00:11Z</time>
      </trkpt>
      <trkpt lat="46.02661" lon="4.58474">
        <ele>667.4</ele>
        <time>2021-09-08T12:00:12Z</time>
      </trkpt>
      <trkpt lat="46.02667" lon="4.58474">
        <ele>667.6</ele>
        <time>2021-09-08T12:00:13Z</time>
      </trkpt>
      <trkpt lat="46.02682" lon="4.58481">
        <ele>668.2</ele>
        <time>2021-09-08T12:00:18Z</time>
      </trkpt>
      <trkpt lat="46.02683" lon="4.58481">
        <ele>668.4</ele>
        <time>2021-09-08T12:00:19Z</time>
      </trkpt>
      <trkpt lat="46.02689" lon="4.58481">
        <ele>668.8</ele>
        <time>2021-09-08T12:00:21Z</time>
      </trkpt>
      <trkpt lat="46.02692" lon="4.58482">
        <ele>669</ele>
        <time>2021-09-08T12:00:22Z</time>
      </trkpt>
      <trkpt lat="46.02709" lon="4.58483">
        <ele>669.6</ele>
        <time>2021-09-08T12:00:26Z</time>
      </trkpt>
      <trkpt lat="46.02708" lon="4.58482">
        <ele>669.8</ele>
        <time>2021-09-08T12:00:27Z</time>
      </trkpt>
      <trkpt lat="46.02711" lon="4.58483">
        <ele>669.8</ele>
        <time>2021-09-08T12:00:28Z</time>
      </trkpt>
      <trkpt lat="46.02714" lon="4.58484">
        <ele>669.6</ele>
        <time>2021-09-08T12:00:29Z</time>
      </trkpt>
      <trkpt lat="46.02738" lon="4.58485">
        <ele>669.8</ele>
        <time>2021-09-08T12:00:35Z</time>
      </trkpt>
      <trkpt lat="46.02758" lon="4.58482">
        <ele>670.2</ele>
        <time>2021-09-08T12:00:40Z</time>
      </trkpt>
      <trkpt lat="46.02788" lon="4.58466">
        <ele>670.6</ele>
        <time>2021-09-08T12:00:48Z</time>
      </trkpt>
      <trkpt lat="46.02795" lon="4.58465">
        <ele>671.4</ele>
        <time>2021-09-08T12:00:50Z</time>
      </trkpt>
      <trkpt lat="46.02804" lon="4.58456">
        <ele>671.8</ele>
        <time>2021-09-08T12:00:53Z</time>
      </trkpt>
      <trkpt lat="46.02817" lon="4.58442">
        <ele>672.2</ele>
        <time>2021-09-08T12:00:57Z</time>
      </trkpt>
      <trkpt lat="46.02828" lon="4.58425">
        <ele>672.2</ele>
        <time>2021-09-08T12:01:03Z</time>
      </trkpt>
      <trkpt lat="46.02842" lon="4.58408">
        <ele>671.4</ele>
        <time>2021-09-08T12:01:09Z</time>
      </trkpt>
      <trkpt lat="46.02847" lon="4.58404">
        <ele>671.2</ele>
        <time>2021-09-08T12:01:11Z</time>
      </trkpt>
      <trkpt lat="46.02851" lon="4.58397">
        <ele>671.4</ele>
        <time>2021-09-08T12:01:13Z</time>
      </trkpt>
      <trkpt lat="46.02859" lon="4.58388">
        <ele>671.6</ele>
        <time>2021-09-08T12:01:17Z</time>
      </trkpt>
      <trkpt lat="46.0286" lon="4.58386">
        <ele>671.6</ele>
        <time>2021-09-08T12:01:18Z</time>
      </trkpt>
      <trkpt lat="46.02863" lon="4.5838">
        <ele>671.6</ele>
        <time>2021-09-08T12:01:20Z</time>
      </trkpt>
      <trkpt lat="46.02871" lon="4.58345">
        <ele>671.4</ele>
        <time>2021-09-08T12:01:24Z</time>
      </trkpt>
      <trkpt lat="46.02876" lon="4.58326">
        <ele>671.2</ele>
        <time>2021-09-08T12:01:26Z</time>
      </trkpt>
      <trkpt lat="46.02881" lon="4.58305">
        <ele>671</ele>
        <time>2021-09-08T12:01:28Z</time>
      </trkpt>
      <trkpt lat="46.02884" lon="4.58294">
        <ele>670.6</ele>
        <time>2021-09-08T12:01:29Z</time>
      </trkpt>
      <trkpt lat="46.02886" lon="4.58283">
        <ele>670.2</ele>
        <time>2021-09-08T12:01:30Z</time>
      </trkpt>
      <trkpt lat="46.02888" lon="4.58274">
        <ele>669.6</ele>
        <time>2021-09-08T12:01:31Z</time>
      </trkpt>
      <trkpt lat="46.02888" lon="4.58269">
        <ele>669.4</ele>
        <time>2021-09-08T12:01:32Z</time>
      </trkpt>
      <trkpt lat="46.02888" lon="4.58264">
        <ele>669</ele>
        <time>2021-09-08T12:01:33Z</time>
      </trkpt>
      <trkpt lat="46.02887" lon="4.58258">
        <ele>668.6</ele>
        <time>2021-09-08T12:01:34Z</time>
      </trkpt>
      <trkpt lat="46.02888" lon="4.58243">
        <ele>668</ele>
        <time>2021-09-08T12:01:36Z</time>
      </trkpt>
      <trkpt lat="46.02888" lon="4.58228">
        <ele>667.2</ele>
        <time>2021-09-08T12:01:38Z</time>
      </trkpt>
      <trkpt lat="46.02888" lon="4.58221">
        <ele>666.6</ele>
        <time>2021-09-08T12:01:39Z</time>
      </trkpt>
      <trkpt lat="46.02889" lon="4.58212">
        <ele>665.4</ele>
        <time>2021-09-08T12:01:41Z</time>
      </trkpt>
      <trkpt lat="46.0289" lon="4.58206">
        <ele>665.2</ele>
        <time>2021-09-08T12:01:42Z</time>
      </trkpt>
      <trkpt lat="46.02892" lon="4.58193">
        <ele>664.4</ele>
        <time>2021-09-08T12:01:45Z</time>
      </trkpt>
      <trkpt lat="46.0289" lon="4.58185">
        <ele>663.6</ele>
        <time>2021-09-08T12:01:47Z</time>
      </trkpt>
      <trkpt lat="46.02889" lon="4.58181">
        <ele>663</ele>
        <time>2021-09-08T12:01:48Z</time>
      </trkpt>
      <trkpt lat="46.0289" lon="4.58177">
        <ele>662.8</ele>
        <time>2021-09-08T12:01:49Z</time>
      </trkpt>
      <trkpt lat="46.0289" lon="4.58168">
        <ele>661.8</ele>
        <time>2021-09-08T12:01:51Z</time>
      </trkpt>
      <trkpt lat="46.02892" lon="4.58152">
        <ele>661</ele>
        <time>2021-09-08T12:01:55Z</time>
      </trkpt>
      <trkpt lat="46.02892" lon="4.58148">
        <ele>660.6</ele>
        <time>2021-09-08T12:01:56Z</time>
      </trkpt>
      <trkpt lat="46.02896" lon="4.58126">
        <ele>660</ele>
        <time>2021-09-08T12:02:02Z</time>
      </trkpt>
      <trkpt lat="46.02902" lon="4.58111">
        <ele>660</ele>
        <time>2021-09-08T12:02:07Z</time>
      </trkpt>
      <trkpt lat="46.02912" lon="4.58094">
        <ele>660.6</ele>
        <time>2021-09-08T12:02:13Z</time>
      </trkpt>
      <trkpt lat="46.02913" lon="4.58091">
        <ele>660.8</ele>
        <time>2021-09-08T12:02:14Z</time>
      </trkpt>
      <trkpt lat="46.02913" lon="4.58087">
        <ele>661.6</ele>
        <time>2021-09-08T12:02:16Z</time>
      </trkpt>
      <trkpt lat="46.02915" lon="4.58081">
        <ele>662.6</ele>
        <time>2021-09-08T12:02:19Z</time>
      </trkpt>
      <trkpt lat="46.02916" lon="4.58077">
        <ele>662.8</ele>
        <time>2021-09-08T12:02:20Z</time>
      </trkpt>
      <trkpt lat="46.02915" lon="4.58067">
        <ele>663.2</ele>
        <time>2021-09-08T12:02:23Z</time>
      </trkpt>
      <trkpt lat="46.02909" lon="4.58045">
        <ele>663.2</ele>
        <time>2021-09-08T12:02:27Z</time>
      </trkpt>
      <trkpt lat="46.02903" lon="4.58013">
        <ele>663</ele>
        <time>2021-09-08T12:02:32Z</time>
      </trkpt>
      <trkpt lat="46.02893" lon="4.57965">
        <ele>661.6</ele>
        <time>2021-09-08T12:02:39Z</time>
      </trkpt>
      <trkpt lat="46.02887" lon="4.57947">
        <ele>660.6</ele>
        <time>2021-09-08T12:02:42Z</time>
      </trkpt>
      <trkpt lat="46.02886" lon="4.57941">
        <ele>659.6</ele>
        <time>2021-09-08T12:02:43Z</time>
      </trkpt>
      <trkpt lat="46.0288" lon="4.57919">
        <ele>657.4</ele>
        <time>2021-09-08T12:02:46Z</time>
      </trkpt>
      <trkpt lat="46.02878" lon="4.57912">
        <ele>657.2</ele>
        <time>2021-09-08T12:02:47Z</time>
      </trkpt>
      <trkpt lat="46.02876" lon="4.57905">
        <ele>655.8</ele>
        <time>2021-09-08T12:02:48Z</time>
      </trkpt>
      <trkpt lat="46.0287" lon="4.57893">
        <ele>654</ele>
        <time>2021-09-08T12:02:50Z</time>
      </trkpt>
      <trkpt lat="46.02867" lon="4.57886">
        <ele>653.2</ele>
        <time>2021-09-08T12:02:51Z</time>
      </trkpt>
      <trkpt lat="46.02865" lon="4.5788">
        <ele>652.6</ele>
        <time>2021-09-08T12:02:52Z</time>
      </trkpt>
      <trkpt lat="46.02863" lon="4.57875">
        <ele>651.4</ele>
        <time>2021-09-08T12:02:53Z</time>
      </trkpt>
      <trkpt lat="46.02862" lon="4.57865">
        <ele>649.8</ele>
        <time>2021-09-08T12:02:55Z</time>
      </trkpt>
      <trkpt lat="46.02862" lon="4.57862">
        <ele>648.6</ele>
        <time>2021-09-08T12:02:56Z</time>
      </trkpt>
      <trkpt lat="46.02863" lon="4.57861">
        <ele>648</ele>
        <time>2021-09-08T12:02:57Z</time>
      </trkpt>
      <trkpt lat="46.02863" lon="4.5786">
        <ele>646.8</ele>
        <time>2021-09-08T12:02:58Z</time>
      </trkpt>
      <trkpt lat="46.02864" lon="4.5785">
        <ele>645</ele>
        <time>2021-09-08T12:03:00Z</time>
      </trkpt>
      <trkpt lat="46.02863" lon="4.57841">
        <ele>643.4</ele>
        <time>2021-09-08T12:03:02Z</time>
      </trkpt>
      <trkpt lat="46.02864" lon="4.57838">
        <ele>642.2</ele>
        <time>2021-09-08T12:03:03Z</time>
      </trkpt>
      <trkpt lat="46.02866" lon="4.57831">
        <ele>640.6</ele>
        <time>2021-09-08T12:03:05Z</time>
      </trkpt>
      <trkpt lat="46.02867" lon="4.57829">
        <ele>639.8</ele>
        <time>2021-09-08T12:03:06Z</time>
      </trkpt>
      <trkpt lat="46.02868" lon="4.57827">
        <ele>638.6</ele>
        <time>2021-09-08T12:03:07Z</time>
      </trkpt>
      <trkpt lat="46.0287" lon="4.57825">
        <ele>637.8</ele>
        <time>2021-09-08T12:03:08Z</time>
      </trkpt>
      <trkpt lat="46.0287" lon="4.57825">
        <ele>637.6</ele>
        <time>2021-09-08T12:03:09Z</time>
      </trkpt>
      <trkpt lat="46.0287" lon="4.57825">
        <ele>635.6</ele>
        <time>2021-09-08T12:03:10Z</time>
      </trkpt>
      <trkpt lat="46.0287" lon="4.57825">
        <ele>634</ele>
        <time>2021-09-08T12:03:12Z</time>
      </trkpt>
      <trkpt lat="46.0287" lon="4.57822">
        <ele>632.8</ele>
        <time>2021-09-08T12:03:14Z</time>
      </trkpt>
      <trkpt lat="46.02871" lon="4.57818">
        <ele>631.6</ele>
        <time>2021-09-08T12:03:15Z</time>
      </trkpt>
      <trkpt lat="46.02872" lon="4.57815">
        <ele>631</ele>
        <time>2021-09-08T12:03:16Z</time>
      </trkpt>
      <trkpt lat="46.02872" lon="4.57812">
        <ele>630.4</ele>
        <time>2021-09-08T12:03:17Z</time>
      </trkpt>
      <trkpt lat="46.02873" lon="4.57807">
        <ele>629</ele>
        <time>2021-09-08T12:03:19Z</time>
      </trkpt>
      <trkpt lat="46.02874" lon="4.57804">
        <ele>627.8</ele>
        <time>2021-09-08T12:03:20Z</time>
      </trkpt>
      <trkpt lat="46.02875" lon="4.57801">
        <ele>627.2</ele>
        <time>2021-09-08T12:03:21Z</time>
      </trkpt>
      <trkpt lat="46.02875" lon="4.57801">
        <ele>626.6</ele>
        <time>2021-09-08T12:03:22Z</time>
      </trkpt>
      <trkpt lat="46.02878" lon="4.57794">
        <ele>624.8</ele>
        <time>2021-09-08T12:03:25Z</time>
      </trkpt>
      <trkpt lat="46.02883" lon="4.57787">
        <ele>623</ele>
        <time>2021-09-08T12:03:27Z</time>
      </trkpt>
      <trkpt lat="46.02881" lon="4.57777">
        <ele>621.6</ele>
        <time>2021-09-08T12:03:29Z</time>
      </trkpt>
      <trkpt lat="46.02878" lon="4.57773">
        <ele>621</ele>
        <time>2021-09-08T12:03:30Z</time>
      </trkpt>
      <trkpt lat="46.02874" lon="4.57768">
        <ele>619.8</ele>
        <time>2021-09-08T12:03:31Z</time>
      </trkpt>
      <trkpt lat="46.02864" lon="4.57756">
        <ele>618.2</ele>
        <time>2021-09-08T12:03:34Z</time>
      </trkpt>
      <trkpt lat="46.0286" lon="4.57747">
        <ele>616.8</ele>
        <time>2021-09-08T12:03:36Z</time>
      </trkpt>
      <trkpt lat="46.02859" lon="4.57743">
        <ele>615.8</ele>
        <time>2021-09-08T12:03:37Z</time>
      </trkpt>
      <trkpt lat="46.02857" lon="4.57735">
        <ele>614.8</ele>
        <time>2021-09-08T12:03:39Z</time>
      </trkpt>
      <trkpt lat="46.02856" lon="4.57731">
        <ele>614.4</ele>
        <time>2021-09-08T12:03:40Z</time>
      </trkpt>
      <trkpt lat="46.02853" lon="4.57726">
        <ele>613</ele>
        <time>2021-09-08T12:03:42Z</time>
      </trkpt>
      <trkpt lat="46.0285" lon="4.57723">
        <ele>611.6</ele>
        <time>2021-09-08T12:03:43Z</time>
      </trkpt>
      <trkpt lat="46.02846" lon="4.57719">
        <ele>611</ele>
        <time>2021-09-08T12:03:44Z</time>
      </trkpt>
      <trkpt lat="46.02842" lon="4.57715">
        <ele>610.6</ele>
        <time>2021-09-08T12:03:45Z</time>
      </trkpt>
      <trkpt lat="46.02833" lon="4.57708">
        <ele>609.6</ele>
        <time>2021-09-08T12:03:47Z</time>
      </trkpt>
      <trkpt lat="46.02828" lon="4.57705">
        <ele>607.8</ele>
        <time>2021-09-08T12:03:48Z</time>
      </trkpt>
      <trkpt lat="46.02823" lon="4.57701">
        <ele>606.8</ele>
        <time>2021-09-08T12:03:49Z</time>
      </trkpt>
      <trkpt lat="46.02818" lon="4.57698">
        <ele>606.6</ele>
        <time>2021-09-08T12:03:50Z</time>
      </trkpt>
      <trkpt lat="46.02808" lon="4.57694">
        <ele>605.2</ele>
        <time>2021-09-08T12:03:52Z</time>
      </trkpt>
      <trkpt lat="46.02796" lon="4.5769">
        <ele>604.4</ele>
        <time>2021-09-08T12:03:54Z</time>
      </trkpt>
      <trkpt lat="46.0279" lon="4.57689">
        <ele>604</ele>
        <time>2021-09-08T12:03:55Z</time>
      </trkpt>
      <trkpt lat="46.02762" lon="4.57688">
        <ele>602.8</ele>
        <time>2021-09-08T12:04:00Z</time>
      </trkpt>
      <trkpt lat="46.02727" lon="4.57686">
        <ele>601.8</ele>
        <time>2021-09-08T12:04:07Z</time>
      </trkpt>
      <trkpt lat="46.02701" lon="4.57692">
        <ele>600.8</ele>
        <time>2021-09-08T12:04:12Z</time>
      </trkpt>
      <trkpt lat="46.02692" lon="4.57697">
        <ele>600.6</ele>
        <time>2021-09-08T12:04:14Z</time>
      </trkpt>
      <trkpt lat="46.02685" lon="4.57693">
        <ele>600.2</ele>
        <time>2021-09-08T12:04:16Z</time>
      </trkpt>
      <trkpt lat="46.02684" lon="4.57689">
        <ele>599.6</ele>
        <time>2021-09-08T12:04:17Z</time>
      </trkpt>
      <trkpt lat="46.02684" lon="4.57683">
        <ele>599.4</ele>
        <time>2021-09-08T12:04:18Z</time>
      </trkpt>
      <trkpt lat="46.02685" lon="4.57676">
        <ele>599.4</ele>
        <time>2021-09-08T12:04:19Z</time>
      </trkpt>
      <trkpt lat="46.02687" lon="4.57662">
        <ele>599</ele>
        <time>2021-09-08T12:04:21Z</time>
      </trkpt>
      <trkpt lat="46.02695" lon="4.57614">
        <ele>598.6</ele>
        <time>2021-09-08T12:04:27Z</time>
      </trkpt>
      <trkpt lat="46.02698" lon="4.57555">
        <ele>598</ele>
        <time>2021-09-08T12:04:34Z</time>
      </trkpt>
      <trkpt lat="46.02696" lon="4.57508">
        <ele>597.8</ele>
        <time>2021-09-08T12:04:40Z</time>
      </trkpt>
      <trkpt lat="46.02695" lon="4.57494">
        <ele>597.6</ele>
        <time>2021-09-08T12:04:42Z</time>
      </trkpt>
      <trkpt lat="46.02692" lon="4.57452">
        <ele>597.2</ele>
        <time>2021-09-08T12:04:48Z</time>
      </trkpt>
      <trkpt lat="46.02686" lon="4.57394">
        <ele>597.4</ele>
        <time>2021-09-08T12:04:57Z</time>
      </trkpt>
      <trkpt lat="46.02677" lon="4.57373">
        <ele>597.6</ele>
        <time>2021-09-08T12:05:01Z</time>
      </trkpt>
      <trkpt lat="46.02674" lon="4.57368">
        <ele>597.6</ele>
        <time>2021-09-08T12:05:02Z</time>
      </trkpt>
      <trkpt lat="46.02663" lon="4.5735">
        <ele>598.2</ele>
        <time>2021-09-08T12:05:06Z</time>
      </trkpt>
      <trkpt lat="46.02657" lon="4.57343">
        <ele>598.4</ele>
        <time>2021-09-08T12:05:08Z</time>
      </trkpt>
      <trkpt lat="46.02653" lon="4.57338">
        <ele>598.6</ele>
        <time>2021-09-08T12:05:09Z</time>
      </trkpt>
      <trkpt lat="46.0265" lon="4.57334">
        <ele>598.8</ele>
        <time>2021-09-08T12:05:10Z</time>
      </trkpt>
      <trkpt lat="46.02635" lon="4.57315">
        <ele>600</ele>
        <time>2021-09-08T12:05:15Z</time>
      </trkpt>
      <trkpt lat="46.0262" lon="4.57298">
        <ele>601</ele>
        <time>2021-09-08T12:05:20Z</time>
      </trkpt>
      <trkpt lat="46.02616" lon="4.57296">
        <ele>601</ele>
        <time>2021-09-08T12:05:21Z</time>
      </trkpt>
      <trkpt lat="46.02612" lon="4.57294">
        <ele>601.2</ele>
        <time>2021-09-08T12:05:22Z</time>
      </trkpt>
      <trkpt lat="46.02608" lon="4.57292">
        <ele>601.6</ele>
        <time>2021-09-08T12:05:23Z</time>
      </trkpt>
      <trkpt lat="46.026" lon="4.57292">
        <ele>602</ele>
        <time>2021-09-08T12:05:25Z</time>
      </trkpt>
      <trkpt lat="46.02592" lon="4.57295">
        <ele>602.4</ele>
        <time>2021-09-08T12:05:27Z</time>
      </trkpt>
      <trkpt lat="46.02577" lon="4.57305">
        <ele>603.2</ele>
        <time>2021-09-08T12:05:31Z</time>
      </trkpt>
      <trkpt lat="46.02558" lon="4.57319">
        <ele>604.2</ele>
        <time>2021-09-08T12:05:36Z</time>
      </trkpt>
      <trkpt lat="46.02555" lon="4.57321">
        <ele>604.2</ele>
        <time>2021-09-08T12:05:37Z</time>
      </trkpt>
      <trkpt lat="46.02543" lon="4.57327">
        <ele>604.6</ele>
        <time>2021-09-08T12:05:40Z</time>
      </trkpt>
      <trkpt lat="46.02527" lon="4.5733">
        <ele>605.4</ele>
        <time>2021-09-08T12:05:44Z</time>
      </trkpt>
      <trkpt lat="46.02504" lon="4.57324">
        <ele>606.4</ele>
        <time>2021-09-08T12:05:50Z</time>
      </trkpt>
      <trkpt lat="46.02493" lon="4.5732">
        <ele>606.8</ele>
        <time>2021-09-08T12:05:53Z</time>
      </trkpt>
      <trkpt lat="46.02482" lon="4.57316">
        <ele>607.6</ele>
        <time>2021-09-08T12:05:56Z</time>
      </trkpt>
      <trkpt lat="46.02467" lon="4.57309">
        <ele>608.8</ele>
        <time>2021-09-08T12:06:00Z</time>
      </trkpt>
      <trkpt lat="46.02456" lon="4.57305">
        <ele>609.4</ele>
        <time>2021-09-08T12:06:03Z</time>
      </trkpt>
      <trkpt lat="46.02447" lon="4.57302">
        <ele>609.8</ele>
        <time>2021-09-08T12:06:05Z</time>
      </trkpt>
      <trkpt lat="46.02429" lon="4.57296">
        <ele>610.8</ele>
        <time>2021-09-08T12:06:10Z</time>
      </trkpt>
      <trkpt lat="46.02417" lon="4.57293">
        <ele>611.6</ele>
        <time>2021-09-08T12:06:13Z</time>
      </trkpt>
      <trkpt lat="46.02414" lon="4.57292">
        <ele>611.8</ele>
        <time>2021-09-08T12:06:14Z</time>
      </trkpt>
      <trkpt lat="46.02403" lon="4.57285">
        <ele>613</ele>
        <time>2021-09-08T12:06:17Z</time>
      </trkpt>
      <trkpt lat="46.02399" lon="4.57277">
        <ele>613.8</ele>
        <time>2021-09-08T12:06:19Z</time>
      </trkpt>
      <trkpt lat="46.02398" lon="4.57272">
        <ele>614.2</ele>
        <time>2021-09-08T12:06:20Z</time>
      </trkpt>
      <trkpt lat="46.02402" lon="4.57255">
        <ele>615</ele>
        <time>2021-09-08T12:06:23Z</time>
      </trkpt>
      <trkpt lat="46.02404" lon="4.57251">
        <ele>615.2</ele>
        <time>2021-09-08T12:06:24Z</time>
      </trkpt>
      <trkpt lat="46.02414" lon="4.57237">
        <ele>616.6</ele>
        <time>2021-09-08T12:06:27Z</time>
      </trkpt>
      <trkpt lat="46.02422" lon="4.57226">
        <ele>617.4</ele>
        <time>2021-09-08T12:06:30Z</time>
      </trkpt>
      <trkpt lat="46.02425" lon="4.57222">
        <ele>617.6</ele>
        <time>2021-09-08T12:06:31Z</time>
      </trkpt>
      <trkpt lat="46.02443" lon="4.572">
        <ele>618.6</ele>
        <time>2021-09-08T12:06:37Z</time>
      </trkpt>
      <trkpt lat="46.02456" lon="4.57185">
        <ele>618.8</ele>
        <time>2021-09-08T12:06:41Z</time>
      </trkpt>
      <trkpt lat="46.02488" lon="4.57154">
        <ele>619.2</ele>
        <time>2021-09-08T12:06:51Z</time>
      </trkpt>
      <trkpt lat="46.02512" lon="4.57132">
        <ele>619.8</ele>
        <time>2021-09-08T12:06:58Z</time>
      </trkpt>
      <trkpt lat="46.02525" lon="4.57116">
        <ele>620</ele>
        <time>2021-09-08T12:07:02Z</time>
      </trkpt>
      <trkpt lat="46.02543" lon="4.57091">
        <ele>620.8</ele>
        <time>2021-09-08T12:07:08Z</time>
      </trkpt>
      <trkpt lat="46.02562" lon="4.57067">
        <ele>621.6</ele>
        <time>2021-09-08T12:07:14Z</time>
      </trkpt>
      <trkpt lat="46.0258" lon="4.57041">
        <ele>621.8</ele>
        <time>2021-09-08T12:07:20Z</time>
      </trkpt>
      <trkpt lat="46.02583" lon="4.57037">
        <ele>622</ele>
        <time>2021-09-08T12:07:21Z</time>
      </trkpt>
      <trkpt lat="46.02604" lon="4.57009">
        <ele>623</ele>
        <time>2021-09-08T12:07:28Z</time>
      </trkpt>
      <trkpt lat="46.02612" lon="4.56995">
        <ele>623.6</ele>
        <time>2021-09-08T12:07:31Z</time>
      </trkpt>
      <trkpt lat="46.02617" lon="4.56984">
        <ele>624</ele>
        <time>2021-09-08T12:07:33Z</time>
      </trkpt>
      <trkpt lat="46.02619" lon="4.56979">
        <ele>624.4</ele>
        <time>2021-09-08T12:07:34Z</time>
      </trkpt>
      <trkpt lat="46.02624" lon="4.56955">
        <ele>625</ele>
        <time>2021-09-08T12:07:38Z</time>
      </trkpt>
      <trkpt lat="46.02627" lon="4.56931">
        <ele>625.6</ele>
        <time>2021-09-08T12:07:42Z</time>
      </trkpt>
      <trkpt lat="46.02627" lon="4.56919">
        <ele>626</ele>
        <time>2021-09-08T12:07:44Z</time>
      </trkpt>
      <trkpt lat="46.02626" lon="4.56914">
        <ele>626</ele>
        <time>2021-09-08T12:07:45Z</time>
      </trkpt>
      <trkpt lat="46.02625" lon="4.56901">
        <ele>626.2</ele>
        <time>2021-09-08T12:07:47Z</time>
      </trkpt>
      <trkpt lat="46.0262" lon="4.56878">
        <ele>626.8</ele>
        <time>2021-09-08T12:07:51Z</time>
      </trkpt>
      <trkpt lat="46.02617" lon="4.56867">
        <ele>627.4</ele>
        <time>2021-09-08T12:07:53Z</time>
      </trkpt>
      <trkpt lat="46.02607" lon="4.56836">
        <ele>628.6</ele>
        <time>2021-09-08T12:07:59Z</time>
      </trkpt>
      <trkpt lat="46.02603" lon="4.56818">
        <ele>629</ele>
        <time>2021-09-08T12:08:02Z</time>
      </trkpt>
      <trkpt lat="46.02601" lon="4.56806">
        <ele>629.2</ele>
        <time>2021-09-08T12:08:04Z</time>
      </trkpt>
      <trkpt lat="46.02601" lon="4.56794">
        <ele>629.6</ele>
        <time>2021-09-08T12:08:06Z</time>
      </trkpt>
      <trkpt lat="46.02602" lon="4.56783">
        <ele>630.2</ele>
        <time>2021-09-08T12:08:08Z</time>
      </trkpt>
      <trkpt lat="46.02604" lon="4.56759">
        <ele>630.8</ele>
        <time>2021-09-08T12:08:12Z</time>
      </trkpt>
      <trkpt lat="46.02606" lon="4.56732">
        <ele>631.2</ele>
        <time>2021-09-08T12:08:16Z</time>
      </trkpt>
      <trkpt lat="46.02603" lon="4.56692">
        <ele>631.2</ele>
        <time>2021-09-08T12:08:21Z</time>
      </trkpt>
      <trkpt lat="46.02596" lon="4.56635">
        <ele>631</ele>
        <time>2021-09-08T12:08:27Z</time>
      </trkpt>
      <trkpt lat="46.02594" lon="4.56626">
        <ele>631</ele>
        <time>2021-09-08T12:08:28Z</time>
      </trkpt>
      <trkpt lat="46.0258" lon="4.56592">
        <ele>630.6</ele>
        <time>2021-09-08T12:08:32Z</time>
      </trkpt>
      <trkpt lat="46.0255" lon="4.56535">
        <ele>629.8</ele>
        <time>2021-09-08T12:08:39Z</time>
      </trkpt>
      <trkpt lat="46.02546" lon="4.56523">
        <ele>629.6</ele>
        <time>2021-09-08T12:08:40Z</time>
      </trkpt>
      <trkpt lat="46.0254" lon="4.56503">
        <ele>629.2</ele>
        <time>2021-09-08T12:08:42Z</time>
      </trkpt>
      <trkpt lat="46.02539" lon="4.56494">
        <ele>629.2</ele>
        <time>2021-09-08T12:08:43Z</time>
      </trkpt>
      <trkpt lat="46.02533" lon="4.56451">
        <ele>628.4</ele>
        <time>2021-09-08T12:08:47Z</time>
      </trkpt>
      <trkpt lat="46.02525" lon="4.56395">
        <ele>627.6</ele>
        <time>2021-09-08T12:08:52Z</time>
      </trkpt>
      <trkpt lat="46.02521" lon="4.56371">
        <ele>627.4</ele>
        <time>2021-09-08T12:08:54Z</time>
      </trkpt>
      <trkpt lat="46.02513" lon="4.56321">
        <ele>626.4</ele>
        <time>2021-09-08T12:08:59Z</time>
      </trkpt>
      <trkpt lat="46.02511" lon="4.56311">
        <ele>626.4</ele>
        <time>2021-09-08T12:09:00Z</time>
      </trkpt>
      <trkpt lat="46.02507" lon="4.56296">
        <ele>626.2</ele>
        <time>2021-09-08T12:09:02Z</time>
      </trkpt>
      <trkpt lat="46.02499" lon="4.56273">
        <ele>625.8</ele>
        <time>2021-09-08T12:09:05Z</time>
      </trkpt>
      <trkpt lat="46.02488" lon="4.56253">
        <ele>625.6</ele>
        <time>2021-09-08T12:09:08Z</time>
      </trkpt>
      <trkpt lat="46.02482" lon="4.56246">
        <ele>625.4</ele>
        <time>2021-09-08T12:09:10Z</time>
      </trkpt>
      <trkpt lat="46.02478" lon="4.5624">
        <ele>625.4</ele>
        <time>2021-09-08T12:09:12Z</time>
      </trkpt>
      <trkpt lat="46.02478" lon="4.56237">
        <ele>625.2</ele>
        <time>2021-09-08T12:09:13Z</time>
      </trkpt>
      <trkpt lat="46.02485" lon="4.5622">
        <ele>624.8</ele>
        <time>2021-09-08T12:09:17Z</time>
      </trkpt>
      <trkpt lat="46.02489" lon="4.56212">
        <ele>624.4</ele>
        <time>2021-09-08T12:09:19Z</time>
      </trkpt>
      <trkpt lat="46.02498" lon="4.56193">
        <ele>623.2</ele>
        <time>2021-09-08T12:09:23Z</time>
      </trkpt>
      <trkpt lat="46.02502" lon="4.56185">
        <ele>622.8</ele>
        <time>2021-09-08T12:09:25Z</time>
      </trkpt>
      <trkpt lat="46.02501" lon="4.56175">
        <ele>622.8</ele>
        <time>2021-09-08T12:09:27Z</time>
      </trkpt>
      <trkpt lat="46.02501" lon="4.56158">
        <ele>623</ele>
        <time>2021-09-08T12:09:31Z</time>
      </trkpt>
      <trkpt lat="46.02507" lon="4.56141">
        <ele>623.8</ele>
        <time>2021-09-08T12:09:36Z</time>
      </trkpt>
      <trkpt lat="46.02509" lon="4.56131">
        <ele>625</ele>
        <time>2021-09-08T12:09:39Z</time>
      </trkpt>
      <trkpt lat="46.02512" lon="4.56121">
        <ele>626.6</ele>
        <time>2021-09-08T12:09:42Z</time>
      </trkpt>
      <trkpt lat="46.02513" lon="4.56112">
        <ele>627.8</ele>
        <time>2021-09-08T12:09:45Z</time>
      </trkpt>
      <trkpt lat="46.02514" lon="4.56097">
        <ele>629.4</ele>
        <time>2021-09-08T12:09:49Z</time>
      </trkpt>
      <trkpt lat="46.02514" lon="4.56091">
        <ele>630.2</ele>
        <time>2021-09-08T12:09:51Z</time>
      </trkpt>
      <trkpt lat="46.02514" lon="4.56087">
        <ele>630.6</ele>
        <time>2021-09-08T12:09:52Z</time>
      </trkpt>
      <trkpt lat="46.02514" lon="4.56073">
        <ele>631.8</ele>
        <time>2021-09-08T12:09:56Z</time>
      </trkpt>
      <trkpt lat="46.02513" lon="4.56064">
        <ele>633</ele>
        <time>2021-09-08T12:09:59Z</time>
      </trkpt>
      <trkpt lat="46.02511" lon="4.56046">
        <ele>634.4</ele>
        <time>2021-09-08T12:10:04Z</time>
      </trkpt>
      <trkpt lat="46.0251" lon="4.56033">
        <ele>635.6</ele>
        <time>2021-09-08T12:10:08Z</time>
      </trkpt>
      <trkpt lat="46.02511" lon="4.56022">
        <ele>636.4</ele>
        <time>2021-09-08T12:10:11Z</time>
      </trkpt>
      <trkpt lat="46.02511" lon="4.56015">
        <ele>636.8</ele>
        <time>2021-09-08T12:10:13Z</time>
      </trkpt>
      <trkpt lat="46.02512" lon="4.56002">
        <ele>638</ele>
        <time>2021-09-08T12:10:17Z</time>
      </trkpt>
      <trkpt lat="46.02512" lon="4.55988">
        <ele>639.2</ele>
        <time>2021-09-08T12:10:21Z</time>
      </trkpt>
      <trkpt lat="46.02513" lon="4.55971">
        <ele>640.6</ele>
        <time>2021-09-08T12:10:26Z</time>
      </trkpt>
      <trkpt lat="46.02514" lon="4.55964">
        <ele>641.6</ele>
        <time>2021-09-08T12:10:28Z</time>
      </trkpt>
      <trkpt lat="46.02514" lon="4.55958">
        <ele>642.2</ele>
        <time>2021-09-08T12:10:30Z</time>
      </trkpt>
      <trkpt lat="46.02515" lon="4.55948">
        <ele>643</ele>
        <time>2021-09-08T12:10:33Z</time>
      </trkpt>
      <trkpt lat="46.02515" lon="4.55936">
        <ele>644</ele>
        <time>2021-09-08T12:10:36Z</time>
      </trkpt>
      <trkpt lat="46.02515" lon="4.55929">
        <ele>644.8</ele>
        <time>2021-09-08T12:10:38Z</time>
      </trkpt>
      <trkpt lat="46.02515" lon="4.55927">
        <ele>645</ele>
        <time>2021-09-08T12:10:39Z</time>
      </trkpt>
      <trkpt lat="46.02516" lon="4.55912">
        <ele>646.2</ele>
        <time>2021-09-08T12:10:43Z</time>
      </trkpt>
      <trkpt lat="46.02517" lon="4.55906">
        <ele>647.2</ele>
        <time>2021-09-08T12:10:45Z</time>
      </trkpt>
      <trkpt lat="46.02517" lon="4.55902">
        <ele>647.4</ele>
        <time>2021-09-08T12:10:46Z</time>
      </trkpt>
      <trkpt lat="46.02518" lon="4.55892">
        <ele>648.4</ele>
        <time>2021-09-08T12:10:49Z</time>
      </trkpt>
      <trkpt lat="46.02519" lon="4.55882">
        <ele>649.6</ele>
        <time>2021-09-08T12:10:52Z</time>
      </trkpt>
      <trkpt lat="46.02519" lon="4.55879">
        <ele>649.8</ele>
        <time>2021-09-08T12:10:53Z</time>
      </trkpt>
      <trkpt lat="46.02521" lon="4.55872">
        <ele>650.6</ele>
        <time>2021-09-08T12:10:55Z</time>
      </trkpt>
      <trkpt lat="46.02522" lon="4.55862">
        <ele>651.8</ele>
        <time>2021-09-08T12:10:58Z</time>
      </trkpt>
      <trkpt lat="46.02523" lon="4.55852">
        <ele>653</ele>
        <time>2021-09-08T12:11:01Z</time>
      </trkpt>
      <trkpt lat="46.02524" lon="4.55848">
        <ele>653.4</ele>
        <time>2021-09-08T12:11:02Z</time>
      </trkpt>
      <trkpt lat="46.02525" lon="4.55841">
        <ele>654.2</ele>
        <time>2021-09-08T12:11:04Z</time>
      </trkpt>
      <trkpt lat="46.02529" lon="4.55832">
        <ele>655.6</ele>
        <time>2021-09-08T12:11:07Z</time>
      </trkpt>
      <trkpt lat="46.02533" lon="4.55823">
        <ele>656.6</ele>
        <time>2021-09-08T12:11:10Z</time>
      </trkpt>
      <trkpt lat="46.02538" lon="4.55814">
        <ele>658</ele>
        <time>2021-09-08T12:11:13Z</time>
      </trkpt>
      <trkpt lat="46.02542" lon="4.55806">
        <ele>659.4</ele>
        <time>2021-09-08T12:11:16Z</time>
      </trkpt>
      <trkpt lat="46.02548" lon="4.55798">
        <ele>660.4</ele>
        <time>2021-09-08T12:11:19Z</time>
      </trkpt>
      <trkpt lat="46.0255" lon="4.55796">
        <ele>660.6</ele>
        <time>2021-09-08T12:11:20Z</time>
      </trkpt>
      <trkpt lat="46.02559" lon="4.55783">
        <ele>661.6</ele>
        <time>2021-09-08T12:11:25Z</time>
      </trkpt>
      <trkpt lat="46.02569" lon="4.55772">
        <ele>662.8</ele>
        <time>2021-09-08T12:11:30Z</time>
      </trkpt>
      <trkpt lat="46.02571" lon="4.5577">
        <ele>663</ele>
        <time>2021-09-08T12:11:31Z</time>
      </trkpt>
      <trkpt lat="46.02585" lon="4.55755">
        <ele>663.8</ele>
        <time>2021-09-08T12:11:38Z</time>
      </trkpt>
      <trkpt lat="46.02589" lon="4.55751">
        <ele>664</ele>
        <time>2021-09-08T12:11:40Z</time>
      </trkpt>
      <trkpt lat="46.02606" lon="4.55735">
        <ele>665.2</ele>
        <time>2021-09-08T12:11:48Z</time>
      </trkpt>
      <trkpt lat="46.02614" lon="4.55727">
        <ele>666</ele>
        <time>2021-09-08T12:11:52Z</time>
      </trkpt>
      <trkpt lat="46.02618" lon="4.55722">
        <ele>666.6</ele>
        <time>2021-09-08T12:11:54Z</time>
      </trkpt>
      <trkpt lat="46.02625" lon="4.55714">
        <ele>667.6</ele>
        <time>2021-09-08T12:11:58Z</time>
      </trkpt>
      <trkpt lat="46.02632" lon="4.55706">
        <ele>668.6</ele>
        <time>2021-09-08T12:12:02Z</time>
      </trkpt>
      <trkpt lat="46.02643" lon="4.55692">
        <ele>669.8</ele>
        <time>2021-09-08T12:12:08Z</time>
      </trkpt>
      <trkpt lat="46.02648" lon="4.55684">
        <ele>671.4</ele>
        <time>2021-09-08T12:12:11Z</time>
      </trkpt>
      <trkpt lat="46.02652" lon="4.55674">
        <ele>672.4</ele>
        <time>2021-09-08T12:12:14Z</time>
      </trkpt>
      <trkpt lat="46.02654" lon="4.55668">
        <ele>673.6</ele>
        <time>2021-09-08T12:12:16Z</time>
      </trkpt>
      <trkpt lat="46.02653" lon="4.55665">
        <ele>673.8</ele>
        <time>2021-09-08T12:12:17Z</time>
      </trkpt>
      <trkpt lat="46.02649" lon="4.55661">
        <ele>674.6</ele>
        <time>2021-09-08T12:12:19Z</time>
      </trkpt>
      <trkpt lat="46.02644" lon="4.5566">
        <ele>675.4</ele>
        <time>2021-09-08T12:12:21Z</time>
      </trkpt>
      <trkpt lat="46.0264" lon="4.5566">
        <ele>676.2</ele>
        <time>2021-09-08T12:12:23Z</time>
      </trkpt>
      <trkpt lat="46.0263" lon="4.55661">
        <ele>677.2</ele>
        <time>2021-09-08T12:12:27Z</time>
      </trkpt>
      <trkpt lat="46.0262" lon="4.55662">
        <ele>678.6</ele>
        <time>2021-09-08T12:12:31Z</time>
      </trkpt>
      <trkpt lat="46.02614" lon="4.55662">
        <ele>679.4</ele>
        <time>2021-09-08T12:12:33Z</time>
      </trkpt>
      <trkpt lat="46.02609" lon="4.55663">
        <ele>680</ele>
        <time>2021-09-08T12:12:35Z</time>
      </trkpt>
      <trkpt lat="46.02596" lon="4.55663">
        <ele>681.2</ele>
        <time>2021-09-08T12:12:40Z</time>
      </trkpt>
      <trkpt lat="46.02586" lon="4.55664">
        <ele>681.6</ele>
        <time>2021-09-08T12:12:44Z</time>
      </trkpt>
      <trkpt lat="46.02575" lon="4.55667">
        <ele>682.4</ele>
        <time>2021-09-08T12:12:48Z</time>
      </trkpt>
      <trkpt lat="46.02563" lon="4.55668">
        <ele>683.2</ele>
        <time>2021-09-08T12:12:53Z</time>
      </trkpt>
      <trkpt lat="46.02561" lon="4.55668">
        <ele>683.4</ele>
        <time>2021-09-08T12:12:54Z</time>
      </trkpt>
      <trkpt lat="46.02549" lon="4.5567">
        <ele>684.8</ele>
        <time>2021-09-08T12:12:59Z</time>
      </trkpt>
      <trkpt lat="46.02541" lon="4.5567">
        <ele>686</ele>
        <time>2021-09-08T12:13:02Z</time>
      </trkpt>
      <trkpt lat="46.02539" lon="4.5567">
        <ele>686.2</ele>
        <time>2021-09-08T12:13:03Z</time>
      </trkpt>
      <trkpt lat="46.02536" lon="4.5567">
        <ele>687</ele>
        <time>2021-09-08T12:13:04Z</time>
      </trkpt>
      <trkpt lat="46.02529" lon="4.5567">
        <ele>688.2</ele>
        <time>2021-09-08T12:13:07Z</time>
      </trkpt>
      <trkpt lat="46.02515" lon="4.5567">
        <ele>689.2</ele>
        <time>2021-09-08T12:13:12Z</time>
      </trkpt>
      <trkpt lat="46.02498" lon="4.5567">
        <ele>690.6</ele>
        <time>2021-09-08T12:13:19Z</time>
      </trkpt>
      <trkpt lat="46.02493" lon="4.55671">
        <ele>691.2</ele>
        <time>2021-09-08T12:13:21Z</time>
      </trkpt>
      <trkpt lat="46.02488" lon="4.55672">
        <ele>691.6</ele>
        <time>2021-09-08T12:13:23Z</time>
      </trkpt>
      <trkpt lat="46.0247" lon="4.55671">
        <ele>692.4</ele>
        <time>2021-09-08T12:13:30Z</time>
      </trkpt>
      <trkpt lat="46.02468" lon="4.55671">
        <ele>692.6</ele>
        <time>2021-09-08T12:13:31Z</time>
      </trkpt>
      <trkpt lat="46.02455" lon="4.55672">
        <ele>693.8</ele>
        <time>2021-09-08T12:13:36Z</time>
      </trkpt>
      <trkpt lat="46.0245" lon="4.55672">
        <ele>694</ele>
        <time>2021-09-08T12:13:38Z</time>
      </trkpt>
      <trkpt lat="46.02428" lon="4.5567">
        <ele>695</ele>
        <time>2021-09-08T12:13:46Z</time>
      </trkpt>
      <trkpt lat="46.02397" lon="4.55668">
        <ele>696</ele>
        <time>2021-09-08T12:13:56Z</time>
      </trkpt>
      <trkpt lat="46.02371" lon="4.55658">
        <ele>697</ele>
        <time>2021-09-08T12:14:05Z</time>
      </trkpt>
      <trkpt lat="46.02353" lon="4.5564">
        <ele>697.6</ele>
        <time>2021-09-08T12:14:12Z</time>
      </trkpt>
      <trkpt lat="46.02339" lon="4.55621">
        <ele>698.2</ele>
        <time>2021-09-08T12:14:19Z</time>
      </trkpt>
      <trkpt lat="46.02324" lon="4.556">
        <ele>699.2</ele>
        <time>2021-09-08T12:14:27Z</time>
      </trkpt>
      <trkpt lat="46.02304" lon="4.55578">
        <ele>700.4</ele>
        <time>2021-09-08T12:14:35Z</time>
      </trkpt>
      <trkpt lat="46.023" lon="4.55571">
        <ele>701.4</ele>
        <time>2021-09-08T12:14:37Z</time>
      </trkpt>
      <trkpt lat="46.02293" lon="4.55561">
        <ele>702.8</ele>
        <time>2021-09-08T12:14:40Z</time>
      </trkpt>
      <trkpt lat="46.02289" lon="4.55554">
        <ele>703.4</ele>
        <time>2021-09-08T12:14:42Z</time>
      </trkpt>
      <trkpt lat="46.02285" lon="4.55548">
        <ele>704.2</ele>
        <time>2021-09-08T12:14:44Z</time>
      </trkpt>
      <trkpt lat="46.02281" lon="4.55542">
        <ele>705.4</ele>
        <time>2021-09-08T12:14:46Z</time>
      </trkpt>
      <trkpt lat="46.02276" lon="4.55537">
        <ele>707</ele>
        <time>2021-09-08T12:14:48Z</time>
      </trkpt>
      <trkpt lat="46.02269" lon="4.55529">
        <ele>708.2</ele>
        <time>2021-09-08T12:14:51Z</time>
      </trkpt>
      <trkpt lat="46.02265" lon="4.55522">
        <ele>709.8</ele>
        <time>2021-09-08T12:14:53Z</time>
      </trkpt>
      <trkpt lat="46.02262" lon="4.55516">
        <ele>711</ele>
        <time>2021-09-08T12:14:55Z</time>
      </trkpt>
      <trkpt lat="46.02257" lon="4.55509">
        <ele>711.8</ele>
        <time>2021-09-08T12:14:57Z</time>
      </trkpt>
      <trkpt lat="46.02255" lon="4.55505">
        <ele>713</ele>
        <time>2021-09-08T12:14:58Z</time>
      </trkpt>
      <trkpt lat="46.02251" lon="4.55498">
        <ele>714.2</ele>
        <time>2021-09-08T12:15:00Z</time>
      </trkpt>
      <trkpt lat="46.02246" lon="4.5549">
        <ele>715.6</ele>
        <time>2021-09-08T12:15:03Z</time>
      </trkpt>
      <trkpt lat="46.02244" lon="4.55485">
        <ele>716.6</ele>
        <time>2021-09-08T12:15:05Z</time>
      </trkpt>
      <trkpt lat="46.02242" lon="4.55482">
        <ele>716.8</ele>
        <time>2021-09-08T12:15:06Z</time>
      </trkpt>
      <trkpt lat="46.0224" lon="4.55479">
        <ele>717.8</ele>
        <time>2021-09-08T12:15:08Z</time>
      </trkpt>
      <trkpt lat="46.02236" lon="4.55469">
        <ele>719.2</ele>
        <time>2021-09-08T12:15:12Z</time>
      </trkpt>
      <trkpt lat="46.02231" lon="4.55461">
        <ele>720</ele>
        <time>2021-09-08T12:15:16Z</time>
      </trkpt>
      <trkpt lat="46.02226" lon="4.55454">
        <ele>721</ele>
        <time>2021-09-08T12:15:19Z</time>
      </trkpt>
      <trkpt lat="46.02223" lon="4.5545">
        <ele>721.4</ele>
        <time>2021-09-08T12:15:21Z</time>
      </trkpt>
      <trkpt lat="46.02221" lon="4.55448">
        <ele>721.8</ele>
        <time>2021-09-08T12:15:22Z</time>
      </trkpt>
      <trkpt lat="46.02218" lon="4.55444">
        <ele>722.2</ele>
        <time>2021-09-08T12:15:24Z</time>
      </trkpt>
      <trkpt lat="46.02215" lon="4.55441">
        <ele>722.4</ele>
        <time>2021-09-08T12:15:26Z</time>
      </trkpt>
      <trkpt lat="46.02212" lon="4.55434">
        <ele>723.4</ele>
        <time>2021-09-08T12:15:29Z</time>
      </trkpt>
      <trkpt lat="46.0221" lon="4.55433">
        <ele>723.6</ele>
        <time>2021-09-08T12:15:30Z</time>
      </trkpt>
      <trkpt lat="46.02207" lon="4.55428">
        <ele>724.4</ele>
        <time>2021-09-08T12:15:32Z</time>
      </trkpt>
      <trkpt lat="46.02206" lon="4.55426">
        <ele>724.6</ele>
        <time>2021-09-08T12:15:33Z</time>
      </trkpt>
      <trkpt lat="46.02199" lon="4.55412">
        <ele>725.6</ele>
        <time>2021-09-08T12:15:38Z</time>
      </trkpt>
      <trkpt lat="46.02197" lon="4.55407">
        <ele>726</ele>
        <time>2021-09-08T12:15:40Z</time>
      </trkpt>
      <trkpt lat="46.02191" lon="4.55397">
        <ele>726.8</ele>
        <time>2021-09-08T12:15:44Z</time>
      </trkpt>
      <trkpt lat="46.02187" lon="4.55391">
        <ele>727.2</ele>
        <time>2021-09-08T12:15:47Z</time>
      </trkpt>
      <trkpt lat="46.02185" lon="4.55386">
        <ele>728</ele>
        <time>2021-09-08T12:15:49Z</time>
      </trkpt>
      <trkpt lat="46.02179" lon="4.55378">
        <ele>729.2</ele>
        <time>2021-09-08T12:15:53Z</time>
      </trkpt>
      <trkpt lat="46.02174" lon="4.55366">
        <ele>730.4</ele>
        <time>2021-09-08T12:15:58Z</time>
      </trkpt>
      <trkpt lat="46.02169" lon="4.5536">
        <ele>731.6</ele>
        <time>2021-09-08T12:16:01Z</time>
      </trkpt>
      <trkpt lat="46.02162" lon="4.55348">
        <ele>732.6</ele>
        <time>2021-09-08T12:16:07Z</time>
      </trkpt>
      <trkpt lat="46.02158" lon="4.55344">
        <ele>733.4</ele>
        <time>2021-09-08T12:16:09Z</time>
      </trkpt>
      <trkpt lat="46.02157" lon="4.55342">
        <ele>733.8</ele>
        <time>2021-09-08T12:16:10Z</time>
      </trkpt>
      <trkpt lat="46.02147" lon="4.55326">
        <ele>734.6</ele>
        <time>2021-09-08T12:16:16Z</time>
      </trkpt>
      <trkpt lat="46.02143" lon="4.55321">
        <ele>735</ele>
        <time>2021-09-08T12:16:18Z</time>
      </trkpt>
      <trkpt lat="46.02133" lon="4.55312">
        <ele>735.4</ele>
        <time>2021-09-08T12:16:23Z</time>
      </trkpt>
      <trkpt lat="46.02122" lon="4.55298">
        <ele>736</ele>
        <time>2021-09-08T12:16:29Z</time>
      </trkpt>
      <trkpt lat="46.0212" lon="4.55295">
        <ele>736</ele>
        <time>2021-09-08T12:16:30Z</time>
      </trkpt>
      <trkpt lat="46.02107" lon="4.55276">
        <ele>736.4</ele>
        <time>2021-09-08T12:16:36Z</time>
      </trkpt>
      <trkpt lat="46.02098" lon="4.5526">
        <ele>736.8</ele>
        <time>2021-09-08T12:16:41Z</time>
      </trkpt>
      <trkpt lat="46.02094" lon="4.55255">
        <ele>737</ele>
        <time>2021-09-08T12:16:43Z</time>
      </trkpt>
      <trkpt lat="46.02087" lon="4.55238">
        <ele>737.6</ele>
        <time>2021-09-08T12:16:48Z</time>
      </trkpt>
      <trkpt lat="46.02082" lon="4.5523">
        <ele>738</ele>
        <time>2021-09-08T12:16:51Z</time>
      </trkpt>
      <trkpt lat="46.02069" lon="4.55213">
        <ele>739.2</ele>
        <time>2021-09-08T12:16:57Z</time>
      </trkpt>
      <trkpt lat="46.02061" lon="4.55206">
        <ele>740.2</ele>
        <time>2021-09-08T12:17:00Z</time>
      </trkpt>
      <trkpt lat="46.02046" lon="4.55197">
        <ele>740.6</ele>
        <time>2021-09-08T12:17:05Z</time>
      </trkpt>
      <trkpt lat="46.02026" lon="4.55185">
        <ele>741.2</ele>
        <time>2021-09-08T12:17:12Z</time>
      </trkpt>
      <trkpt lat="46.02022" lon="4.55183">
        <ele>741.4</ele>
        <time>2021-09-08T12:17:14Z</time>
      </trkpt>
      <trkpt lat="46.02014" lon="4.55176">
        <ele>742.6</ele>
        <time>2021-09-08T12:17:18Z</time>
      </trkpt>
      <trkpt lat="46.02012" lon="4.55174">
        <ele>742.8</ele>
        <time>2021-09-08T12:17:19Z</time>
      </trkpt>
      <trkpt lat="46.02006" lon="4.55169">
        <ele>743.6</ele>
        <time>2021-09-08T12:17:22Z</time>
      </trkpt>
      <trkpt lat="46.01992" lon="4.55161">
        <ele>744.4</ele>
        <time>2021-09-08T12:17:27Z</time>
      </trkpt>
      <trkpt lat="46.01987" lon="4.55156">
        <ele>744.6</ele>
        <time>2021-09-08T12:17:29Z</time>
      </trkpt>
      <trkpt lat="46.01981" lon="4.55151">
        <ele>745.8</ele>
        <time>2021-09-08T12:17:32Z</time>
      </trkpt>
      <trkpt lat="46.01972" lon="4.55146">
        <ele>746.6</ele>
        <time>2021-09-08T12:17:35Z</time>
      </trkpt>
      <trkpt lat="46.01967" lon="4.55142">
        <ele>747</ele>
        <time>2021-09-08T12:17:37Z</time>
      </trkpt>
      <trkpt lat="46.01959" lon="4.55135">
        <ele>748</ele>
        <time>2021-09-08T12:17:41Z</time>
      </trkpt>
      <trkpt lat="46.01956" lon="4.55133">
        <ele>748.6</ele>
        <time>2021-09-08T12:17:42Z</time>
      </trkpt>
      <trkpt lat="46.01951" lon="4.55128">
        <ele>749.2</ele>
        <time>2021-09-08T12:17:45Z</time>
      </trkpt>
      <trkpt lat="46.01942" lon="4.55123">
        <ele>750.2</ele>
        <time>2021-09-08T12:17:49Z</time>
      </trkpt>
      <trkpt lat="46.01933" lon="4.55116">
        <ele>752</ele>
        <time>2021-09-08T12:17:54Z</time>
      </trkpt>
      <trkpt lat="46.0193" lon="4.55113">
        <ele>753.2</ele>
        <time>2021-09-08T12:17:56Z</time>
      </trkpt>
      <trkpt lat="46.01927" lon="4.55112">
        <ele>753.4</ele>
        <time>2021-09-08T12:17:57Z</time>
      </trkpt>
      <trkpt lat="46.01922" lon="4.55109">
        <ele>754.2</ele>
        <time>2021-09-08T12:17:59Z</time>
      </trkpt>
      <trkpt lat="46.01918" lon="4.55105">
        <ele>755.4</ele>
        <time>2021-09-08T12:18:02Z</time>
      </trkpt>
      <trkpt lat="46.01916" lon="4.55103">
        <ele>755.8</ele>
        <time>2021-09-08T12:18:03Z</time>
      </trkpt>
      <trkpt lat="46.01914" lon="4.551">
        <ele>755.8</ele>
        <time>2021-09-08T12:18:04Z</time>
      </trkpt>
      <trkpt lat="46.0191" lon="4.55095">
        <ele>757</ele>
        <time>2021-09-08T12:18:06Z</time>
      </trkpt>
      <trkpt lat="46.01904" lon="4.55091">
        <ele>757.6</ele>
        <time>2021-09-08T12:18:08Z</time>
      </trkpt>
      <trkpt lat="46.019" lon="4.5509">
        <ele>758.6</ele>
        <time>2021-09-08T12:18:10Z</time>
      </trkpt>
      <trkpt lat="46.01894" lon="4.55088">
        <ele>759.8</ele>
        <time>2021-09-08T12:18:12Z</time>
      </trkpt>
      <trkpt lat="46.01885" lon="4.55084">
        <ele>760.8</ele>
        <time>2021-09-08T12:18:15Z</time>
      </trkpt>
      <trkpt lat="46.01883" lon="4.55082">
        <ele>761</ele>
        <time>2021-09-08T12:18:16Z</time>
      </trkpt>
      <trkpt lat="46.01878" lon="4.55078">
        <ele>762.2</ele>
        <time>2021-09-08T12:18:18Z</time>
      </trkpt>
      <trkpt lat="46.01869" lon="4.55077">
        <ele>763.2</ele>
        <time>2021-09-08T12:18:21Z</time>
      </trkpt>
      <trkpt lat="46.01867" lon="4.55076">
        <ele>763.8</ele>
        <time>2021-09-08T12:18:22Z</time>
      </trkpt>
      <trkpt lat="46.01861" lon="4.55075">
        <ele>764.8</ele>
        <time>2021-09-08T12:18:25Z</time>
      </trkpt>
      <trkpt lat="46.01855" lon="4.55075">
        <ele>765.8</ele>
        <time>2021-09-08T12:18:27Z</time>
      </trkpt>
      <trkpt lat="46.01852" lon="4.55075">
        <ele>766.2</ele>
        <time>2021-09-08T12:18:28Z</time>
      </trkpt>
      <trkpt lat="46.01848" lon="4.55075">
        <ele>767.2</ele>
        <time>2021-09-08T12:18:30Z</time>
      </trkpt>
      <trkpt lat="46.01844" lon="4.55074">
        <ele>768.4</ele>
        <time>2021-09-08T12:18:32Z</time>
      </trkpt>
      <trkpt lat="46.01842" lon="4.55073">
        <ele>769.2</ele>
        <time>2021-09-08T12:18:34Z</time>
      </trkpt>
      <trkpt lat="46.0184" lon="4.55073">
        <ele>769.8</ele>
        <time>2021-09-08T12:18:35Z</time>
      </trkpt>
      <trkpt lat="46.01832" lon="4.55068">
        <ele>771.8</ele>
        <time>2021-09-08T12:18:39Z</time>
      </trkpt>
      <trkpt lat="46.01829" lon="4.55067">
        <ele>772.2</ele>
        <time>2021-09-08T12:18:40Z</time>
      </trkpt>
      <trkpt lat="46.01826" lon="4.55064">
        <ele>773</ele>
        <time>2021-09-08T12:18:42Z</time>
      </trkpt>
      <trkpt lat="46.01822" lon="4.55059">
        <ele>774</ele>
        <time>2021-09-08T12:18:44Z</time>
      </trkpt>
      <trkpt lat="46.01819" lon="4.55057">
        <ele>774.2</ele>
        <time>2021-09-08T12:18:45Z</time>
      </trkpt>
      <trkpt lat="46.01817" lon="4.55056">
        <ele>774.8</ele>
        <time>2021-09-08T12:18:46Z</time>
      </trkpt>
      <trkpt lat="46.01814" lon="4.55055">
        <ele>775.4</ele>
        <time>2021-09-08T12:18:47Z</time>
      </trkpt>
      <trkpt lat="46.01811" lon="4.55053">
        <ele>775.8</ele>
        <time>2021-09-08T12:18:48Z</time>
      </trkpt>
      <trkpt lat="46.01809" lon="4.55051">
        <ele>776.4</ele>
        <time>2021-09-08T12:18:49Z</time>
      </trkpt>
      <trkpt lat="46.01801" lon="4.55046">
        <ele>777.2</ele>
        <time>2021-09-08T12:18:51Z</time>
      </trkpt>
      <trkpt lat="46.01799" lon="4.55044">
        <ele>777.6</ele>
        <time>2021-09-08T12:18:52Z</time>
      </trkpt>
      <trkpt lat="46.01796" lon="4.55043">
        <ele>778.8</ele>
        <time>2021-09-08T12:18:53Z</time>
      </trkpt>
      <trkpt lat="46.01792" lon="4.55043">
        <ele>779.8</ele>
        <time>2021-09-08T12:18:55Z</time>
      </trkpt>
      <trkpt lat="46.01787" lon="4.55046">
        <ele>780.8</ele>
        <time>2021-09-08T12:18:57Z</time>
      </trkpt>
      <trkpt lat="46.01785" lon="4.55047">
        <ele>781.4</ele>
        <time>2021-09-08T12:18:58Z</time>
      </trkpt>
      <trkpt lat="46.0178" lon="4.5505">
        <ele>782.6</ele>
        <time>2021-09-08T12:19:01Z</time>
      </trkpt>
      <trkpt lat="46.01777" lon="4.55051">
        <ele>782.6</ele>
        <time>2021-09-08T12:19:02Z</time>
      </trkpt>
      <trkpt lat="46.01772" lon="4.5505">
        <ele>783.4</ele>
        <time>2021-09-08T12:19:04Z</time>
      </trkpt>
      <trkpt lat="46.0177" lon="4.55049">
        <ele>784.2</ele>
        <time>2021-09-08T12:19:05Z</time>
      </trkpt>
      <trkpt lat="46.01768" lon="4.5505">
        <ele>784.6</ele>
        <time>2021-09-08T12:19:06Z</time>
      </trkpt>
      <trkpt lat="46.01762" lon="4.55055">
        <ele>785.2</ele>
        <time>2021-09-08T12:19:09Z</time>
      </trkpt>
      <trkpt lat="46.0176" lon="4.55056">
        <ele>786</ele>
        <time>2021-09-08T12:19:10Z</time>
      </trkpt>
      <trkpt lat="46.01756" lon="4.5506">
        <ele>787.2</ele>
        <time>2021-09-08T12:19:12Z</time>
      </trkpt>
      <trkpt lat="46.01752" lon="4.55062">
        <ele>787.8</ele>
        <time>2021-09-08T12:19:14Z</time>
      </trkpt>
      <trkpt lat="46.01749" lon="4.55065">
        <ele>788.2</ele>
        <time>2021-09-08T12:19:16Z</time>
      </trkpt>
      <trkpt lat="46.0174" lon="4.55071">
        <ele>789.4</ele>
        <time>2021-09-08T12:19:20Z</time>
      </trkpt>
      <trkpt lat="46.01738" lon="4.55072">
        <ele>789.4</ele>
        <time>2021-09-08T12:19:21Z</time>
      </trkpt>
      <trkpt lat="46.01724" lon="4.55077">
        <ele>790.6</ele>
        <time>2021-09-08T12:19:27Z</time>
      </trkpt>
      <trkpt lat="46.01722" lon="4.55079">
        <ele>790.6</ele>
        <time>2021-09-08T12:19:28Z</time>
      </trkpt>
      <trkpt lat="46.01713" lon="4.5508">
        <ele>791.6</ele>
        <time>2021-09-08T12:19:32Z</time>
      </trkpt>
      <trkpt lat="46.01709" lon="4.55081">
        <ele>791.8</ele>
        <time>2021-09-08T12:19:33Z</time>
      </trkpt>
      <trkpt lat="46.01691" lon="4.55084">
        <ele>792.8</ele>
        <time>2021-09-08T12:19:39Z</time>
      </trkpt>
      <trkpt lat="46.01685" lon="4.55085">
        <ele>793.4</ele>
        <time>2021-09-08T12:19:42Z</time>
      </trkpt>
      <trkpt lat="46.0167" lon="4.55092">
        <ele>793.8</ele>
        <time>2021-09-08T12:19:47Z</time>
      </trkpt>
      <trkpt lat="46.01667" lon="4.55093">
        <ele>794</ele>
        <time>2021-09-08T12:19:48Z</time>
      </trkpt>
      <trkpt lat="46.01644" lon="4.551">
        <ele>794.2</ele>
        <time>2021-09-08T12:19:55Z</time>
      </trkpt>
      <trkpt lat="46.01633" lon="4.55103">
        <ele>794.2</ele>
        <time>2021-09-08T12:19:59Z</time>
      </trkpt>
      <trkpt lat="46.0163" lon="4.55103">
        <ele>794</ele>
        <time>2021-09-08T12:20:00Z</time>
      </trkpt>
      <trkpt lat="46.01621" lon="4.55103">
        <ele>794</ele>
        <time>2021-09-08T12:20:03Z</time>
      </trkpt>
      <trkpt lat="46.01605" lon="4.55112">
        <ele>793.8</ele>
        <time>2021-09-08T12:20:07Z</time>
      </trkpt>
      <trkpt lat="46.01602" lon="4.55111">
        <ele>794</ele>
        <time>2021-09-08T12:20:08Z</time>
      </trkpt>
      <trkpt lat="46.01582" lon="4.55114">
        <ele>794.4</ele>
        <time>2021-09-08T12:20:13Z</time>
      </trkpt>
      <trkpt lat="46.01563" lon="4.55118">
        <ele>794.8</ele>
        <time>2021-09-08T12:20:19Z</time>
      </trkpt>
      <trkpt lat="46.01559" lon="4.55117">
        <ele>794.8</ele>
        <time>2021-09-08T12:20:20Z</time>
      </trkpt>
      <trkpt lat="46.01541" lon="4.55114">
        <ele>795.2</ele>
        <time>2021-09-08T12:20:26Z</time>
      </trkpt>
      <trkpt lat="46.01522" lon="4.55113">
        <ele>796</ele>
        <time>2021-09-08T12:20:33Z</time>
      </trkpt>
      <trkpt lat="46.01514" lon="4.55111">
        <ele>797</ele>
        <time>2021-09-08T12:20:36Z</time>
      </trkpt>
      <trkpt lat="46.01508" lon="4.5511">
        <ele>798</ele>
        <time>2021-09-08T12:20:39Z</time>
      </trkpt>
      <trkpt lat="46.01505" lon="4.55109">
        <ele>798.2</ele>
        <time>2021-09-08T12:20:40Z</time>
      </trkpt>
      <trkpt lat="46.01495" lon="4.55104">
        <ele>798.6</ele>
        <time>2021-09-08T12:20:44Z</time>
      </trkpt>
      <trkpt lat="46.01486" lon="4.551">
        <ele>799.4</ele>
        <time>2021-09-08T12:20:48Z</time>
      </trkpt>
      <trkpt lat="46.01473" lon="4.55098">
        <ele>800.8</ele>
        <time>2021-09-08T12:20:53Z</time>
      </trkpt>
      <trkpt lat="46.01464" lon="4.55092">
        <ele>801.8</ele>
        <time>2021-09-08T12:20:57Z</time>
      </trkpt>
      <trkpt lat="46.01462" lon="4.5509">
        <ele>802.2</ele>
        <time>2021-09-08T12:20:58Z</time>
      </trkpt>
      <trkpt lat="46.01461" lon="4.55088">
        <ele>802.4</ele>
        <time>2021-09-08T12:20:59Z</time>
      </trkpt>
      <trkpt lat="46.01457" lon="4.55079">
        <ele>803</ele>
        <time>2021-09-08T12:21:02Z</time>
      </trkpt>
      <trkpt lat="46.0145" lon="4.55069">
        <ele>803.8</ele>
        <time>2021-09-08T12:21:06Z</time>
      </trkpt>
      <trkpt lat="46.01447" lon="4.55066">
        <ele>804.4</ele>
        <time>2021-09-08T12:21:07Z</time>
      </trkpt>
      <trkpt lat="46.01438" lon="4.5506">
        <ele>805</ele>
        <time>2021-09-08T12:21:11Z</time>
      </trkpt>
      <trkpt lat="46.01423" lon="4.55063">
        <ele>805.2</ele>
        <time>2021-09-08T12:21:17Z</time>
      </trkpt>
      <trkpt lat="46.01406" lon="4.55066">
        <ele>806.2</ele>
        <time>2021-09-08T12:21:24Z</time>
      </trkpt>
      <trkpt lat="46.01403" lon="4.55068">
        <ele>806.4</ele>
        <time>2021-09-08T12:21:25Z</time>
      </trkpt>
      <trkpt lat="46.01389" lon="4.55083">
        <ele>807.4</ele>
        <time>2021-09-08T12:21:32Z</time>
      </trkpt>
      <trkpt lat="46.01386" lon="4.55087">
        <ele>807.4</ele>
        <time>2021-09-08T12:21:34Z</time>
      </trkpt>
      <trkpt lat="46.01375" lon="4.55098">
        <ele>808.6</ele>
        <time>2021-09-08T12:21:39Z</time>
      </trkpt>
      <trkpt lat="46.01362" lon="4.55107">
        <ele>809.8</ele>
        <time>2021-09-08T12:21:45Z</time>
      </trkpt>
      <trkpt lat="46.0136" lon="4.55108">
        <ele>810</ele>
        <time>2021-09-08T12:21:46Z</time>
      </trkpt>
      <trkpt lat="46.01349" lon="4.55111">
        <ele>811</ele>
        <time>2021-09-08T12:21:50Z</time>
      </trkpt>
      <trkpt lat="46.01347" lon="4.55111">
        <ele>811.4</ele>
        <time>2021-09-08T12:21:51Z</time>
      </trkpt>
      <trkpt lat="46.0134" lon="4.55112">
        <ele>812.2</ele>
        <time>2021-09-08T12:21:53Z</time>
      </trkpt>
      <trkpt lat="46.01326" lon="4.55115">
        <ele>813.4</ele>
        <time>2021-09-08T12:21:58Z</time>
      </trkpt>
      <trkpt lat="46.01323" lon="4.55115">
        <ele>813.6</ele>
        <time>2021-09-08T12:21:59Z</time>
      </trkpt>
      <trkpt lat="46.01299" lon="4.55117">
        <ele>814.4</ele>
        <time>2021-09-08T12:22:07Z</time>
      </trkpt>
      <trkpt lat="46.0129" lon="4.55117">
        <ele>815</ele>
        <time>2021-09-08T12:22:10Z</time>
      </trkpt>
      <trkpt lat="46.01279" lon="4.55119">
        <ele>815.6</ele>
        <time>2021-09-08T12:22:14Z</time>
      </trkpt>
      <trkpt lat="46.01265" lon="4.55121">
        <ele>816.6</ele>
        <time>2021-09-08T12:22:19Z</time>
      </trkpt>
      <trkpt lat="46.01262" lon="4.55122">
        <ele>816.6</ele>
        <time>2021-09-08T12:22:20Z</time>
      </trkpt>
      <trkpt lat="46.01252" lon="4.55125">
        <ele>817.8</ele>
        <time>2021-09-08T12:22:24Z</time>
      </trkpt>
      <trkpt lat="46.01249" lon="4.55125">
        <ele>817.8</ele>
        <time>2021-09-08T12:22:25Z</time>
      </trkpt>
      <trkpt lat="46.01236" lon="4.55127">
        <ele>818.8</ele>
        <time>2021-09-08T12:22:30Z</time>
      </trkpt>
      <trkpt lat="46.01228" lon="4.55128">
        <ele>819.2</ele>
        <time>2021-09-08T12:22:33Z</time>
      </trkpt>
      <trkpt lat="46.01223" lon="4.55129">
        <ele>819.8</ele>
        <time>2021-09-08T12:22:35Z</time>
      </trkpt>
      <trkpt lat="46.0121" lon="4.55129">
        <ele>820.8</ele>
        <time>2021-09-08T12:22:39Z</time>
      </trkpt>
      <trkpt lat="46.01208" lon="4.55129">
        <ele>821</ele>
        <time>2021-09-08T12:22:40Z</time>
      </trkpt>
      <trkpt lat="46.01183" lon="4.55131">
        <ele>821.4</ele>
        <time>2021-09-08T12:22:48Z</time>
      </trkpt>
      <trkpt lat="46.01177" lon="4.5513">
        <ele>822</ele>
        <time>2021-09-08T12:22:50Z</time>
      </trkpt>
      <trkpt lat="46.01157" lon="4.55131">
        <ele>822.4</ele>
        <time>2021-09-08T12:22:56Z</time>
      </trkpt>
      <trkpt lat="46.01149" lon="4.55131">
        <ele>822.4</ele>
        <time>2021-09-08T12:22:58Z</time>
      </trkpt>
      <trkpt lat="46.01134" lon="4.55133">
        <ele>822</ele>
        <time>2021-09-08T12:23:01Z</time>
      </trkpt>
      <trkpt lat="46.01123" lon="4.55135">
        <ele>822</ele>
        <time>2021-09-08T12:23:03Z</time>
      </trkpt>
      <trkpt lat="46.01112" lon="4.55135">
        <ele>821.8</ele>
        <time>2021-09-08T12:23:05Z</time>
      </trkpt>
      <trkpt lat="46.01106" lon="4.55135">
        <ele>821.8</ele>
        <time>2021-09-08T12:23:06Z</time>
      </trkpt>
      <trkpt lat="46.01093" lon="4.55132">
        <ele>821.6</ele>
        <time>2021-09-08T12:23:08Z</time>
      </trkpt>
      <trkpt lat="46.01079" lon="4.55124">
        <ele>821.4</ele>
        <time>2021-09-08T12:23:10Z</time>
      </trkpt>
      <trkpt lat="46.01064" lon="4.55113">
        <ele>820</ele>
        <time>2021-09-08T12:23:12Z</time>
      </trkpt>
      <trkpt lat="46.01049" lon="4.55109">
        <ele>818.6</ele>
        <time>2021-09-08T12:23:14Z</time>
      </trkpt>
      <trkpt lat="46.01035" lon="4.55107">
        <ele>817.2</ele>
        <time>2021-09-08T12:23:16Z</time>
      </trkpt>
      <trkpt lat="46.01016" lon="4.55104">
        <ele>816.2</ele>
        <time>2021-09-08T12:23:19Z</time>
      </trkpt>
      <trkpt lat="46.01013" lon="4.55103">
        <ele>816</ele>
        <time>2021-09-08T12:23:20Z</time>
      </trkpt>
      <trkpt lat="46.00998" lon="4.55095">
        <ele>815.8</ele>
        <time>2021-09-08T12:23:24Z</time>
      </trkpt>
      <trkpt lat="46.00992" lon="4.55092">
        <ele>817.2</ele>
        <time>2021-09-08T12:23:29Z</time>
      </trkpt>
      <trkpt lat="46.00992" lon="4.55092">
        <ele>818.8</ele>
        <time>2021-09-08T12:23:32Z</time>
      </trkpt>
      <trkpt lat="46.00992" lon="4.55092">
        <ele>819.8</ele>
        <time>2021-09-08T12:23:33Z</time>
      </trkpt>
      <trkpt lat="46.00992" lon="4.55092">
        <ele>820.8</ele>
        <time>2021-09-08T12:23:35Z</time>
      </trkpt>
      <trkpt lat="46.00992" lon="4.55092">
        <ele>822</ele>
        <time>2021-09-08T12:23:41Z</time>
      </trkpt>
      <trkpt lat="46.00992" lon="4.55092">
        <ele>822</ele>
        <time>2021-09-08T12:23:42Z</time>
      </trkpt>
      <trkpt lat="46.00992" lon="4.55092">
        <ele>822.4</ele>
        <time>2021-09-08T12:23:46Z</time>
      </trkpt>
      <trkpt lat="46.00984" lon="4.55091">
        <ele>822.6</ele>
        <time>2021-09-08T12:23:49Z</time>
      </trkpt>
      <trkpt lat="46.00978" lon="4.55092">
        <ele>823</ele>
        <time>2021-09-08T12:23:52Z</time>
      </trkpt>
      <trkpt lat="46.0097" lon="4.55091">
        <ele>824.6</ele>
        <time>2021-09-08T12:23:55Z</time>
      </trkpt>
      <trkpt lat="46.00967" lon="4.55091">
        <ele>826</ele>
        <time>2021-09-08T12:23:57Z</time>
      </trkpt>
      <trkpt lat="46.00963" lon="4.55091">
        <ele>826.8</ele>
        <time>2021-09-08T12:23:59Z</time>
      </trkpt>
      <trkpt lat="46.0096" lon="4.5509">
        <ele>827.2</ele>
        <time>2021-09-08T12:24:00Z</time>
      </trkpt>
      <trkpt lat="46.00953" lon="4.55087">
        <ele>828.4</ele>
        <time>2021-09-08T12:24:03Z</time>
      </trkpt>
      <trkpt lat="46.00952" lon="4.55087">
        <ele>829.4</ele>
        <time>2021-09-08T12:24:04Z</time>
      </trkpt>
      <trkpt lat="46.00948" lon="4.55086">
        <ele>830.6</ele>
        <time>2021-09-08T12:24:06Z</time>
      </trkpt>
      <trkpt lat="46.00941" lon="4.55084">
        <ele>832</ele>
        <time>2021-09-08T12:24:09Z</time>
      </trkpt>
      <trkpt lat="46.00936" lon="4.55084">
        <ele>833.2</ele>
        <time>2021-09-08T12:24:11Z</time>
      </trkpt>
      <trkpt lat="46.00934" lon="4.55082">
        <ele>834.2</ele>
        <time>2021-09-08T12:24:12Z</time>
      </trkpt>
      <trkpt lat="46.00929" lon="4.55081">
        <ele>835.6</ele>
        <time>2021-09-08T12:24:14Z</time>
      </trkpt>
      <trkpt lat="46.00923" lon="4.5508">
        <ele>836.6</ele>
        <time>2021-09-08T12:24:16Z</time>
      </trkpt>
      <trkpt lat="46.0092" lon="4.55079">
        <ele>837.6</ele>
        <time>2021-09-08T12:24:18Z</time>
      </trkpt>
      <trkpt lat="46.00914" lon="4.55078">
        <ele>839</ele>
        <time>2021-09-08T12:24:21Z</time>
      </trkpt>
      <trkpt lat="46.00911" lon="4.55077">
        <ele>840.2</ele>
        <time>2021-09-08T12:24:23Z</time>
      </trkpt>
      <trkpt lat="46.00909" lon="4.55076">
        <ele>841.2</ele>
        <time>2021-09-08T12:24:24Z</time>
      </trkpt>
      <trkpt lat="46.00907" lon="4.55073">
        <ele>842.4</ele>
        <time>2021-09-08T12:24:26Z</time>
      </trkpt>
      <trkpt lat="46.00906" lon="4.55071">
        <ele>842.6</ele>
        <time>2021-09-08T12:24:27Z</time>
      </trkpt>
      <trkpt lat="46.00902" lon="4.55067">
        <ele>843.8</ele>
        <time>2021-09-08T12:24:29Z</time>
      </trkpt>
      <trkpt lat="46.00896" lon="4.55058">
        <ele>845.2</ele>
        <time>2021-09-08T12:24:33Z</time>
      </trkpt>
      <trkpt lat="46.00892" lon="4.55053">
        <ele>846.4</ele>
        <time>2021-09-08T12:24:36Z</time>
      </trkpt>
      <trkpt lat="46.0089" lon="4.55051">
        <ele>846.6</ele>
        <time>2021-09-08T12:24:37Z</time>
      </trkpt>
      <trkpt lat="46.00886" lon="4.55043">
        <ele>847.4</ele>
        <time>2021-09-08T12:24:40Z</time>
      </trkpt>
      <trkpt lat="46.00878" lon="4.55034">
        <ele>848.2</ele>
        <time>2021-09-08T12:24:44Z</time>
      </trkpt>
      <trkpt lat="46.0087" lon="4.55025">
        <ele>849</ele>
        <time>2021-09-08T12:24:47Z</time>
      </trkpt>
      <trkpt lat="46.00859" lon="4.55012">
        <ele>849.2</ele>
        <time>2021-09-08T12:24:51Z</time>
      </trkpt>
      <trkpt lat="46.00841" lon="4.54996">
        <ele>849</ele>
        <time>2021-09-08T12:24:55Z</time>
      </trkpt>
      <trkpt lat="46.00817" lon="4.54963">
        <ele>847.6</ele>
        <time>2021-09-08T12:25:01Z</time>
      </trkpt>
      <trkpt lat="46.00813" lon="4.54958">
        <ele>847</ele>
        <time>2021-09-08T12:25:02Z</time>
      </trkpt>
      <trkpt lat="46.00805" lon="4.54948">
        <ele>845.8</ele>
        <time>2021-09-08T12:25:04Z</time>
      </trkpt>
      <trkpt lat="46.00791" lon="4.54934">
        <ele>844.8</ele>
        <time>2021-09-08T12:25:07Z</time>
      </trkpt>
      <trkpt lat="46.00788" lon="4.54931">
        <ele>844.6</ele>
        <time>2021-09-08T12:25:08Z</time>
      </trkpt>
      <trkpt lat="46.0078" lon="4.54922">
        <ele>844.4</ele>
        <time>2021-09-08T12:25:10Z</time>
      </trkpt>
      <trkpt lat="46.00777" lon="4.5492">
        <ele>844.2</ele>
        <time>2021-09-08T12:25:11Z</time>
      </trkpt>
      <trkpt lat="46.00765" lon="4.54914">
        <ele>843.6</ele>
        <time>2021-09-08T12:25:15Z</time>
      </trkpt>
      <trkpt lat="46.00763" lon="4.54913">
        <ele>843.8</ele>
        <time>2021-09-08T12:25:16Z</time>
      </trkpt>
      <trkpt lat="46.00743" lon="4.54902">
        <ele>844.6</ele>
        <time>2021-09-08T12:25:24Z</time>
      </trkpt>
      <trkpt lat="46.00733" lon="4.54897">
        <ele>845.8</ele>
        <time>2021-09-08T12:25:28Z</time>
      </trkpt>
      <trkpt lat="46.00729" lon="4.54893">
        <ele>846.4</ele>
        <time>2021-09-08T12:25:30Z</time>
      </trkpt>
      <trkpt lat="46.00723" lon="4.54889">
        <ele>846.8</ele>
        <time>2021-09-08T12:25:32Z</time>
      </trkpt>
      <trkpt lat="46.0071" lon="4.54881">
        <ele>847.4</ele>
        <time>2021-09-08T12:25:37Z</time>
      </trkpt>
      <trkpt lat="46.00699" lon="4.5487">
        <ele>847.6</ele>
        <time>2021-09-08T12:25:42Z</time>
      </trkpt>
      <trkpt lat="46.00696" lon="4.54865">
        <ele>847.6</ele>
        <time>2021-09-08T12:25:44Z</time>
      </trkpt>
      <trkpt lat="46.00676" lon="4.54837">
        <ele>848</ele>
        <time>2021-09-08T12:25:53Z</time>
      </trkpt>
      <trkpt lat="46.00665" lon="4.54831">
        <ele>849</ele>
        <time>2021-09-08T12:25:57Z</time>
      </trkpt>
      <trkpt lat="46.00659" lon="4.54827">
        <ele>849.2</ele>
        <time>2021-09-08T12:25:59Z</time>
      </trkpt>
      <trkpt lat="46.00645" lon="4.5482">
        <ele>850</ele>
        <time>2021-09-08T12:26:04Z</time>
      </trkpt>
      <trkpt lat="46.00634" lon="4.54817">
        <ele>851</ele>
        <time>2021-09-08T12:26:09Z</time>
      </trkpt>
      <trkpt lat="46.00632" lon="4.54817">
        <ele>851.2</ele>
        <time>2021-09-08T12:26:10Z</time>
      </trkpt>
      <trkpt lat="46.00621" lon="4.54816">
        <ele>852</ele>
        <time>2021-09-08T12:26:15Z</time>
      </trkpt>
      <trkpt lat="46.00619" lon="4.54816">
        <ele>852</ele>
        <time>2021-09-08T12:26:16Z</time>
      </trkpt>
      <trkpt lat="46.00619" lon="4.54816">
        <ele>852.2</ele>
        <time>2021-09-08T12:26:19Z</time>
      </trkpt>
      <trkpt lat="46.00612" lon="4.54815">
        <ele>852.2</ele>
        <time>2021-09-08T12:27:08Z</time>
      </trkpt>
      <trkpt lat="46.00593" lon="4.54814">
        <ele>851.6</ele>
        <time>2021-09-08T12:27:14Z</time>
      </trkpt>
      <trkpt lat="46.00569" lon="4.54811">
        <ele>851.4</ele>
        <time>2021-09-08T12:27:19Z</time>
      </trkpt>
      <trkpt lat="46.00542" lon="4.54809">
        <ele>850.6</ele>
        <time>2021-09-08T12:27:23Z</time>
      </trkpt>
      <trkpt lat="46.00535" lon="4.5481">
        <ele>850.4</ele>
        <time>2021-09-08T12:27:24Z</time>
      </trkpt>
      <trkpt lat="46.00521" lon="4.54812">
        <ele>849</ele>
        <time>2021-09-08T12:27:26Z</time>
      </trkpt>
      <trkpt lat="46.00506" lon="4.54817">
        <ele>848</ele>
        <time>2021-09-08T12:27:28Z</time>
      </trkpt>
      <trkpt lat="46.005" lon="4.54821">
        <ele>847.6</ele>
        <time>2021-09-08T12:27:29Z</time>
      </trkpt>
      <trkpt lat="46.00473" lon="4.54835">
        <ele>846.4</ele>
        <time>2021-09-08T12:27:33Z</time>
      </trkpt>
      <trkpt lat="46.0046" lon="4.54839">
        <ele>845.4</ele>
        <time>2021-09-08T12:27:35Z</time>
      </trkpt>
      <trkpt lat="46.00453" lon="4.5484">
        <ele>845</ele>
        <time>2021-09-08T12:27:36Z</time>
      </trkpt>
      <trkpt lat="46.00445" lon="4.54842">
        <ele>844</ele>
        <time>2021-09-08T12:27:37Z</time>
      </trkpt>
      <trkpt lat="46.00433" lon="4.54845">
        <ele>842.8</ele>
        <time>2021-09-08T12:27:39Z</time>
      </trkpt>
      <trkpt lat="46.00429" lon="4.54848">
        <ele>842.4</ele>
        <time>2021-09-08T12:27:40Z</time>
      </trkpt>
      <trkpt lat="46.00419" lon="4.54855">
        <ele>842.2</ele>
        <time>2021-09-08T12:27:42Z</time>
      </trkpt>
      <trkpt lat="46.00412" lon="4.54864">
        <ele>841.8</ele>
        <time>2021-09-08T12:27:44Z</time>
      </trkpt>
      <trkpt lat="46.00408" lon="4.5487">
        <ele>841.6</ele>
        <time>2021-09-08T12:27:45Z</time>
      </trkpt>
      <trkpt lat="46.00388" lon="4.54899">
        <ele>840.8</ele>
        <time>2021-09-08T12:27:50Z</time>
      </trkpt>
      <trkpt lat="46.00382" lon="4.54906">
        <ele>840.2</ele>
        <time>2021-09-08T12:27:51Z</time>
      </trkpt>
      <trkpt lat="46.00367" lon="4.54921">
        <ele>839.4</ele>
        <time>2021-09-08T12:27:54Z</time>
      </trkpt>
      <trkpt lat="46.00352" lon="4.54933">
        <ele>838</ele>
        <time>2021-09-08T12:27:57Z</time>
      </trkpt>
      <trkpt lat="46.00348" lon="4.54936">
        <ele>837.6</ele>
        <time>2021-09-08T12:27:58Z</time>
      </trkpt>
      <trkpt lat="46.00332" lon="4.54946">
        <ele>836.6</ele>
        <time>2021-09-08T12:28:01Z</time>
      </trkpt>
      <trkpt lat="46.00329" lon="4.54949">
        <ele>836.4</ele>
        <time>2021-09-08T12:28:02Z</time>
      </trkpt>
      <trkpt lat="46.00314" lon="4.54971">
        <ele>835.6</ele>
        <time>2021-09-08T12:28:07Z</time>
      </trkpt>
      <trkpt lat="46.00304" lon="4.54982">
        <ele>835.4</ele>
        <time>2021-09-08T12:28:11Z</time>
      </trkpt>
      <trkpt lat="46.003" lon="4.54995">
        <ele>836</ele>
        <time>2021-09-08T12:28:15Z</time>
      </trkpt>
      <trkpt lat="46.00297" lon="4.55014">
        <ele>836.8</ele>
        <time>2021-09-08T12:28:19Z</time>
      </trkpt>
      <trkpt lat="46.00295" lon="4.55019">
        <ele>837.2</ele>
        <time>2021-09-08T12:28:20Z</time>
      </trkpt>
      <trkpt lat="46.00288" lon="4.55035">
        <ele>837.8</ele>
        <time>2021-09-08T12:28:23Z</time>
      </trkpt>
      <trkpt lat="46.00285" lon="4.55043">
        <ele>838</ele>
        <time>2021-09-08T12:28:25Z</time>
      </trkpt>
      <trkpt lat="46.00283" lon="4.55052">
        <ele>838.2</ele>
        <time>2021-09-08T12:28:27Z</time>
      </trkpt>
      <trkpt lat="46.00281" lon="4.5506">
        <ele>838.4</ele>
        <time>2021-09-08T12:28:29Z</time>
      </trkpt>
      <trkpt lat="46.00275" lon="4.55078">
        <ele>839</ele>
        <time>2021-09-08T12:28:33Z</time>
      </trkpt>
      <trkpt lat="46.00275" lon="4.55083">
        <ele>839</ele>
        <time>2021-09-08T12:28:34Z</time>
      </trkpt>
      <trkpt lat="46.00272" lon="4.55101">
        <ele>840</ele>
        <time>2021-09-08T12:28:37Z</time>
      </trkpt>
      <trkpt lat="46.0027" lon="4.55117">
        <ele>840.8</ele>
        <time>2021-09-08T12:28:40Z</time>
      </trkpt>
      <trkpt lat="46.00267" lon="4.5513">
        <ele>841.2</ele>
        <time>2021-09-08T12:28:43Z</time>
      </trkpt>
      <trkpt lat="46.00259" lon="4.55147">
        <ele>841.6</ele>
        <time>2021-09-08T12:28:46Z</time>
      </trkpt>
      <trkpt lat="46.00252" lon="4.55161">
        <ele>842.6</ele>
        <time>2021-09-08T12:28:49Z</time>
      </trkpt>
      <trkpt lat="46.00241" lon="4.55183">
        <ele>843.6</ele>
        <time>2021-09-08T12:28:54Z</time>
      </trkpt>
      <trkpt lat="46.0024" lon="4.55188">
        <ele>843.6</ele>
        <time>2021-09-08T12:28:55Z</time>
      </trkpt>
      <trkpt lat="46.00235" lon="4.55219">
        <ele>844</ele>
        <time>2021-09-08T12:29:01Z</time>
      </trkpt>
      <trkpt lat="46.00225" lon="4.55248">
        <ele>844</ele>
        <time>2021-09-08T12:29:06Z</time>
      </trkpt>
      <trkpt lat="46.00221" lon="4.55273">
        <ele>843.2</ele>
        <time>2021-09-08T12:29:11Z</time>
      </trkpt>
      <trkpt lat="46.00213" lon="4.55296">
        <ele>842.8</ele>
        <time>2021-09-08T12:29:15Z</time>
      </trkpt>
      <trkpt lat="46.00209" lon="4.5532">
        <ele>842.6</ele>
        <time>2021-09-08T12:29:20Z</time>
      </trkpt>
      <trkpt lat="46.00207" lon="4.5533">
        <ele>842.8</ele>
        <time>2021-09-08T12:29:22Z</time>
      </trkpt>
      <trkpt lat="46.00203" lon="4.5534">
        <ele>842.8</ele>
        <time>2021-09-08T12:29:24Z</time>
      </trkpt>
      <trkpt lat="46.00197" lon="4.55356">
        <ele>842.6</ele>
        <time>2021-09-08T12:29:27Z</time>
      </trkpt>
      <trkpt lat="46.00193" lon="4.55366">
        <ele>842.4</ele>
        <time>2021-09-08T12:29:29Z</time>
      </trkpt>
      <trkpt lat="46.0019" lon="4.55375">
        <ele>842.4</ele>
        <time>2021-09-08T12:29:32Z</time>
      </trkpt>
      <trkpt lat="46.00188" lon="4.55378">
        <ele>842.4</ele>
        <time>2021-09-08T12:29:33Z</time>
      </trkpt>
      <trkpt lat="46.00186" lon="4.55381">
        <ele>842.4</ele>
        <time>2021-09-08T12:29:34Z</time>
      </trkpt>
      <trkpt lat="46.00177" lon="4.55397">
        <ele>841.2</ele>
        <time>2021-09-08T12:29:39Z</time>
      </trkpt>
      <trkpt lat="46.00172" lon="4.55405">
        <ele>840.2</ele>
        <time>2021-09-08T12:29:41Z</time>
      </trkpt>
      <trkpt lat="46.00167" lon="4.55413">
        <ele>839.2</ele>
        <time>2021-09-08T12:29:43Z</time>
      </trkpt>
      <trkpt lat="46.00163" lon="4.55421">
        <ele>838</ele>
        <time>2021-09-08T12:29:45Z</time>
      </trkpt>
      <trkpt lat="46.00158" lon="4.55435">
        <ele>837</ele>
        <time>2021-09-08T12:29:47Z</time>
      </trkpt>
      <trkpt lat="46.00155" lon="4.55442">
        <ele>836.6</ele>
        <time>2021-09-08T12:29:48Z</time>
      </trkpt>
      <trkpt lat="46.00151" lon="4.55446">
        <ele>835.6</ele>
        <time>2021-09-08T12:29:49Z</time>
      </trkpt>
      <trkpt lat="46.00148" lon="4.55448">
        <ele>835.4</ele>
        <time>2021-09-08T12:29:50Z</time>
      </trkpt>
      <trkpt lat="46.00137" lon="4.55453">
        <ele>834</ele>
        <time>2021-09-08T12:29:53Z</time>
      </trkpt>
      <trkpt lat="46.00136" lon="4.55454">
        <ele>833</ele>
        <time>2021-09-08T12:29:54Z</time>
      </trkpt>
      <trkpt lat="46.00133" lon="4.55457">
        <ele>832.8</ele>
        <time>2021-09-08T12:29:55Z</time>
      </trkpt>
      <trkpt lat="46.00125" lon="4.55469">
        <ele>831.2</ele>
        <time>2021-09-08T12:29:58Z</time>
      </trkpt>
      <trkpt lat="46.00124" lon="4.55471">
        <ele>830.4</ele>
        <time>2021-09-08T12:29:59Z</time>
      </trkpt>
      <trkpt lat="46.00121" lon="4.55471">
        <ele>830</ele>
        <time>2021-09-08T12:30:00Z</time>
      </trkpt>
      <trkpt lat="46.00118" lon="4.55472">
        <ele>828.6</ele>
        <time>2021-09-08T12:30:01Z</time>
      </trkpt>
      <trkpt lat="46.00113" lon="4.55475">
        <ele>827</ele>
        <time>2021-09-08T12:30:03Z</time>
      </trkpt>
      <trkpt lat="46.00109" lon="4.55475">
        <ele>825.8</ele>
        <time>2021-09-08T12:30:05Z</time>
      </trkpt>
      <trkpt lat="46.00103" lon="4.55474">
        <ele>824.6</ele>
        <time>2021-09-08T12:30:07Z</time>
      </trkpt>
      <trkpt lat="46.001" lon="4.55475">
        <ele>824</ele>
        <time>2021-09-08T12:30:08Z</time>
      </trkpt>
      <trkpt lat="46.00094" lon="4.55477">
        <ele>822.8</ele>
        <time>2021-09-08T12:30:10Z</time>
      </trkpt>
      <trkpt lat="46.00091" lon="4.55481">
        <ele>822</ele>
        <time>2021-09-08T12:30:12Z</time>
      </trkpt>
      <trkpt lat="46.00089" lon="4.55486">
        <ele>820.6</ele>
        <time>2021-09-08T12:30:13Z</time>
      </trkpt>
      <trkpt lat="46.00084" lon="4.55498">
        <ele>819</ele>
        <time>2021-09-08T12:30:15Z</time>
      </trkpt>
      <trkpt lat="46.0008" lon="4.55508">
        <ele>818</ele>
        <time>2021-09-08T12:30:17Z</time>
      </trkpt>
      <trkpt lat="46.00068" lon="4.55517">
        <ele>816.8</ele>
        <time>2021-09-08T12:30:20Z</time>
      </trkpt>
      <trkpt lat="46.0006" lon="4.55522">
        <ele>815.4</ele>
        <time>2021-09-08T12:30:22Z</time>
      </trkpt>
      <trkpt lat="46.00057" lon="4.55525">
        <ele>815</ele>
        <time>2021-09-08T12:30:23Z</time>
      </trkpt>
      <trkpt lat="46.00057" lon="4.55528">
        <ele>814</ele>
        <time>2021-09-08T12:30:24Z</time>
      </trkpt>
      <trkpt lat="46.00057" lon="4.55529">
        <ele>812.2</ele>
        <time>2021-09-08T12:30:25Z</time>
      </trkpt>
      <trkpt lat="46.00055" lon="4.55537">
        <ele>810.4</ele>
        <time>2021-09-08T12:30:27Z</time>
      </trkpt>
      <trkpt lat="46.00054" lon="4.55541">
        <ele>810</ele>
        <time>2021-09-08T12:30:28Z</time>
      </trkpt>
      <trkpt lat="46.00051" lon="4.55544">
        <ele>809.4</ele>
        <time>2021-09-08T12:30:29Z</time>
      </trkpt>
      <trkpt lat="46.00049" lon="4.55546">
        <ele>809</ele>
        <time>2021-09-08T12:30:30Z</time>
      </trkpt>
      <trkpt lat="46.00046" lon="4.55547">
        <ele>808.8</ele>
        <time>2021-09-08T12:30:31Z</time>
      </trkpt>
      <trkpt lat="46.00044" lon="4.55547">
        <ele>807.2</ele>
        <time>2021-09-08T12:30:32Z</time>
      </trkpt>
      <trkpt lat="46.00041" lon="4.55547">
        <ele>806.6</ele>
        <time>2021-09-08T12:30:33Z</time>
      </trkpt>
      <trkpt lat="46.00039" lon="4.55547">
        <ele>805.4</ele>
        <time>2021-09-08T12:30:34Z</time>
      </trkpt>
      <trkpt lat="46.00035" lon="4.55548">
        <ele>805</ele>
        <time>2021-09-08T12:30:35Z</time>
      </trkpt>
      <trkpt lat="46.00032" lon="4.55546">
        <ele>804.2</ele>
        <time>2021-09-08T12:30:36Z</time>
      </trkpt>
      <trkpt lat="46.00026" lon="4.55542">
        <ele>802.2</ele>
        <time>2021-09-08T12:30:39Z</time>
      </trkpt>
      <trkpt lat="46.00024" lon="4.55542">
        <ele>801.8</ele>
        <time>2021-09-08T12:30:40Z</time>
      </trkpt>
      <trkpt lat="46.00022" lon="4.55542">
        <ele>801</ele>
        <time>2021-09-08T12:30:41Z</time>
      </trkpt>
      <trkpt lat="46.00021" lon="4.55542">
        <ele>800.2</ele>
        <time>2021-09-08T12:30:42Z</time>
      </trkpt>
      <trkpt lat="46.0002" lon="4.5554">
        <ele>799.8</ele>
        <time>2021-09-08T12:30:43Z</time>
      </trkpt>
      <trkpt lat="46.00018" lon="4.55539">
        <ele>799.2</ele>
        <time>2021-09-08T12:30:44Z</time>
      </trkpt>
      <trkpt lat="46.00014" lon="4.55536">
        <ele>798.8</ele>
        <time>2021-09-08T12:30:46Z</time>
      </trkpt>
      <trkpt lat="46.00005" lon="4.55532">
        <ele>797.6</ele>
        <time>2021-09-08T12:30:49Z</time>
      </trkpt>
      <trkpt lat="45.99996" lon="4.5553">
        <ele>796</ele>
        <time>2021-09-08T12:30:51Z</time>
      </trkpt>
      <trkpt lat="45.9999" lon="4.55533">
        <ele>794.6</ele>
        <time>2021-09-08T12:30:53Z</time>
      </trkpt>
      <trkpt lat="45.99982" lon="4.55538">
        <ele>793</ele>
        <time>2021-09-08T12:30:55Z</time>
      </trkpt>
      <trkpt lat="45.99977" lon="4.55543">
        <ele>791.6</ele>
        <time>2021-09-08T12:30:57Z</time>
      </trkpt>
      <trkpt lat="45.9997" lon="4.55551">
        <ele>790</ele>
        <time>2021-09-08T12:30:59Z</time>
      </trkpt>
      <trkpt lat="45.99966" lon="4.55556">
        <ele>788.8</ele>
        <time>2021-09-08T12:31:00Z</time>
      </trkpt>
      <trkpt lat="45.99962" lon="4.55559">
        <ele>787.4</ele>
        <time>2021-09-08T12:31:01Z</time>
      </trkpt>
      <trkpt lat="45.99952" lon="4.55567">
        <ele>785.6</ele>
        <time>2021-09-08T12:31:03Z</time>
      </trkpt>
      <trkpt lat="45.99947" lon="4.5557">
        <ele>785.2</ele>
        <time>2021-09-08T12:31:04Z</time>
      </trkpt>
      <trkpt lat="45.99938" lon="4.55575">
        <ele>784.6</ele>
        <time>2021-09-08T12:31:06Z</time>
      </trkpt>
      <trkpt lat="45.99921" lon="4.55591">
        <ele>783.8</ele>
        <time>2021-09-08T12:31:09Z</time>
      </trkpt>
      <trkpt lat="45.99916" lon="4.55597">
        <ele>782.8</ele>
        <time>2021-09-08T12:31:10Z</time>
      </trkpt>
      <trkpt lat="45.99906" lon="4.5561">
        <ele>781.4</ele>
        <time>2021-09-08T12:31:12Z</time>
      </trkpt>
      <trkpt lat="45.99896" lon="4.55625">
        <ele>780.2</ele>
        <time>2021-09-08T12:31:15Z</time>
      </trkpt>
      <trkpt lat="45.99886" lon="4.5565">
        <ele>778.6</ele>
        <time>2021-09-08T12:31:20Z</time>
      </trkpt>
      <trkpt lat="45.99884" lon="4.55656">
        <ele>778.4</ele>
        <time>2021-09-08T12:31:21Z</time>
      </trkpt>
      <trkpt lat="45.9988" lon="4.55669">
        <ele>777.6</ele>
        <time>2021-09-08T12:31:23Z</time>
      </trkpt>
      <trkpt lat="45.99869" lon="4.55692">
        <ele>776.6</ele>
        <time>2021-09-08T12:31:26Z</time>
      </trkpt>
      <trkpt lat="45.99866" lon="4.557">
        <ele>776.2</ele>
        <time>2021-09-08T12:31:27Z</time>
      </trkpt>
      <trkpt lat="45.99851" lon="4.5573">
        <ele>775</ele>
        <time>2021-09-08T12:31:31Z</time>
      </trkpt>
      <trkpt lat="45.99848" lon="4.55737">
        <ele>774.4</ele>
        <time>2021-09-08T12:31:32Z</time>
      </trkpt>
      <trkpt lat="45.99846" lon="4.55741">
        <ele>774.2</ele>
        <time>2021-09-08T12:31:33Z</time>
      </trkpt>
      <trkpt lat="45.99839" lon="4.55749">
        <ele>773.8</ele>
        <time>2021-09-08T12:31:35Z</time>
      </trkpt>
      <trkpt lat="45.99831" lon="4.55757">
        <ele>773.8</ele>
        <time>2021-09-08T12:31:37Z</time>
      </trkpt>
      <trkpt lat="45.99817" lon="4.55769">
        <ele>773.2</ele>
        <time>2021-09-08T12:31:41Z</time>
      </trkpt>
      <trkpt lat="45.99805" lon="4.55785">
        <ele>773.2</ele>
        <time>2021-09-08T12:31:44Z</time>
      </trkpt>
      <trkpt lat="45.998" lon="4.55794">
        <ele>773.2</ele>
        <time>2021-09-08T12:31:46Z</time>
      </trkpt>
      <trkpt lat="45.99795" lon="4.55801">
        <ele>773.2</ele>
        <time>2021-09-08T12:31:47Z</time>
      </trkpt>
      <trkpt lat="45.99787" lon="4.55813">
        <ele>773.2</ele>
        <time>2021-09-08T12:31:50Z</time>
      </trkpt>
      <trkpt lat="45.99767" lon="4.55844">
        <ele>774.2</ele>
        <time>2021-09-08T12:31:56Z</time>
      </trkpt>
      <trkpt lat="45.99763" lon="4.55853">
        <ele>774.6</ele>
        <time>2021-09-08T12:31:58Z</time>
      </trkpt>
      <trkpt lat="45.99755" lon="4.55869">
        <ele>775</ele>
        <time>2021-09-08T12:32:01Z</time>
      </trkpt>
      <trkpt lat="45.99748" lon="4.55886">
        <ele>775</ele>
        <time>2021-09-08T12:32:03Z</time>
      </trkpt>
      <trkpt lat="45.99742" lon="4.55911">
        <ele>775.2</ele>
        <time>2021-09-08T12:32:06Z</time>
      </trkpt>
      <trkpt lat="45.99734" lon="4.55928">
        <ele>775.8</ele>
        <time>2021-09-08T12:32:08Z</time>
      </trkpt>
      <trkpt lat="45.99732" lon="4.55935">
        <ele>775.8</ele>
        <time>2021-09-08T12:32:09Z</time>
      </trkpt>
      <trkpt lat="45.99727" lon="4.55952">
        <ele>775.8</ele>
        <time>2021-09-08T12:32:11Z</time>
      </trkpt>
      <trkpt lat="45.99722" lon="4.55975">
        <ele>775.8</ele>
        <time>2021-09-08T12:32:14Z</time>
      </trkpt>
      <trkpt lat="45.99716" lon="4.55989">
        <ele>774.8</ele>
        <time>2021-09-08T12:32:16Z</time>
      </trkpt>
      <trkpt lat="45.99713" lon="4.55996">
        <ele>774.2</ele>
        <time>2021-09-08T12:32:17Z</time>
      </trkpt>
      <trkpt lat="45.9971" lon="4.56001">
        <ele>774</ele>
        <time>2021-09-08T12:32:18Z</time>
      </trkpt>
      <trkpt lat="45.99703" lon="4.56017">
        <ele>773</ele>
        <time>2021-09-08T12:32:20Z</time>
      </trkpt>
      <trkpt lat="45.99698" lon="4.56027">
        <ele>771.8</ele>
        <time>2021-09-08T12:32:22Z</time>
      </trkpt>
      <trkpt lat="45.99696" lon="4.56032">
        <ele>771.4</ele>
        <time>2021-09-08T12:32:23Z</time>
      </trkpt>
      <trkpt lat="45.99692" lon="4.56038">
        <ele>770.6</ele>
        <time>2021-09-08T12:32:25Z</time>
      </trkpt>
      <trkpt lat="45.99691" lon="4.56041">
        <ele>770</ele>
        <time>2021-09-08T12:32:26Z</time>
      </trkpt>
      <trkpt lat="45.99691" lon="4.56043">
        <ele>769.6</ele>
        <time>2021-09-08T12:32:27Z</time>
      </trkpt>
      <trkpt lat="45.99692" lon="4.56046">
        <ele>769.2</ele>
        <time>2021-09-08T12:32:28Z</time>
      </trkpt>
      <trkpt lat="45.99694" lon="4.56049">
        <ele>768.6</ele>
        <time>2021-09-08T12:32:30Z</time>
      </trkpt>
      <trkpt lat="45.99697" lon="4.56049">
        <ele>768.2</ele>
        <time>2021-09-08T12:32:31Z</time>
      </trkpt>
      <trkpt lat="45.99709" lon="4.56052">
        <ele>767.6</ele>
        <time>2021-09-08T12:32:35Z</time>
      </trkpt>
      <trkpt lat="45.9973" lon="4.56067">
        <ele>767.6</ele>
        <time>2021-09-08T12:32:42Z</time>
      </trkpt>
      <trkpt lat="45.99751" lon="4.56074">
        <ele>767.8</ele>
        <time>2021-09-08T12:32:48Z</time>
      </trkpt>
      <trkpt lat="45.99756" lon="4.56078">
        <ele>767.4</ele>
        <time>2021-09-08T12:32:52Z</time>
      </trkpt>
      <trkpt lat="45.99757" lon="4.56079">
        <ele>767.4</ele>
        <time>2021-09-08T12:32:53Z</time>
      </trkpt>
      <trkpt lat="45.99759" lon="4.56083">
        <ele>767.2</ele>
        <time>2021-09-08T12:32:55Z</time>
      </trkpt>
      <trkpt lat="45.9976" lon="4.56084">
        <ele>767</ele>
        <time>2021-09-08T12:32:56Z</time>
      </trkpt>
      <trkpt lat="45.99765" lon="4.56091">
        <ele>766.6</ele>
        <time>2021-09-08T12:32:59Z</time>
      </trkpt>
      <trkpt lat="45.99766" lon="4.56094">
        <ele>766.4</ele>
        <time>2021-09-08T12:33:00Z</time>
      </trkpt>
      <trkpt lat="45.99767" lon="4.56099">
        <ele>766</ele>
        <time>2021-09-08T12:33:01Z</time>
      </trkpt>
      <trkpt lat="45.99769" lon="4.56103">
        <ele>765.2</ele>
        <time>2021-09-08T12:33:02Z</time>
      </trkpt>
      <trkpt lat="45.99771" lon="4.56107">
        <ele>765.2</ele>
        <time>2021-09-08T12:33:03Z</time>
      </trkpt>
      <trkpt lat="45.99773" lon="4.56111">
        <ele>764.8</ele>
        <time>2021-09-08T12:33:04Z</time>
      </trkpt>
      <trkpt lat="45.99778" lon="4.56123">
        <ele>764.4</ele>
        <time>2021-09-08T12:33:07Z</time>
      </trkpt>
      <trkpt lat="45.9978" lon="4.56128">
        <ele>764</ele>
        <time>2021-09-08T12:33:08Z</time>
      </trkpt>
      <trkpt lat="45.99781" lon="4.56131">
        <ele>763.6</ele>
        <time>2021-09-08T12:33:09Z</time>
      </trkpt>
      <trkpt lat="45.99781" lon="4.56134">
        <ele>763.4</ele>
        <time>2021-09-08T12:33:10Z</time>
      </trkpt>
      <trkpt lat="45.99779" lon="4.56138">
        <ele>763.2</ele>
        <time>2021-09-08T12:33:12Z</time>
      </trkpt>
      <trkpt lat="45.99775" lon="4.5615">
        <ele>763.2</ele>
        <time>2021-09-08T12:33:15Z</time>
      </trkpt>
      <trkpt lat="45.99763" lon="4.56166">
        <ele>763.8</ele>
        <time>2021-09-08T12:33:21Z</time>
      </trkpt>
      <trkpt lat="45.99756" lon="4.56174">
        <ele>764.4</ele>
        <time>2021-09-08T12:33:24Z</time>
      </trkpt>
      <trkpt lat="45.99755" lon="4.56176">
        <ele>764.6</ele>
        <time>2021-09-08T12:33:25Z</time>
      </trkpt>
      <trkpt lat="45.99752" lon="4.56184">
        <ele>765.2</ele>
        <time>2021-09-08T12:33:27Z</time>
      </trkpt>
      <trkpt lat="45.99752" lon="4.56187">
        <ele>765.8</ele>
        <time>2021-09-08T12:33:28Z</time>
      </trkpt>
      <trkpt lat="45.99747" lon="4.56193">
        <ele>766.8</ele>
        <time>2021-09-08T12:33:31Z</time>
      </trkpt>
      <trkpt lat="45.99746" lon="4.56194">
        <ele>767</ele>
        <time>2021-09-08T12:33:32Z</time>
      </trkpt>
      <trkpt lat="45.99745" lon="4.56195">
        <ele>767.4</ele>
        <time>2021-09-08T12:33:33Z</time>
      </trkpt>
      <trkpt lat="45.99741" lon="4.56197">
        <ele>768</ele>
        <time>2021-09-08T12:33:35Z</time>
      </trkpt>
      <trkpt lat="45.99739" lon="4.56198">
        <ele>768.4</ele>
        <time>2021-09-08T12:33:36Z</time>
      </trkpt>
      <trkpt lat="45.99734" lon="4.56205">
        <ele>769.6</ele>
        <time>2021-09-08T12:33:39Z</time>
      </trkpt>
      <trkpt lat="45.99731" lon="4.56209">
        <ele>770.6</ele>
        <time>2021-09-08T12:33:43Z</time>
      </trkpt>
      <trkpt lat="45.99728" lon="4.56212">
        <ele>771</ele>
        <time>2021-09-08T12:33:45Z</time>
      </trkpt>
      <trkpt lat="45.99726" lon="4.56215">
        <ele>771.6</ele>
        <time>2021-09-08T12:33:47Z</time>
      </trkpt>
      <trkpt lat="45.99721" lon="4.5622">
        <ele>772.4</ele>
        <time>2021-09-08T12:33:52Z</time>
      </trkpt>
      <trkpt lat="45.99721" lon="4.56223">
        <ele>772.8</ele>
        <time>2021-09-08T12:33:53Z</time>
      </trkpt>
      <trkpt lat="45.99721" lon="4.56224">
        <ele>772.8</ele>
        <time>2021-09-08T12:33:54Z</time>
      </trkpt>
      <trkpt lat="45.99719" lon="4.56233">
        <ele>773.8</ele>
        <time>2021-09-08T12:33:58Z</time>
      </trkpt>
      <trkpt lat="45.99719" lon="4.56237">
        <ele>774.2</ele>
        <time>2021-09-08T12:34:00Z</time>
      </trkpt>
      <trkpt lat="45.99719" lon="4.56242">
        <ele>774.6</ele>
        <time>2021-09-08T12:34:02Z</time>
      </trkpt>
      <trkpt lat="45.9972" lon="4.56245">
        <ele>774.8</ele>
        <time>2021-09-08T12:34:03Z</time>
      </trkpt>
      <trkpt lat="45.99722" lon="4.56251">
        <ele>775.4</ele>
        <time>2021-09-08T12:34:05Z</time>
      </trkpt>
      <trkpt lat="45.99722" lon="4.56258">
        <ele>775.6</ele>
        <time>2021-09-08T12:34:07Z</time>
      </trkpt>
      <trkpt lat="45.99722" lon="4.56267">
        <ele>775.8</ele>
        <time>2021-09-08T12:34:10Z</time>
      </trkpt>
      <trkpt lat="45.99722" lon="4.56274">
        <ele>775.8</ele>
        <time>2021-09-08T12:34:12Z</time>
      </trkpt>
      <trkpt lat="45.99723" lon="4.56281">
        <ele>776.2</ele>
        <time>2021-09-08T12:34:14Z</time>
      </trkpt>
      <trkpt lat="45.99726" lon="4.5629">
        <ele>776.4</ele>
        <time>2021-09-08T12:34:16Z</time>
      </trkpt>
      <trkpt lat="45.99736" lon="4.56308">
        <ele>776.8</ele>
        <time>2021-09-08T12:34:21Z</time>
      </trkpt>
      <trkpt lat="45.99737" lon="4.56317">
        <ele>776.8</ele>
        <time>2021-09-08T12:34:24Z</time>
      </trkpt>
      <trkpt lat="45.99733" lon="4.56325">
        <ele>777</ele>
        <time>2021-09-08T12:34:26Z</time>
      </trkpt>
      <trkpt lat="45.99727" lon="4.56332">
        <ele>777.4</ele>
        <time>2021-09-08T12:34:31Z</time>
      </trkpt>
      <trkpt lat="45.9972" lon="4.56336">
        <ele>777.8</ele>
        <time>2021-09-08T12:34:35Z</time>
      </trkpt>
      <trkpt lat="45.99717" lon="4.56337">
        <ele>778.2</ele>
        <time>2021-09-08T12:34:36Z</time>
      </trkpt>
      <trkpt lat="45.99712" lon="4.56342">
        <ele>779.4</ele>
        <time>2021-09-08T12:34:38Z</time>
      </trkpt>
      <trkpt lat="45.99709" lon="4.56347">
        <ele>779.8</ele>
        <time>2021-09-08T12:34:39Z</time>
      </trkpt>
      <trkpt lat="45.99705" lon="4.56355">
        <ele>780.6</ele>
        <time>2021-09-08T12:34:42Z</time>
      </trkpt>
      <trkpt lat="45.99703" lon="4.5636">
        <ele>781.8</ele>
        <time>2021-09-08T12:34:45Z</time>
      </trkpt>
      <trkpt lat="45.99702" lon="4.56363">
        <ele>781.8</ele>
        <time>2021-09-08T12:34:46Z</time>
      </trkpt>
      <trkpt lat="45.997" lon="4.56367">
        <ele>782.6</ele>
        <time>2021-09-08T12:34:48Z</time>
      </trkpt>
      <trkpt lat="45.99698" lon="4.56372">
        <ele>783.2</ele>
        <time>2021-09-08T12:34:50Z</time>
      </trkpt>
      <trkpt lat="45.99697" lon="4.56373">
        <ele>783.6</ele>
        <time>2021-09-08T12:34:51Z</time>
      </trkpt>
      <trkpt lat="45.99697" lon="4.56375">
        <ele>784.2</ele>
        <time>2021-09-08T12:34:52Z</time>
      </trkpt>
      <trkpt lat="45.99697" lon="4.56377">
        <ele>784.4</ele>
        <time>2021-09-08T12:34:53Z</time>
      </trkpt>
      <trkpt lat="45.99697" lon="4.56387">
        <ele>785.4</ele>
        <time>2021-09-08T12:34:56Z</time>
      </trkpt>
      <trkpt lat="45.99697" lon="4.5639">
        <ele>785.8</ele>
        <time>2021-09-08T12:34:57Z</time>
      </trkpt>
      <trkpt lat="45.99698" lon="4.56403">
        <ele>786.4</ele>
        <time>2021-09-08T12:35:02Z</time>
      </trkpt>
      <trkpt lat="45.99698" lon="4.56408">
        <ele>787</ele>
        <time>2021-09-08T12:35:04Z</time>
      </trkpt>
      <trkpt lat="45.99695" lon="4.56417">
        <ele>787.8</ele>
        <time>2021-09-08T12:35:08Z</time>
      </trkpt>
      <trkpt lat="45.99693" lon="4.56421">
        <ele>788</ele>
        <time>2021-09-08T12:35:09Z</time>
      </trkpt>
      <trkpt lat="45.99688" lon="4.56429">
        <ele>789.4</ele>
        <time>2021-09-08T12:35:14Z</time>
      </trkpt>
      <trkpt lat="45.99686" lon="4.56432">
        <ele>789.6</ele>
        <time>2021-09-08T12:35:15Z</time>
      </trkpt>
      <trkpt lat="45.99685" lon="4.56437">
        <ele>790</ele>
        <time>2021-09-08T12:35:17Z</time>
      </trkpt>
      <trkpt lat="45.99685" lon="4.56439">
        <ele>790.4</ele>
        <time>2021-09-08T12:35:18Z</time>
      </trkpt>
      <trkpt lat="45.99685" lon="4.5644">
        <ele>790.8</ele>
        <time>2021-09-08T12:35:19Z</time>
      </trkpt>
      <trkpt lat="45.99685" lon="4.5644">
        <ele>790.8</ele>
        <time>2021-09-08T12:35:20Z</time>
      </trkpt>
      <trkpt lat="45.99685" lon="4.56446">
        <ele>791.6</ele>
        <time>2021-09-08T12:35:23Z</time>
      </trkpt>
      <trkpt lat="45.99684" lon="4.5645">
        <ele>791.8</ele>
        <time>2021-09-08T12:35:25Z</time>
      </trkpt>
      <trkpt lat="45.99683" lon="4.56454">
        <ele>792</ele>
        <time>2021-09-08T12:35:27Z</time>
      </trkpt>
      <trkpt lat="45.99684" lon="4.56459">
        <ele>792.6</ele>
        <time>2021-09-08T12:35:30Z</time>
      </trkpt>
      <trkpt lat="45.99685" lon="4.56461">
        <ele>792.8</ele>
        <time>2021-09-08T12:35:32Z</time>
      </trkpt>
      <trkpt lat="45.99684" lon="4.56464">
        <ele>793.8</ele>
        <time>2021-09-08T12:35:35Z</time>
      </trkpt>
      <trkpt lat="45.99684" lon="4.56465">
        <ele>794</ele>
        <time>2021-09-08T12:35:36Z</time>
      </trkpt>
      <trkpt lat="45.99678" lon="4.56474">
        <ele>795</ele>
        <time>2021-09-08T12:35:40Z</time>
      </trkpt>
      <trkpt lat="45.99675" lon="4.5648">
        <ele>796</ele>
        <time>2021-09-08T12:35:43Z</time>
      </trkpt>
      <trkpt lat="45.99674" lon="4.56482">
        <ele>796.4</ele>
        <time>2021-09-08T12:35:44Z</time>
      </trkpt>
      <trkpt lat="45.99669" lon="4.56488">
        <ele>797.4</ele>
        <time>2021-09-08T12:35:48Z</time>
      </trkpt>
      <trkpt lat="45.99668" lon="4.5649">
        <ele>798.2</ele>
        <time>2021-09-08T12:35:49Z</time>
      </trkpt>
      <trkpt lat="45.99667" lon="4.56493">
        <ele>798.6</ele>
        <time>2021-09-08T12:35:50Z</time>
      </trkpt>
      <trkpt lat="45.99663" lon="4.56499">
        <ele>799.8</ele>
        <time>2021-09-08T12:35:53Z</time>
      </trkpt>
      <trkpt lat="45.99661" lon="4.56501">
        <ele>800.4</ele>
        <time>2021-09-08T12:35:54Z</time>
      </trkpt>
      <trkpt lat="45.9966" lon="4.56502">
        <ele>801</ele>
        <time>2021-09-08T12:35:56Z</time>
      </trkpt>
      <trkpt lat="45.99653" lon="4.56507">
        <ele>802.2</ele>
        <time>2021-09-08T12:35:59Z</time>
      </trkpt>
      <trkpt lat="45.99647" lon="4.56513">
        <ele>802.8</ele>
        <time>2021-09-08T12:36:02Z</time>
      </trkpt>
      <trkpt lat="45.99646" lon="4.56515">
        <ele>803.4</ele>
        <time>2021-09-08T12:36:04Z</time>
      </trkpt>
      <trkpt lat="45.99642" lon="4.5652">
        <ele>804.8</ele>
        <time>2021-09-08T12:36:08Z</time>
      </trkpt>
      <trkpt lat="45.9964" lon="4.56523">
        <ele>805.6</ele>
        <time>2021-09-08T12:36:10Z</time>
      </trkpt>
      <trkpt lat="45.9964" lon="4.56524">
        <ele>806.2</ele>
        <time>2021-09-08T12:36:11Z</time>
      </trkpt>
      <trkpt lat="45.99637" lon="4.56528">
        <ele>807</ele>
        <time>2021-09-08T12:36:13Z</time>
      </trkpt>
      <trkpt lat="45.99634" lon="4.56531">
        <ele>807.6</ele>
        <time>2021-09-08T12:36:15Z</time>
      </trkpt>
      <trkpt lat="45.99631" lon="4.56533">
        <ele>807.8</ele>
        <time>2021-09-08T12:36:17Z</time>
      </trkpt>
      <trkpt lat="45.99628" lon="4.56536">
        <ele>808.4</ele>
        <time>2021-09-08T12:36:19Z</time>
      </trkpt>
      <trkpt lat="45.99628" lon="4.56538">
        <ele>809.4</ele>
        <time>2021-09-08T12:36:20Z</time>
      </trkpt>
      <trkpt lat="45.99628" lon="4.56539">
        <ele>810.2</ele>
        <time>2021-09-08T12:36:21Z</time>
      </trkpt>
      <trkpt lat="45.99629" lon="4.56539">
        <ele>810.4</ele>
        <time>2021-09-08T12:36:22Z</time>
      </trkpt>
      <trkpt lat="45.99628" lon="4.5654">
        <ele>811.6</ele>
        <time>2021-09-08T12:36:25Z</time>
      </trkpt>
      <trkpt lat="45.99628" lon="4.5654">
        <ele>811.6</ele>
        <time>2021-09-08T12:36:26Z</time>
      </trkpt>
      <trkpt lat="45.99627" lon="4.56541">
        <ele>812.6</ele>
        <time>2021-09-08T12:36:29Z</time>
      </trkpt>
      <trkpt lat="45.99624" lon="4.56542">
        <ele>813.6</ele>
        <time>2021-09-08T12:36:34Z</time>
      </trkpt>
      <trkpt lat="45.99624" lon="4.56542">
        <ele>814.6</ele>
        <time>2021-09-08T12:36:40Z</time>
      </trkpt>
      <trkpt lat="45.99624" lon="4.56542">
        <ele>815.6</ele>
        <time>2021-09-08T12:36:49Z</time>
      </trkpt>
      <trkpt lat="45.99623" lon="4.56543">
        <ele>816.2</ele>
        <time>2021-09-08T12:36:51Z</time>
      </trkpt>
      <trkpt lat="45.99623" lon="4.56544">
        <ele>816.8</ele>
        <time>2021-09-08T12:36:59Z</time>
      </trkpt>
      <trkpt lat="45.99621" lon="4.56546">
        <ele>816.8</ele>
        <time>2021-09-08T12:37:01Z</time>
      </trkpt>
      <trkpt lat="45.99612" lon="4.56564">
        <ele>817.2</ele>
        <time>2021-09-08T12:37:07Z</time>
      </trkpt>
      <trkpt lat="45.99608" lon="4.56571">
        <ele>817.6</ele>
        <time>2021-09-08T12:37:10Z</time>
      </trkpt>
      <trkpt lat="45.99606" lon="4.56574">
        <ele>817.8</ele>
        <time>2021-09-08T12:37:11Z</time>
      </trkpt>
      <trkpt lat="45.99605" lon="4.56577">
        <ele>817.8</ele>
        <time>2021-09-08T12:37:12Z</time>
      </trkpt>
      <trkpt lat="45.99598" lon="4.56591">
        <ele>818.6</ele>
        <time>2021-09-08T12:37:18Z</time>
      </trkpt>
      <trkpt lat="45.99597" lon="4.56596">
        <ele>818.8</ele>
        <time>2021-09-08T12:37:20Z</time>
      </trkpt>
      <trkpt lat="45.99595" lon="4.56609">
        <ele>820.2</ele>
        <time>2021-09-08T12:37:25Z</time>
      </trkpt>
      <trkpt lat="45.99595" lon="4.56612">
        <ele>820.4</ele>
        <time>2021-09-08T12:37:26Z</time>
      </trkpt>
      <trkpt lat="45.99594" lon="4.56621">
        <ele>821.4</ele>
        <time>2021-09-08T12:37:30Z</time>
      </trkpt>
      <trkpt lat="45.99593" lon="4.56631">
        <ele>821.8</ele>
        <time>2021-09-08T12:37:34Z</time>
      </trkpt>
      <trkpt lat="45.99593" lon="4.56638">
        <ele>822.4</ele>
        <time>2021-09-08T12:37:37Z</time>
      </trkpt>
      <trkpt lat="45.99593" lon="4.5665">
        <ele>823</ele>
        <time>2021-09-08T12:37:42Z</time>
      </trkpt>
      <trkpt lat="45.99593" lon="4.56663">
        <ele>823.4</ele>
        <time>2021-09-08T12:37:48Z</time>
      </trkpt>
      <trkpt lat="45.99593" lon="4.56665">
        <ele>823.6</ele>
        <time>2021-09-08T12:37:50Z</time>
      </trkpt>
      <trkpt lat="45.99593" lon="4.56666">
        <ele>823.8</ele>
        <time>2021-09-08T12:37:56Z</time>
      </trkpt>
      <trkpt lat="45.99593" lon="4.56666">
        <ele>823.4</ele>
        <time>2021-09-08T12:38:04Z</time>
      </trkpt>
      <trkpt lat="45.99593" lon="4.56666">
        <ele>824.2</ele>
        <time>2021-09-08T12:38:36Z</time>
      </trkpt>
      <trkpt lat="45.99593" lon="4.56666">
        <ele>824.8</ele>
        <time>2021-09-08T12:39:18Z</time>
      </trkpt>
      <trkpt lat="45.99593" lon="4.56666">
        <ele>825.2</ele>
        <time>2021-09-08T12:39:41Z</time>
      </trkpt>
      <trkpt lat="45.99593" lon="4.56666">
        <ele>826.2</ele>
        <time>2021-09-08T12:40:08Z</time>
      </trkpt>
      <trkpt lat="45.99593" lon="4.56666">
        <ele>827.4</ele>
        <time>2021-09-08T12:40:31Z</time>
      </trkpt>
      <trkpt lat="45.99593" lon="4.56666">
        <ele>826</ele>
        <time>2021-09-08T12:42:06Z</time>
      </trkpt>
      <trkpt lat="45.99593" lon="4.56666">
        <ele>825</ele>
        <time>2021-09-08T12:42:27Z</time>
      </trkpt>
      <trkpt lat="45.99593" lon="4.56666">
        <ele>826</ele>
        <time>2021-09-08T12:43:09Z</time>
      </trkpt>
      <trkpt lat="45.99593" lon="4.56666">
        <ele>825.8</ele>
        <time>2021-09-08T12:43:26Z</time>
      </trkpt>
      <trkpt lat="45.99593" lon="4.56666">
        <ele>825</ele>
        <time>2021-09-08T12:44:37Z</time>
      </trkpt>
      <trkpt lat="45.99593" lon="4.56666">
        <ele>826.2</ele>
        <time>2021-09-08T12:45:49Z</time>
      </trkpt>
      <trkpt lat="45.99593" lon="4.56666">
        <ele>827.2</ele>
        <time>2021-09-08T12:47:14Z</time>
      </trkpt>
      <trkpt lat="45.99593" lon="4.56666">
        <ele>826</ele>
        <time>2021-09-08T12:48:14Z</time>
      </trkpt>
      <trkpt lat="45.99593" lon="4.56666">
        <ele>827</ele>
        <time>2021-09-08T12:48:46Z</time>
      </trkpt>
      <trkpt lat="45.99593" lon="4.56666">
        <ele>826</ele>
        <time>2021-09-08T12:50:21Z</time>
      </trkpt>
      <trkpt lat="45.99593" lon="4.56666">
        <ele>825</ele>
        <time>2021-09-08T12:50:43Z</time>
      </trkpt>
      <trkpt lat="45.99593" lon="4.56666">
        <ele>826</ele>
        <time>2021-09-08T12:51:01Z</time>
      </trkpt>
      <trkpt lat="45.99593" lon="4.56666">
        <ele>827.2</ele>
        <time>2021-09-08T12:53:58Z</time>
      </trkpt>
      <trkpt lat="45.99593" lon="4.56666">
        <ele>828.2</ele>
        <time>2021-09-08T12:54:07Z</time>
      </trkpt>
      <trkpt lat="45.99593" lon="4.56666">
        <ele>827</ele>
        <time>2021-09-08T12:54:40Z</time>
      </trkpt>
      <trkpt lat="45.99593" lon="4.56666">
        <ele>826</ele>
        <time>2021-09-08T12:55:09Z</time>
      </trkpt>
      <trkpt lat="45.99593" lon="4.56666">
        <ele>827</ele>
        <time>2021-09-08T12:55:40Z</time>
      </trkpt>
      <trkpt lat="45.99593" lon="4.56666">
        <ele>827.4</ele>
        <time>2021-09-08T12:55:45Z</time>
      </trkpt>
      <trkpt lat="45.99593" lon="4.56666">
        <ele>827.4</ele>
        <time>2021-09-08T12:55:47Z</time>
      </trkpt>
      <trkpt lat="45.99588" lon="4.56662">
        <ele>827.2</ele>
        <time>2021-09-08T12:55:58Z</time>
      </trkpt>
      <trkpt lat="45.99586" lon="4.56656">
        <ele>827.2</ele>
        <time>2021-09-08T12:56:01Z</time>
      </trkpt>
      <trkpt lat="45.99584" lon="4.56654">
        <ele>827.2</ele>
        <time>2021-09-08T12:56:03Z</time>
      </trkpt>
      <trkpt lat="45.99582" lon="4.56651">
        <ele>827.4</ele>
        <time>2021-09-08T12:56:05Z</time>
      </trkpt>
      <trkpt lat="45.99583" lon="4.56649">
        <ele>827.8</ele>
        <time>2021-09-08T12:56:08Z</time>
      </trkpt>
      <trkpt lat="45.99583" lon="4.56649">
        <ele>828.2</ele>
        <time>2021-09-08T12:56:09Z</time>
      </trkpt>
      <trkpt lat="45.99582" lon="4.56648">
        <ele>829.2</ele>
        <time>2021-09-08T12:56:16Z</time>
      </trkpt>
      <trkpt lat="45.99581" lon="4.56647">
        <ele>829.2</ele>
        <time>2021-09-08T12:56:17Z</time>
      </trkpt>
      <trkpt lat="45.99579" lon="4.56645">
        <ele>829.4</ele>
        <time>2021-09-08T12:56:18Z</time>
      </trkpt>
      <trkpt lat="45.99566" lon="4.56645">
        <ele>828.8</ele>
        <time>2021-09-08T12:56:24Z</time>
      </trkpt>
      <trkpt lat="45.99563" lon="4.56646">
        <ele>828</ele>
        <time>2021-09-08T12:56:27Z</time>
      </trkpt>
      <trkpt lat="45.99562" lon="4.56646">
        <ele>827</ele>
        <time>2021-09-08T12:56:30Z</time>
      </trkpt>
      <trkpt lat="45.99562" lon="4.56646">
        <ele>827</ele>
        <time>2021-09-08T12:56:31Z</time>
      </trkpt>
      <trkpt lat="45.99562" lon="4.56646">
        <ele>825.8</ele>
        <time>2021-09-08T12:56:39Z</time>
      </trkpt>
      <trkpt lat="45.99557" lon="4.56651">
        <ele>824.6</ele>
        <time>2021-09-08T12:56:47Z</time>
      </trkpt>
      <trkpt lat="45.99545" lon="4.56663">
        <ele>823.6</ele>
        <time>2021-09-08T12:56:53Z</time>
      </trkpt>
      <trkpt lat="45.99527" lon="4.56683">
        <ele>821.6</ele>
        <time>2021-09-08T12:56:59Z</time>
      </trkpt>
      <trkpt lat="45.99516" lon="4.56684">
        <ele>820.4</ele>
        <time>2021-09-08T12:57:02Z</time>
      </trkpt>
      <trkpt lat="45.99507" lon="4.56678">
        <ele>819.2</ele>
        <time>2021-09-08T12:57:04Z</time>
      </trkpt>
      <trkpt lat="45.995" lon="4.5667">
        <ele>818.4</ele>
        <time>2021-09-08T12:57:06Z</time>
      </trkpt>
      <trkpt lat="45.99495" lon="4.56663">
        <ele>818.2</ele>
        <time>2021-09-08T12:57:07Z</time>
      </trkpt>
      <trkpt lat="45.9948" lon="4.56645">
        <ele>817.2</ele>
        <time>2021-09-08T12:57:10Z</time>
      </trkpt>
      <trkpt lat="45.99476" lon="4.5664">
        <ele>816.4</ele>
        <time>2021-09-08T12:57:11Z</time>
      </trkpt>
      <trkpt lat="45.99471" lon="4.56631">
        <ele>816</ele>
        <time>2021-09-08T12:57:12Z</time>
      </trkpt>
      <trkpt lat="45.99467" lon="4.56624">
        <ele>814.8</ele>
        <time>2021-09-08T12:57:13Z</time>
      </trkpt>
      <trkpt lat="45.99461" lon="4.56614">
        <ele>814</ele>
        <time>2021-09-08T12:57:15Z</time>
      </trkpt>
      <trkpt lat="45.99456" lon="4.5661">
        <ele>813.4</ele>
        <time>2021-09-08T12:57:16Z</time>
      </trkpt>
      <trkpt lat="45.99453" lon="4.56606">
        <ele>813.2</ele>
        <time>2021-09-08T12:57:17Z</time>
      </trkpt>
      <trkpt lat="45.99451" lon="4.56601">
        <ele>812.2</ele>
        <time>2021-09-08T12:57:18Z</time>
      </trkpt>
      <trkpt lat="45.99448" lon="4.56596">
        <ele>811.6</ele>
        <time>2021-09-08T12:57:19Z</time>
      </trkpt>
      <trkpt lat="45.99446" lon="4.56593">
        <ele>809.8</ele>
        <time>2021-09-08T12:57:20Z</time>
      </trkpt>
      <trkpt lat="45.99442" lon="4.56588">
        <ele>809</ele>
        <time>2021-09-08T12:57:21Z</time>
      </trkpt>
      <trkpt lat="45.99438" lon="4.56585">
        <ele>807.6</ele>
        <time>2021-09-08T12:57:22Z</time>
      </trkpt>
      <trkpt lat="45.99436" lon="4.56582">
        <ele>806.4</ele>
        <time>2021-09-08T12:57:23Z</time>
      </trkpt>
      <trkpt lat="45.99432" lon="4.56579">
        <ele>806</ele>
        <time>2021-09-08T12:57:24Z</time>
      </trkpt>
      <trkpt lat="45.99429" lon="4.56575">
        <ele>805.2</ele>
        <time>2021-09-08T12:57:25Z</time>
      </trkpt>
      <trkpt lat="45.99421" lon="4.56564">
        <ele>803.8</ele>
        <time>2021-09-08T12:57:28Z</time>
      </trkpt>
      <trkpt lat="45.99418" lon="4.56557">
        <ele>802.6</ele>
        <time>2021-09-08T12:57:29Z</time>
      </trkpt>
      <trkpt lat="45.99416" lon="4.5655">
        <ele>801</ele>
        <time>2021-09-08T12:57:30Z</time>
      </trkpt>
      <trkpt lat="45.99413" lon="4.56535">
        <ele>799.2</ele>
        <time>2021-09-08T12:57:32Z</time>
      </trkpt>
      <trkpt lat="45.99408" lon="4.5652">
        <ele>798.2</ele>
        <time>2021-09-08T12:57:34Z</time>
      </trkpt>
      <trkpt lat="45.994" lon="4.56505">
        <ele>797.2</ele>
        <time>2021-09-08T12:57:37Z</time>
      </trkpt>
      <trkpt lat="45.99394" lon="4.56493">
        <ele>795.8</ele>
        <time>2021-09-08T12:57:39Z</time>
      </trkpt>
      <trkpt lat="45.99392" lon="4.56486">
        <ele>794.4</ele>
        <time>2021-09-08T12:57:40Z</time>
      </trkpt>
      <trkpt lat="45.9939" lon="4.56478">
        <ele>794</ele>
        <time>2021-09-08T12:57:41Z</time>
      </trkpt>
      <trkpt lat="45.99383" lon="4.56468">
        <ele>793</ele>
        <time>2021-09-08T12:57:43Z</time>
      </trkpt>
      <trkpt lat="45.99376" lon="4.56459">
        <ele>792</ele>
        <time>2021-09-08T12:57:45Z</time>
      </trkpt>
      <trkpt lat="45.99372" lon="4.56456">
        <ele>790</ele>
        <time>2021-09-08T12:57:46Z</time>
      </trkpt>
      <trkpt lat="45.99369" lon="4.56452">
        <ele>789</ele>
        <time>2021-09-08T12:57:47Z</time>
      </trkpt>
      <trkpt lat="45.9936" lon="4.56438">
        <ele>787.8</ele>
        <time>2021-09-08T12:57:50Z</time>
      </trkpt>
      <trkpt lat="45.99358" lon="4.56434">
        <ele>786.6</ele>
        <time>2021-09-08T12:57:51Z</time>
      </trkpt>
      <trkpt lat="45.99355" lon="4.56429">
        <ele>785.6</ele>
        <time>2021-09-08T12:57:52Z</time>
      </trkpt>
      <trkpt lat="45.99351" lon="4.56426">
        <ele>783.4</ele>
        <time>2021-09-08T12:57:54Z</time>
      </trkpt>
      <trkpt lat="45.99351" lon="4.56426">
        <ele>782.6</ele>
        <time>2021-09-08T12:57:55Z</time>
      </trkpt>
      <trkpt lat="45.99349" lon="4.56427">
        <ele>781.4</ele>
        <time>2021-09-08T12:57:56Z</time>
      </trkpt>
      <trkpt lat="45.99347" lon="4.56427">
        <ele>780.8</ele>
        <time>2021-09-08T12:57:57Z</time>
      </trkpt>
      <trkpt lat="45.99343" lon="4.56428">
        <ele>779.8</ele>
        <time>2021-09-08T12:57:58Z</time>
      </trkpt>
      <trkpt lat="45.9934" lon="4.56429">
        <ele>779</ele>
        <time>2021-09-08T12:57:59Z</time>
      </trkpt>
      <trkpt lat="45.99339" lon="4.56431">
        <ele>778.6</ele>
        <time>2021-09-08T12:58:00Z</time>
      </trkpt>
      <trkpt lat="45.99337" lon="4.56435">
        <ele>777.8</ele>
        <time>2021-09-08T12:58:02Z</time>
      </trkpt>
      <trkpt lat="45.99336" lon="4.56437">
        <ele>777.4</ele>
        <time>2021-09-08T12:58:03Z</time>
      </trkpt>
      <trkpt lat="45.99336" lon="4.56438">
        <ele>777</ele>
        <time>2021-09-08T12:58:04Z</time>
      </trkpt>
      <trkpt lat="45.99335" lon="4.56441">
        <ele>776</ele>
        <time>2021-09-08T12:58:06Z</time>
      </trkpt>
      <trkpt lat="45.99334" lon="4.56443">
        <ele>776</ele>
        <time>2021-09-08T12:58:07Z</time>
      </trkpt>
      <trkpt lat="45.99333" lon="4.56445">
        <ele>775.8</ele>
        <time>2021-09-08T12:58:08Z</time>
      </trkpt>
      <trkpt lat="45.9933" lon="4.56448">
        <ele>775.6</ele>
        <time>2021-09-08T12:58:10Z</time>
      </trkpt>
      <trkpt lat="45.99326" lon="4.56451">
        <ele>775.6</ele>
        <time>2021-09-08T12:58:11Z</time>
      </trkpt>
      <trkpt lat="45.99315" lon="4.56457">
        <ele>775</ele>
        <time>2021-09-08T12:58:14Z</time>
      </trkpt>
      <trkpt lat="45.99305" lon="4.56455">
        <ele>774.4</ele>
        <time>2021-09-08T12:58:16Z</time>
      </trkpt>
      <trkpt lat="45.99295" lon="4.56452">
        <ele>773.6</ele>
        <time>2021-09-08T12:58:18Z</time>
      </trkpt>
      <trkpt lat="45.99282" lon="4.56446">
        <ele>772.6</ele>
        <time>2021-09-08T12:58:20Z</time>
      </trkpt>
      <trkpt lat="45.99275" lon="4.56444">
        <ele>772.2</ele>
        <time>2021-09-08T12:58:21Z</time>
      </trkpt>
      <trkpt lat="45.99261" lon="4.56442">
        <ele>771.2</ele>
        <time>2021-09-08T12:58:23Z</time>
      </trkpt>
      <trkpt lat="45.99248" lon="4.56438">
        <ele>770.2</ele>
        <time>2021-09-08T12:58:25Z</time>
      </trkpt>
      <trkpt lat="45.99241" lon="4.56436">
        <ele>769.2</ele>
        <time>2021-09-08T12:58:26Z</time>
      </trkpt>
      <trkpt lat="45.99234" lon="4.56433">
        <ele>768</ele>
        <time>2021-09-08T12:58:27Z</time>
      </trkpt>
      <trkpt lat="45.99223" lon="4.56427">
        <ele>767</ele>
        <time>2021-09-08T12:58:29Z</time>
      </trkpt>
      <trkpt lat="45.99217" lon="4.56426">
        <ele>765.8</ele>
        <time>2021-09-08T12:58:30Z</time>
      </trkpt>
      <trkpt lat="45.99208" lon="4.56421">
        <ele>764.2</ele>
        <time>2021-09-08T12:58:32Z</time>
      </trkpt>
      <trkpt lat="45.992" lon="4.56413">
        <ele>762.4</ele>
        <time>2021-09-08T12:58:34Z</time>
      </trkpt>
      <trkpt lat="45.99197" lon="4.5641">
        <ele>761.4</ele>
        <time>2021-09-08T12:58:35Z</time>
      </trkpt>
      <trkpt lat="45.99182" lon="4.56402">
        <ele>760.2</ele>
        <time>2021-09-08T12:58:37Z</time>
      </trkpt>
      <trkpt lat="45.99177" lon="4.564">
        <ele>759.4</ele>
        <time>2021-09-08T12:58:38Z</time>
      </trkpt>
      <trkpt lat="45.99174" lon="4.56401">
        <ele>758.6</ele>
        <time>2021-09-08T12:58:39Z</time>
      </trkpt>
      <trkpt lat="45.99165" lon="4.56409">
        <ele>756.8</ele>
        <time>2021-09-08T12:58:41Z</time>
      </trkpt>
      <trkpt lat="45.99156" lon="4.56412">
        <ele>755.8</ele>
        <time>2021-09-08T12:58:42Z</time>
      </trkpt>
      <trkpt lat="45.9915" lon="4.56414">
        <ele>755</ele>
        <time>2021-09-08T12:58:43Z</time>
      </trkpt>
      <trkpt lat="45.99146" lon="4.56415">
        <ele>754</ele>
        <time>2021-09-08T12:58:44Z</time>
      </trkpt>
      <trkpt lat="45.99139" lon="4.56418">
        <ele>753.6</ele>
        <time>2021-09-08T12:58:45Z</time>
      </trkpt>
      <trkpt lat="45.99135" lon="4.56422">
        <ele>752.4</ele>
        <time>2021-09-08T12:58:46Z</time>
      </trkpt>
      <trkpt lat="45.99126" lon="4.56428">
        <ele>750.8</ele>
        <time>2021-09-08T12:58:47Z</time>
      </trkpt>
      <trkpt lat="45.99118" lon="4.56436">
        <ele>749</ele>
        <time>2021-09-08T12:58:49Z</time>
      </trkpt>
      <trkpt lat="45.99105" lon="4.56445">
        <ele>746.8</ele>
        <time>2021-09-08T12:58:51Z</time>
      </trkpt>
      <trkpt lat="45.99096" lon="4.56451">
        <ele>744.6</ele>
        <time>2021-09-08T12:58:53Z</time>
      </trkpt>
      <trkpt lat="45.99091" lon="4.56455">
        <ele>743.4</ele>
        <time>2021-09-08T12:58:54Z</time>
      </trkpt>
      <trkpt lat="45.9908" lon="4.56462">
        <ele>742.4</ele>
        <time>2021-09-08T12:58:56Z</time>
      </trkpt>
      <trkpt lat="45.99076" lon="4.56466">
        <ele>742</ele>
        <time>2021-09-08T12:58:57Z</time>
      </trkpt>
      <trkpt lat="45.99074" lon="4.5647">
        <ele>740.4</ele>
        <time>2021-09-08T12:58:58Z</time>
      </trkpt>
      <trkpt lat="45.99064" lon="4.56482">
        <ele>739.2</ele>
        <time>2021-09-08T12:59:00Z</time>
      </trkpt>
      <trkpt lat="45.99055" lon="4.56492">
        <ele>738.6</ele>
        <time>2021-09-08T12:59:02Z</time>
      </trkpt>
      <trkpt lat="45.9905" lon="4.56497">
        <ele>737.8</ele>
        <time>2021-09-08T12:59:03Z</time>
      </trkpt>
      <trkpt lat="45.99038" lon="4.56507">
        <ele>736.8</ele>
        <time>2021-09-08T12:59:05Z</time>
      </trkpt>
      <trkpt lat="45.99032" lon="4.56512">
        <ele>735.8</ele>
        <time>2021-09-08T12:59:06Z</time>
      </trkpt>
      <trkpt lat="45.99027" lon="4.56515">
        <ele>735.4</ele>
        <time>2021-09-08T12:59:07Z</time>
      </trkpt>
      <trkpt lat="45.99018" lon="4.56521">
        <ele>734.4</ele>
        <time>2021-09-08T12:59:09Z</time>
      </trkpt>
      <trkpt lat="45.99014" lon="4.56525">
        <ele>734.2</ele>
        <time>2021-09-08T12:59:10Z</time>
      </trkpt>
      <trkpt lat="45.99007" lon="4.56534">
        <ele>733.2</ele>
        <time>2021-09-08T12:59:12Z</time>
      </trkpt>
      <trkpt lat="45.99002" lon="4.56539">
        <ele>732</ele>
        <time>2021-09-08T12:59:13Z</time>
      </trkpt>
      <trkpt lat="45.98995" lon="4.56547">
        <ele>730.4</ele>
        <time>2021-09-08T12:59:15Z</time>
      </trkpt>
      <trkpt lat="45.98988" lon="4.56549">
        <ele>729</ele>
        <time>2021-09-08T12:59:17Z</time>
      </trkpt>
      <trkpt lat="45.98979" lon="4.56551">
        <ele>727.8</ele>
        <time>2021-09-08T12:59:19Z</time>
      </trkpt>
      <trkpt lat="45.98975" lon="4.5655">
        <ele>727.4</ele>
        <time>2021-09-08T12:59:20Z</time>
      </trkpt>
      <trkpt lat="45.98966" lon="4.56546">
        <ele>726</ele>
        <time>2021-09-08T12:59:22Z</time>
      </trkpt>
      <trkpt lat="45.9896" lon="4.56542">
        <ele>723.8</ele>
        <time>2021-09-08T12:59:24Z</time>
      </trkpt>
      <trkpt lat="45.98958" lon="4.56541">
        <ele>722</ele>
        <time>2021-09-08T12:59:25Z</time>
      </trkpt>
      <trkpt lat="45.98955" lon="4.56541">
        <ele>721</ele>
        <time>2021-09-08T12:59:26Z</time>
      </trkpt>
      <trkpt lat="45.98953" lon="4.5654">
        <ele>720</ele>
        <time>2021-09-08T12:59:27Z</time>
      </trkpt>
      <trkpt lat="45.98948" lon="4.56539">
        <ele>718.8</ele>
        <time>2021-09-08T12:59:29Z</time>
      </trkpt>
      <trkpt lat="45.98942" lon="4.56539">
        <ele>718.2</ele>
        <time>2021-09-08T12:59:31Z</time>
      </trkpt>
      <trkpt lat="45.9894" lon="4.56539">
        <ele>717.6</ele>
        <time>2021-09-08T12:59:32Z</time>
      </trkpt>
      <trkpt lat="45.98934" lon="4.56542">
        <ele>716.4</ele>
        <time>2021-09-08T12:59:34Z</time>
      </trkpt>
      <trkpt lat="45.9893" lon="4.56544">
        <ele>715.2</ele>
        <time>2021-09-08T12:59:35Z</time>
      </trkpt>
      <trkpt lat="45.98926" lon="4.56545">
        <ele>714.2</ele>
        <time>2021-09-08T12:59:36Z</time>
      </trkpt>
      <trkpt lat="45.98923" lon="4.56546">
        <ele>713.4</ele>
        <time>2021-09-08T12:59:37Z</time>
      </trkpt>
      <trkpt lat="45.98921" lon="4.56546">
        <ele>713</ele>
        <time>2021-09-08T12:59:38Z</time>
      </trkpt>
      <trkpt lat="45.98917" lon="4.56546">
        <ele>711.8</ele>
        <time>2021-09-08T12:59:39Z</time>
      </trkpt>
      <trkpt lat="45.9891" lon="4.56543">
        <ele>710</ele>
        <time>2021-09-08T12:59:41Z</time>
      </trkpt>
      <trkpt lat="45.98906" lon="4.56541">
        <ele>709.2</ele>
        <time>2021-09-08T12:59:42Z</time>
      </trkpt>
      <trkpt lat="45.98903" lon="4.5654">
        <ele>708</ele>
        <time>2021-09-08T12:59:43Z</time>
      </trkpt>
      <trkpt lat="45.98898" lon="4.56536">
        <ele>706.6</ele>
        <time>2021-09-08T12:59:45Z</time>
      </trkpt>
      <trkpt lat="45.98894" lon="4.56532">
        <ele>705.2</ele>
        <time>2021-09-08T12:59:47Z</time>
      </trkpt>
      <trkpt lat="45.9889" lon="4.56528">
        <ele>703.8</ele>
        <time>2021-09-08T12:59:49Z</time>
      </trkpt>
      <trkpt lat="45.98888" lon="4.56526">
        <ele>703.4</ele>
        <time>2021-09-08T12:59:50Z</time>
      </trkpt>
      <trkpt lat="45.98884" lon="4.56522">
        <ele>702.6</ele>
        <time>2021-09-08T12:59:52Z</time>
      </trkpt>
      <trkpt lat="45.98881" lon="4.56522">
        <ele>701.8</ele>
        <time>2021-09-08T12:59:53Z</time>
      </trkpt>
      <trkpt lat="45.98879" lon="4.56523">
        <ele>701.6</ele>
        <time>2021-09-08T12:59:54Z</time>
      </trkpt>
      <trkpt lat="45.98878" lon="4.56526">
        <ele>701</ele>
        <time>2021-09-08T12:59:55Z</time>
      </trkpt>
      <trkpt lat="45.98879" lon="4.56535">
        <ele>700.4</ele>
        <time>2021-09-08T12:59:57Z</time>
      </trkpt>
      <trkpt lat="45.98885" lon="4.56544">
        <ele>700</ele>
        <time>2021-09-08T13:00:00Z</time>
      </trkpt>
      <trkpt lat="45.98888" lon="4.56551">
        <ele>699.4</ele>
        <time>2021-09-08T13:00:02Z</time>
      </trkpt>
      <trkpt lat="45.9889" lon="4.5656">
        <ele>698.6</ele>
        <time>2021-09-08T13:00:05Z</time>
      </trkpt>
      <trkpt lat="45.98889" lon="4.56568">
        <ele>698</ele>
        <time>2021-09-08T13:00:07Z</time>
      </trkpt>
      <trkpt lat="45.9889" lon="4.56573">
        <ele>698.2</ele>
        <time>2021-09-08T13:00:08Z</time>
      </trkpt>
      <trkpt lat="45.98893" lon="4.56583">
        <ele>698.2</ele>
        <time>2021-09-08T13:00:10Z</time>
      </trkpt>
      <trkpt lat="45.98897" lon="4.566">
        <ele>697.8</ele>
        <time>2021-09-08T13:00:12Z</time>
      </trkpt>
      <trkpt lat="45.98899" lon="4.56607">
        <ele>697.6</ele>
        <time>2021-09-08T13:00:13Z</time>
      </trkpt>
      <trkpt lat="45.98901" lon="4.56614">
        <ele>697.4</ele>
        <time>2021-09-08T13:00:14Z</time>
      </trkpt>
      <trkpt lat="45.98904" lon="4.56619">
        <ele>697.2</ele>
        <time>2021-09-08T13:00:15Z</time>
      </trkpt>
      <trkpt lat="45.98919" lon="4.56641">
        <ele>696.6</ele>
        <time>2021-09-08T13:00:19Z</time>
      </trkpt>
      <trkpt lat="45.98927" lon="4.56652">
        <ele>696.4</ele>
        <time>2021-09-08T13:00:21Z</time>
      </trkpt>
      <trkpt lat="45.98931" lon="4.56656">
        <ele>696.4</ele>
        <time>2021-09-08T13:00:22Z</time>
      </trkpt>
      <trkpt lat="45.98945" lon="4.56664">
        <ele>696</ele>
        <time>2021-09-08T13:00:26Z</time>
      </trkpt>
      <trkpt lat="45.98955" lon="4.56671">
        <ele>695.8</ele>
        <time>2021-09-08T13:00:28Z</time>
      </trkpt>
      <trkpt lat="45.98973" lon="4.5669">
        <ele>695.8</ele>
        <time>2021-09-08T13:00:30Z</time>
      </trkpt>
      <trkpt lat="45.98986" lon="4.56704">
        <ele>695.2</ele>
        <time>2021-09-08T13:00:32Z</time>
      </trkpt>
      <trkpt lat="45.98995" lon="4.56709">
        <ele>694.8</ele>
        <time>2021-09-08T13:00:33Z</time>
      </trkpt>
      <trkpt lat="45.99024" lon="4.56729">
        <ele>694</ele>
        <time>2021-09-08T13:00:38Z</time>
      </trkpt>
      <trkpt lat="45.99028" lon="4.56734">
        <ele>693.8</ele>
        <time>2021-09-08T13:00:39Z</time>
      </trkpt>
      <trkpt lat="45.9904" lon="4.56747">
        <ele>693.2</ele>
        <time>2021-09-08T13:00:42Z</time>
      </trkpt>
      <trkpt lat="45.99046" lon="4.56757">
        <ele>693</ele>
        <time>2021-09-08T13:00:44Z</time>
      </trkpt>
      <trkpt lat="45.99053" lon="4.56765">
        <ele>692.8</ele>
        <time>2021-09-08T13:00:46Z</time>
      </trkpt>
      <trkpt lat="45.99064" lon="4.56776">
        <ele>691.8</ele>
        <time>2021-09-08T13:00:49Z</time>
      </trkpt>
      <trkpt lat="45.99067" lon="4.56779">
        <ele>691.2</ele>
        <time>2021-09-08T13:00:50Z</time>
      </trkpt>
      <trkpt lat="45.99075" lon="4.56783">
        <ele>691</ele>
        <time>2021-09-08T13:00:52Z</time>
      </trkpt>
      <trkpt lat="45.99078" lon="4.56782">
        <ele>690.8</ele>
        <time>2021-09-08T13:00:53Z</time>
      </trkpt>
      <trkpt lat="45.99082" lon="4.56778">
        <ele>690.4</ele>
        <time>2021-09-08T13:00:55Z</time>
      </trkpt>
      <trkpt lat="45.99087" lon="4.56773">
        <ele>689.4</ele>
        <time>2021-09-08T13:00:57Z</time>
      </trkpt>
      <trkpt lat="45.99103" lon="4.56764">
        <ele>688.2</ele>
        <time>2021-09-08T13:01:01Z</time>
      </trkpt>
      <trkpt lat="45.99106" lon="4.56763">
        <ele>688.2</ele>
        <time>2021-09-08T13:01:02Z</time>
      </trkpt>
      <trkpt lat="45.99125" lon="4.56754">
        <ele>688</ele>
        <time>2021-09-08T13:01:06Z</time>
      </trkpt>
      <trkpt lat="45.99153" lon="4.56737">
        <ele>688</ele>
        <time>2021-09-08T13:01:11Z</time>
      </trkpt>
      <trkpt lat="45.99172" lon="4.56742">
        <ele>689</ele>
        <time>2021-09-08T13:01:16Z</time>
      </trkpt>
      <trkpt lat="45.99176" lon="4.56746">
        <ele>689.4</ele>
        <time>2021-09-08T13:01:17Z</time>
      </trkpt>
      <trkpt lat="45.99187" lon="4.56765">
        <ele>690.2</ele>
        <time>2021-09-08T13:01:21Z</time>
      </trkpt>
      <trkpt lat="45.99194" lon="4.56786">
        <ele>690.4</ele>
        <time>2021-09-08T13:01:24Z</time>
      </trkpt>
      <trkpt lat="45.99199" lon="4.56799">
        <ele>690.4</ele>
        <time>2021-09-08T13:01:26Z</time>
      </trkpt>
      <trkpt lat="45.99206" lon="4.56826">
        <ele>690.2</ele>
        <time>2021-09-08T13:01:30Z</time>
      </trkpt>
      <trkpt lat="45.99215" lon="4.56852">
        <ele>689.6</ele>
        <time>2021-09-08T13:01:35Z</time>
      </trkpt>
      <trkpt lat="45.99222" lon="4.5688">
        <ele>689.2</ele>
        <time>2021-09-08T13:01:38Z</time>
      </trkpt>
      <trkpt lat="45.99224" lon="4.56887">
        <ele>689.2</ele>
        <time>2021-09-08T13:01:39Z</time>
      </trkpt>
      <trkpt lat="45.99229" lon="4.569">
        <ele>688.8</ele>
        <time>2021-09-08T13:01:41Z</time>
      </trkpt>
      <trkpt lat="45.99235" lon="4.56915">
        <ele>688.4</ele>
        <time>2021-09-08T13:01:44Z</time>
      </trkpt>
      <trkpt lat="45.99238" lon="4.56917">
        <ele>688.2</ele>
        <time>2021-09-08T13:01:45Z</time>
      </trkpt>
      <trkpt lat="45.99258" lon="4.56932">
        <ele>687.8</ele>
        <time>2021-09-08T13:01:50Z</time>
      </trkpt>
      <trkpt lat="45.99268" lon="4.5694">
        <ele>688.2</ele>
        <time>2021-09-08T13:01:52Z</time>
      </trkpt>
      <trkpt lat="45.99277" lon="4.56956">
        <ele>688.4</ele>
        <time>2021-09-08T13:01:54Z</time>
      </trkpt>
      <trkpt lat="45.99284" lon="4.56973">
        <ele>688.8</ele>
        <time>2021-09-08T13:01:58Z</time>
      </trkpt>
      <trkpt lat="45.99285" lon="4.56975">
        <ele>688.8</ele>
        <time>2021-09-08T13:01:59Z</time>
      </trkpt>
      <trkpt lat="45.99289" lon="4.56988">
        <ele>688.8</ele>
        <time>2021-09-08T13:02:02Z</time>
      </trkpt>
      <trkpt lat="45.99295" lon="4.5701">
        <ele>689.2</ele>
        <time>2021-09-08T13:02:06Z</time>
      </trkpt>
      <trkpt lat="45.99295" lon="4.57019">
        <ele>689</ele>
        <time>2021-09-08T13:02:07Z</time>
      </trkpt>
      <trkpt lat="45.99296" lon="4.57038">
        <ele>689.2</ele>
        <time>2021-09-08T13:02:10Z</time>
      </trkpt>
      <trkpt lat="45.99298" lon="4.57062">
        <ele>689.8</ele>
        <time>2021-09-08T13:02:15Z</time>
      </trkpt>
      <trkpt lat="45.99298" lon="4.57073">
        <ele>690.2</ele>
        <time>2021-09-08T13:02:17Z</time>
      </trkpt>
      <trkpt lat="45.993" lon="4.57096">
        <ele>690.6</ele>
        <time>2021-09-08T13:02:22Z</time>
      </trkpt>
      <trkpt lat="45.99301" lon="4.5712">
        <ele>691.2</ele>
        <time>2021-09-08T13:02:26Z</time>
      </trkpt>
      <trkpt lat="45.99302" lon="4.57126">
        <ele>691.4</ele>
        <time>2021-09-08T13:02:27Z</time>
      </trkpt>
      <trkpt lat="45.99303" lon="4.5713">
        <ele>691.6</ele>
        <time>2021-09-08T13:02:28Z</time>
      </trkpt>
      <trkpt lat="45.99304" lon="4.57154">
        <ele>692.2</ele>
        <time>2021-09-08T13:02:32Z</time>
      </trkpt>
      <trkpt lat="45.99304" lon="4.57166">
        <ele>692.4</ele>
        <time>2021-09-08T13:02:34Z</time>
      </trkpt>
      <trkpt lat="45.993" lon="4.57188">
        <ele>692.2</ele>
        <time>2021-09-08T13:02:37Z</time>
      </trkpt>
      <trkpt lat="45.99303" lon="4.57235">
        <ele>691.4</ele>
        <time>2021-09-08T13:02:42Z</time>
      </trkpt>
      <trkpt lat="45.99303" lon="4.57255">
        <ele>691.2</ele>
        <time>2021-09-08T13:02:44Z</time>
      </trkpt>
      <trkpt lat="45.99307" lon="4.5727">
        <ele>690.4</ele>
        <time>2021-09-08T13:02:47Z</time>
      </trkpt>
      <trkpt lat="45.99308" lon="4.57278">
        <ele>689.2</ele>
        <time>2021-09-08T13:02:48Z</time>
      </trkpt>
      <trkpt lat="45.99313" lon="4.57293">
        <ele>687.8</ele>
        <time>2021-09-08T13:02:50Z</time>
      </trkpt>
      <trkpt lat="45.99318" lon="4.57306">
        <ele>685.2</ele>
        <time>2021-09-08T13:02:52Z</time>
      </trkpt>
      <trkpt lat="45.99321" lon="4.57309">
        <ele>684.4</ele>
        <time>2021-09-08T13:02:53Z</time>
      </trkpt>
      <trkpt lat="45.99324" lon="4.57311">
        <ele>683.6</ele>
        <time>2021-09-08T13:02:54Z</time>
      </trkpt>
      <trkpt lat="45.99328" lon="4.57312">
        <ele>683</ele>
        <time>2021-09-08T13:02:55Z</time>
      </trkpt>
      <trkpt lat="45.99337" lon="4.57314">
        <ele>681.2</ele>
        <time>2021-09-08T13:02:57Z</time>
      </trkpt>
      <trkpt lat="45.9934" lon="4.57316">
        <ele>680.8</ele>
        <time>2021-09-08T13:02:58Z</time>
      </trkpt>
      <trkpt lat="45.99342" lon="4.57319">
        <ele>680</ele>
        <time>2021-09-08T13:02:59Z</time>
      </trkpt>
      <trkpt lat="45.99345" lon="4.5732">
        <ele>679.6</ele>
        <time>2021-09-08T13:03:00Z</time>
      </trkpt>
      <trkpt lat="45.99354" lon="4.5732">
        <ele>678.8</ele>
        <time>2021-09-08T13:03:02Z</time>
      </trkpt>
      <trkpt lat="45.99375" lon="4.57321">
        <ele>677.4</ele>
        <time>2021-09-08T13:03:06Z</time>
      </trkpt>
      <trkpt lat="45.9938" lon="4.57321">
        <ele>676</ele>
        <time>2021-09-08T13:03:07Z</time>
      </trkpt>
      <trkpt lat="45.99393" lon="4.57319">
        <ele>674.8</ele>
        <time>2021-09-08T13:03:09Z</time>
      </trkpt>
      <trkpt lat="45.99403" lon="4.57315">
        <ele>673.6</ele>
        <time>2021-09-08T13:03:11Z</time>
      </trkpt>
      <trkpt lat="45.9941" lon="4.57311">
        <ele>672.8</ele>
        <time>2021-09-08T13:03:13Z</time>
      </trkpt>
      <trkpt lat="45.99413" lon="4.57311">
        <ele>672.4</ele>
        <time>2021-09-08T13:03:14Z</time>
      </trkpt>
      <trkpt lat="45.9943" lon="4.57306">
        <ele>671.4</ele>
        <time>2021-09-08T13:03:18Z</time>
      </trkpt>
      <trkpt lat="45.99439" lon="4.57304">
        <ele>670.6</ele>
        <time>2021-09-08T13:03:20Z</time>
      </trkpt>
      <trkpt lat="45.99444" lon="4.57303">
        <ele>670.2</ele>
        <time>2021-09-08T13:03:21Z</time>
      </trkpt>
      <trkpt lat="45.99467" lon="4.57303">
        <ele>669.8</ele>
        <time>2021-09-08T13:03:25Z</time>
      </trkpt>
      <trkpt lat="45.9948" lon="4.57299">
        <ele>669.6</ele>
        <time>2021-09-08T13:03:27Z</time>
      </trkpt>
      <trkpt lat="45.99485" lon="4.57298">
        <ele>669</ele>
        <time>2021-09-08T13:03:28Z</time>
      </trkpt>
      <trkpt lat="45.99493" lon="4.57298">
        <ele>668.8</ele>
        <time>2021-09-08T13:03:29Z</time>
      </trkpt>
      <trkpt lat="45.99499" lon="4.57298">
        <ele>668.4</ele>
        <time>2021-09-08T13:03:30Z</time>
      </trkpt>
      <trkpt lat="45.99505" lon="4.57299">
        <ele>668.2</ele>
        <time>2021-09-08T13:03:31Z</time>
      </trkpt>
      <trkpt lat="45.99513" lon="4.57301">
        <ele>667.8</ele>
        <time>2021-09-08T13:03:32Z</time>
      </trkpt>
      <trkpt lat="45.99519" lon="4.57305">
        <ele>667.2</ele>
        <time>2021-09-08T13:03:33Z</time>
      </trkpt>
      <trkpt lat="45.99524" lon="4.57311">
        <ele>667</ele>
        <time>2021-09-08T13:03:34Z</time>
      </trkpt>
      <trkpt lat="45.99528" lon="4.57316">
        <ele>666.8</ele>
        <time>2021-09-08T13:03:35Z</time>
      </trkpt>
      <trkpt lat="45.99533" lon="4.5733">
        <ele>665.8</ele>
        <time>2021-09-08T13:03:37Z</time>
      </trkpt>
      <trkpt lat="45.99533" lon="4.57338">
        <ele>665.2</ele>
        <time>2021-09-08T13:03:38Z</time>
      </trkpt>
      <trkpt lat="45.99532" lon="4.57348">
        <ele>665</ele>
        <time>2021-09-08T13:03:39Z</time>
      </trkpt>
      <trkpt lat="45.99529" lon="4.57359">
        <ele>664.2</ele>
        <time>2021-09-08T13:03:40Z</time>
      </trkpt>
      <trkpt lat="45.9952" lon="4.57386">
        <ele>663.2</ele>
        <time>2021-09-08T13:03:42Z</time>
      </trkpt>
      <trkpt lat="45.99513" lon="4.57401">
        <ele>661.6</ele>
        <time>2021-09-08T13:03:44Z</time>
      </trkpt>
      <trkpt lat="45.99509" lon="4.5741">
        <ele>660.6</ele>
        <time>2021-09-08T13:03:45Z</time>
      </trkpt>
      <trkpt lat="45.99506" lon="4.57421">
        <ele>659</ele>
        <time>2021-09-08T13:03:47Z</time>
      </trkpt>
      <trkpt lat="45.99504" lon="4.57433">
        <ele>657.6</ele>
        <time>2021-09-08T13:03:49Z</time>
      </trkpt>
      <trkpt lat="45.99502" lon="4.57449">
        <ele>656.4</ele>
        <time>2021-09-08T13:03:51Z</time>
      </trkpt>
      <trkpt lat="45.99502" lon="4.57465">
        <ele>655.6</ele>
        <time>2021-09-08T13:03:53Z</time>
      </trkpt>
      <trkpt lat="45.99502" lon="4.57474">
        <ele>654.6</ele>
        <time>2021-09-08T13:03:54Z</time>
      </trkpt>
      <trkpt lat="45.995" lon="4.5749">
        <ele>653.8</ele>
        <time>2021-09-08T13:03:56Z</time>
      </trkpt>
      <trkpt lat="45.99498" lon="4.57496">
        <ele>653.4</ele>
        <time>2021-09-08T13:03:57Z</time>
      </trkpt>
      <trkpt lat="45.99497" lon="4.57501">
        <ele>653</ele>
        <time>2021-09-08T13:03:58Z</time>
      </trkpt>
      <trkpt lat="45.99497" lon="4.57509">
        <ele>652.6</ele>
        <time>2021-09-08T13:04:00Z</time>
      </trkpt>
      <trkpt lat="45.99494" lon="4.57518">
        <ele>652.2</ele>
        <time>2021-09-08T13:04:02Z</time>
      </trkpt>
      <trkpt lat="45.9949" lon="4.57524">
        <ele>651</ele>
        <time>2021-09-08T13:04:04Z</time>
      </trkpt>
      <trkpt lat="45.9949" lon="4.57524">
        <ele>650.2</ele>
        <time>2021-09-08T13:04:06Z</time>
      </trkpt>
      <trkpt lat="45.9949" lon="4.57524">
        <ele>650</ele>
        <time>2021-09-08T13:04:07Z</time>
      </trkpt>
      <trkpt lat="45.99491" lon="4.57525">
        <ele>648.8</ele>
        <time>2021-09-08T13:04:10Z</time>
      </trkpt>
      <trkpt lat="45.99491" lon="4.57528">
        <ele>648.6</ele>
        <time>2021-09-08T13:04:12Z</time>
      </trkpt>
      <trkpt lat="45.99494" lon="4.57537">
        <ele>647.6</ele>
        <time>2021-09-08T13:04:16Z</time>
      </trkpt>
      <trkpt lat="45.99497" lon="4.57551">
        <ele>647.2</ele>
        <time>2021-09-08T13:04:19Z</time>
      </trkpt>
      <trkpt lat="45.99507" lon="4.57577">
        <ele>647.2</ele>
        <time>2021-09-08T13:04:25Z</time>
      </trkpt>
      <trkpt lat="45.99523" lon="4.57598">
        <ele>647.6</ele>
        <time>2021-09-08T13:04:31Z</time>
      </trkpt>
      <trkpt lat="45.99541" lon="4.57618">
        <ele>647.2</ele>
        <time>2021-09-08T13:04:38Z</time>
      </trkpt>
      <trkpt lat="45.99547" lon="4.57631">
        <ele>646.6</ele>
        <time>2021-09-08T13:04:40Z</time>
      </trkpt>
      <trkpt lat="45.99552" lon="4.57644">
        <ele>645.4</ele>
        <time>2021-09-08T13:04:42Z</time>
      </trkpt>
      <trkpt lat="45.99553" lon="4.57648">
        <ele>645.2</ele>
        <time>2021-09-08T13:04:43Z</time>
      </trkpt>
      <trkpt lat="45.99553" lon="4.57652">
        <ele>644.2</ele>
        <time>2021-09-08T13:04:44Z</time>
      </trkpt>
      <trkpt lat="45.99553" lon="4.57653">
        <ele>643.4</ele>
        <time>2021-09-08T13:04:45Z</time>
      </trkpt>
      <trkpt lat="45.99553" lon="4.57653">
        <ele>642.4</ele>
        <time>2021-09-08T13:04:46Z</time>
      </trkpt>
      <trkpt lat="45.99553" lon="4.57653">
        <ele>641.2</ele>
        <time>2021-09-08T13:04:48Z</time>
      </trkpt>
      <trkpt lat="45.99553" lon="4.57653">
        <ele>640.2</ele>
        <time>2021-09-08T13:04:50Z</time>
      </trkpt>
      <trkpt lat="45.99553" lon="4.57657">
        <ele>639.6</ele>
        <time>2021-09-08T13:04:51Z</time>
      </trkpt>
      <trkpt lat="45.99551" lon="4.57662">
        <ele>639.4</ele>
        <time>2021-09-08T13:04:52Z</time>
      </trkpt>
      <trkpt lat="45.99552" lon="4.57667">
        <ele>639</ele>
        <time>2021-09-08T13:04:53Z</time>
      </trkpt>
      <trkpt lat="45.99552" lon="4.5768">
        <ele>638.4</ele>
        <time>2021-09-08T13:04:55Z</time>
      </trkpt>
      <trkpt lat="45.99552" lon="4.5769">
        <ele>637.8</ele>
        <time>2021-09-08T13:04:56Z</time>
      </trkpt>
      <trkpt lat="45.99556" lon="4.57709">
        <ele>636.6</ele>
        <time>2021-09-08T13:04:58Z</time>
      </trkpt>
      <trkpt lat="45.9956" lon="4.57722">
        <ele>635.8</ele>
        <time>2021-09-08T13:05:00Z</time>
      </trkpt>
      <trkpt lat="45.99562" lon="4.57732">
        <ele>634.8</ele>
        <time>2021-09-08T13:05:01Z</time>
      </trkpt>
      <trkpt lat="45.99566" lon="4.57761">
        <ele>633.2</ele>
        <time>2021-09-08T13:05:03Z</time>
      </trkpt>
      <trkpt lat="45.99568" lon="4.57772">
        <ele>632.8</ele>
        <time>2021-09-08T13:05:04Z</time>
      </trkpt>
      <trkpt lat="45.9957" lon="4.57782">
        <ele>631.8</ele>
        <time>2021-09-08T13:05:05Z</time>
      </trkpt>
      <trkpt lat="45.9957" lon="4.57789">
        <ele>630.8</ele>
        <time>2021-09-08T13:05:06Z</time>
      </trkpt>
      <trkpt lat="45.99573" lon="4.57808">
        <ele>629</ele>
        <time>2021-09-08T13:05:08Z</time>
      </trkpt>
      <trkpt lat="45.99576" lon="4.57818">
        <ele>628.4</ele>
        <time>2021-09-08T13:05:09Z</time>
      </trkpt>
      <trkpt lat="45.99576" lon="4.57827">
        <ele>626.8</ele>
        <time>2021-09-08T13:05:10Z</time>
      </trkpt>
      <trkpt lat="45.99577" lon="4.5784">
        <ele>624.6</ele>
        <time>2021-09-08T13:05:12Z</time>
      </trkpt>
      <trkpt lat="45.99579" lon="4.57845">
        <ele>623.4</ele>
        <time>2021-09-08T13:05:13Z</time>
      </trkpt>
      <trkpt lat="45.99582" lon="4.57856">
        <ele>621.2</ele>
        <time>2021-09-08T13:05:15Z</time>
      </trkpt>
      <trkpt lat="45.99583" lon="4.5787">
        <ele>619.4</ele>
        <time>2021-09-08T13:05:17Z</time>
      </trkpt>
      <trkpt lat="45.99584" lon="4.57879">
        <ele>618.2</ele>
        <time>2021-09-08T13:05:18Z</time>
      </trkpt>
      <trkpt lat="45.99584" lon="4.57886">
        <ele>616.2</ele>
        <time>2021-09-08T13:05:19Z</time>
      </trkpt>
      <trkpt lat="45.99583" lon="4.57895">
        <ele>615.4</ele>
        <time>2021-09-08T13:05:20Z</time>
      </trkpt>
      <trkpt lat="45.99583" lon="4.57905">
        <ele>615</ele>
        <time>2021-09-08T13:05:21Z</time>
      </trkpt>
      <trkpt lat="45.99584" lon="4.57915">
        <ele>613.6</ele>
        <time>2021-09-08T13:05:22Z</time>
      </trkpt>
      <trkpt lat="45.99586" lon="4.57933">
        <ele>611.8</ele>
        <time>2021-09-08T13:05:24Z</time>
      </trkpt>
      <trkpt lat="45.99588" lon="4.57938">
        <ele>610.4</ele>
        <time>2021-09-08T13:05:25Z</time>
      </trkpt>
      <trkpt lat="45.99593" lon="4.57946">
        <ele>608.6</ele>
        <time>2021-09-08T13:05:27Z</time>
      </trkpt>
      <trkpt lat="45.99594" lon="4.57948">
        <ele>608</ele>
        <time>2021-09-08T13:05:28Z</time>
      </trkpt>
      <trkpt lat="45.99595" lon="4.57951">
        <ele>606.6</ele>
        <time>2021-09-08T13:05:29Z</time>
      </trkpt>
      <trkpt lat="45.99597" lon="4.57954">
        <ele>604.6</ele>
        <time>2021-09-08T13:05:31Z</time>
      </trkpt>
      <trkpt lat="45.99597" lon="4.57954">
        <ele>603.6</ele>
        <time>2021-09-08T13:05:32Z</time>
      </trkpt>
      <trkpt lat="45.99597" lon="4.57954">
        <ele>603.2</ele>
        <time>2021-09-08T13:05:33Z</time>
      </trkpt>
      <trkpt lat="45.99597" lon="4.57954">
        <ele>602</ele>
        <time>2021-09-08T13:05:35Z</time>
      </trkpt>
      <trkpt lat="45.99597" lon="4.57954">
        <ele>601</ele>
        <time>2021-09-08T13:05:38Z</time>
      </trkpt>
      <trkpt lat="45.99598" lon="4.57954">
        <ele>600.4</ele>
        <time>2021-09-08T13:05:39Z</time>
      </trkpt>
      <trkpt lat="45.99598" lon="4.57956">
        <ele>599.8</ele>
        <time>2021-09-08T13:05:41Z</time>
      </trkpt>
      <trkpt lat="45.99598" lon="4.57956">
        <ele>598.6</ele>
        <time>2021-09-08T13:05:44Z</time>
      </trkpt>
      <trkpt lat="45.99598" lon="4.57956">
        <ele>598.4</ele>
        <time>2021-09-08T13:05:45Z</time>
      </trkpt>
      <trkpt lat="45.99598" lon="4.57956">
        <ele>597.6</ele>
        <time>2021-09-08T13:05:53Z</time>
      </trkpt>
      <trkpt lat="45.99598" lon="4.57956">
        <ele>596.8</ele>
        <time>2021-09-08T13:06:00Z</time>
      </trkpt>
      <trkpt lat="45.99602" lon="4.5796">
        <ele>596.6</ele>
        <time>2021-09-08T13:06:04Z</time>
      </trkpt>
      <trkpt lat="45.99602" lon="4.5796">
        <ele>596.6</ele>
        <time>2021-09-08T13:06:05Z</time>
      </trkpt>
      <trkpt lat="45.99602" lon="4.5796">
        <ele>595.4</ele>
        <time>2021-09-08T13:06:14Z</time>
      </trkpt>
      <trkpt lat="45.99603" lon="4.57963">
        <ele>594.4</ele>
        <time>2021-09-08T13:06:20Z</time>
      </trkpt>
      <trkpt lat="45.99604" lon="4.57963">
        <ele>593.8</ele>
        <time>2021-09-08T13:07:00Z</time>
      </trkpt>
      <trkpt lat="45.99604" lon="4.57963">
        <ele>594</ele>
        <time>2021-09-08T13:07:04Z</time>
      </trkpt>
      <trkpt lat="45.99614" lon="4.57973">
        <ele>593.4</ele>
        <time>2021-09-08T13:07:31Z</time>
      </trkpt>
      <trkpt lat="45.99618" lon="4.57977">
        <ele>593.2</ele>
        <time>2021-09-08T13:07:32Z</time>
      </trkpt>
      <trkpt lat="45.99625" lon="4.57985">
        <ele>592.6</ele>
        <time>2021-09-08T13:07:34Z</time>
      </trkpt>
      <trkpt lat="45.99627" lon="4.57988">
        <ele>592.4</ele>
        <time>2021-09-08T13:07:35Z</time>
      </trkpt>
      <trkpt lat="45.99629" lon="4.57992">
        <ele>591.8</ele>
        <time>2021-09-08T13:07:37Z</time>
      </trkpt>
      <trkpt lat="45.99632" lon="4.57994">
        <ele>591.6</ele>
        <time>2021-09-08T13:07:38Z</time>
      </trkpt>
      <trkpt lat="45.99636" lon="4.57998">
        <ele>590.6</ele>
        <time>2021-09-08T13:07:40Z</time>
      </trkpt>
      <trkpt lat="45.99637" lon="4.58">
        <ele>589.4</ele>
        <time>2021-09-08T13:07:44Z</time>
      </trkpt>
      <trkpt lat="45.99637" lon="4.58">
        <ele>588.8</ele>
        <time>2021-09-08T13:07:46Z</time>
      </trkpt>
      <trkpt lat="45.99637" lon="4.58">
        <ele>588.4</ele>
        <time>2021-09-08T13:07:48Z</time>
      </trkpt>
      <trkpt lat="45.99645" lon="4.58005">
        <ele>587</ele>
        <time>2021-09-08T13:07:53Z</time>
      </trkpt>
      <trkpt lat="45.99645" lon="4.58005">
        <ele>586.6</ele>
        <time>2021-09-08T13:07:55Z</time>
      </trkpt>
      <trkpt lat="45.99645" lon="4.58005">
        <ele>586</ele>
        <time>2021-09-08T13:07:59Z</time>
      </trkpt>
      <trkpt lat="45.99648" lon="4.58013">
        <ele>585.4</ele>
        <time>2021-09-08T13:08:03Z</time>
      </trkpt>
      <trkpt lat="45.9965" lon="4.58017">
        <ele>585.2</ele>
        <time>2021-09-08T13:08:04Z</time>
      </trkpt>
      <trkpt lat="45.99656" lon="4.58031">
        <ele>584.8</ele>
        <time>2021-09-08T13:08:07Z</time>
      </trkpt>
      <trkpt lat="45.99659" lon="4.58037">
        <ele>584.6</ele>
        <time>2021-09-08T13:08:08Z</time>
      </trkpt>
      <trkpt lat="45.99676" lon="4.58059">
        <ele>584</ele>
        <time>2021-09-08T13:08:12Z</time>
      </trkpt>
      <trkpt lat="45.99682" lon="4.58065">
        <ele>583.2</ele>
        <time>2021-09-08T13:08:13Z</time>
      </trkpt>
      <trkpt lat="45.99687" lon="4.58073">
        <ele>582.6</ele>
        <time>2021-09-08T13:08:14Z</time>
      </trkpt>
      <trkpt lat="45.99692" lon="4.5808">
        <ele>582</ele>
        <time>2021-09-08T13:08:15Z</time>
      </trkpt>
      <trkpt lat="45.99697" lon="4.58086">
        <ele>581.4</ele>
        <time>2021-09-08T13:08:16Z</time>
      </trkpt>
      <trkpt lat="45.99703" lon="4.58095">
        <ele>580.8</ele>
        <time>2021-09-08T13:08:17Z</time>
      </trkpt>
      <trkpt lat="45.99714" lon="4.58112">
        <ele>579</ele>
        <time>2021-09-08T13:08:19Z</time>
      </trkpt>
      <trkpt lat="45.99719" lon="4.5812">
        <ele>578.2</ele>
        <time>2021-09-08T13:08:20Z</time>
      </trkpt>
      <trkpt lat="45.99723" lon="4.58127">
        <ele>577.8</ele>
        <time>2021-09-08T13:08:21Z</time>
      </trkpt>
      <trkpt lat="45.99728" lon="4.58136">
        <ele>576.8</ele>
        <time>2021-09-08T13:08:22Z</time>
      </trkpt>
      <trkpt lat="45.99733" lon="4.58143">
        <ele>576.4</ele>
        <time>2021-09-08T13:08:23Z</time>
      </trkpt>
      <trkpt lat="45.99739" lon="4.58151">
        <ele>575.6</ele>
        <time>2021-09-08T13:08:24Z</time>
      </trkpt>
      <trkpt lat="45.99744" lon="4.58158">
        <ele>574.6</ele>
        <time>2021-09-08T13:08:25Z</time>
      </trkpt>
      <trkpt lat="45.99752" lon="4.58171">
        <ele>573</ele>
        <time>2021-09-08T13:08:27Z</time>
      </trkpt>
      <trkpt lat="45.99762" lon="4.58185">
        <ele>570.6</ele>
        <time>2021-09-08T13:08:29Z</time>
      </trkpt>
      <trkpt lat="45.99767" lon="4.58194">
        <ele>569.8</ele>
        <time>2021-09-08T13:08:30Z</time>
      </trkpt>
      <trkpt lat="45.99772" lon="4.58199">
        <ele>568.6</ele>
        <time>2021-09-08T13:08:31Z</time>
      </trkpt>
      <trkpt lat="45.99779" lon="4.58207">
        <ele>567.4</ele>
        <time>2021-09-08T13:08:32Z</time>
      </trkpt>
      <trkpt lat="45.99789" lon="4.5822">
        <ele>565.8</ele>
        <time>2021-09-08T13:08:34Z</time>
      </trkpt>
      <trkpt lat="45.99799" lon="4.58234">
        <ele>563.8</ele>
        <time>2021-09-08T13:08:36Z</time>
      </trkpt>
      <trkpt lat="45.99805" lon="4.58242">
        <ele>563</ele>
        <time>2021-09-08T13:08:37Z</time>
      </trkpt>
      <trkpt lat="45.9981" lon="4.58248">
        <ele>561.8</ele>
        <time>2021-09-08T13:08:38Z</time>
      </trkpt>
      <trkpt lat="45.99815" lon="4.58253">
        <ele>560.6</ele>
        <time>2021-09-08T13:08:39Z</time>
      </trkpt>
      <trkpt lat="45.99827" lon="4.58261">
        <ele>557.8</ele>
        <time>2021-09-08T13:08:41Z</time>
      </trkpt>
      <trkpt lat="45.99839" lon="4.58266">
        <ele>555.4</ele>
        <time>2021-09-08T13:08:43Z</time>
      </trkpt>
      <trkpt lat="45.99845" lon="4.58268">
        <ele>553.4</ele>
        <time>2021-09-08T13:08:44Z</time>
      </trkpt>
      <trkpt lat="45.99859" lon="4.58275">
        <ele>551.6</ele>
        <time>2021-09-08T13:08:46Z</time>
      </trkpt>
      <trkpt lat="45.99865" lon="4.58277">
        <ele>551</ele>
        <time>2021-09-08T13:08:47Z</time>
      </trkpt>
      <trkpt lat="45.99871" lon="4.58277">
        <ele>549.6</ele>
        <time>2021-09-08T13:08:48Z</time>
      </trkpt>
      <trkpt lat="45.99875" lon="4.58276">
        <ele>548.6</ele>
        <time>2021-09-08T13:08:49Z</time>
      </trkpt>
      <trkpt lat="45.99881" lon="4.58273">
        <ele>547</ele>
        <time>2021-09-08T13:08:50Z</time>
      </trkpt>
      <trkpt lat="45.99884" lon="4.5827">
        <ele>545.4</ele>
        <time>2021-09-08T13:08:51Z</time>
      </trkpt>
      <trkpt lat="45.9989" lon="4.58266">
        <ele>543.4</ele>
        <time>2021-09-08T13:08:53Z</time>
      </trkpt>
      <trkpt lat="45.99891" lon="4.58263">
        <ele>542.2</ele>
        <time>2021-09-08T13:08:54Z</time>
      </trkpt>
      <trkpt lat="45.99893" lon="4.58261">
        <ele>540.6</ele>
        <time>2021-09-08T13:08:55Z</time>
      </trkpt>
      <trkpt lat="45.99895" lon="4.58259">
        <ele>540</ele>
        <time>2021-09-08T13:08:56Z</time>
      </trkpt>
      <trkpt lat="45.99896" lon="4.58259">
        <ele>538.6</ele>
        <time>2021-09-08T13:08:57Z</time>
      </trkpt>
      <trkpt lat="45.99898" lon="4.5826">
        <ele>538</ele>
        <time>2021-09-08T13:08:58Z</time>
      </trkpt>
      <trkpt lat="45.99898" lon="4.58265">
        <ele>537</ele>
        <time>2021-09-08T13:09:00Z</time>
      </trkpt>
      <trkpt lat="45.99897" lon="4.5827">
        <ele>535.8</ele>
        <time>2021-09-08T13:09:02Z</time>
      </trkpt>
      <trkpt lat="45.99895" lon="4.58269">
        <ele>534.6</ele>
        <time>2021-09-08T13:09:04Z</time>
      </trkpt>
      <trkpt lat="45.99896" lon="4.58268">
        <ele>533.8</ele>
        <time>2021-09-08T13:09:05Z</time>
      </trkpt>
      <trkpt lat="45.99896" lon="4.58267">
        <ele>533.6</ele>
        <time>2021-09-08T13:09:06Z</time>
      </trkpt>
      <trkpt lat="45.99897" lon="4.58267">
        <ele>533.2</ele>
        <time>2021-09-08T13:09:07Z</time>
      </trkpt>
      <trkpt lat="45.99898" lon="4.58268">
        <ele>532.2</ele>
        <time>2021-09-08T13:09:09Z</time>
      </trkpt>
      <trkpt lat="45.99898" lon="4.5827">
        <ele>531.8</ele>
        <time>2021-09-08T13:09:10Z</time>
      </trkpt>
      <trkpt lat="45.99893" lon="4.58282">
        <ele>531.4</ele>
        <time>2021-09-08T13:09:14Z</time>
      </trkpt>
      <trkpt lat="45.99888" lon="4.58295">
        <ele>530.6</ele>
        <time>2021-09-08T13:09:17Z</time>
      </trkpt>
      <trkpt lat="45.9988" lon="4.58309">
        <ele>530.2</ele>
        <time>2021-09-08T13:09:20Z</time>
      </trkpt>
      <trkpt lat="45.99868" lon="4.58323">
        <ele>530</ele>
        <time>2021-09-08T13:09:23Z</time>
      </trkpt>
      <trkpt lat="45.9986" lon="4.58331">
        <ele>529.8</ele>
        <time>2021-09-08T13:09:25Z</time>
      </trkpt>
      <trkpt lat="45.99844" lon="4.58341">
        <ele>529.6</ele>
        <time>2021-09-08T13:09:28Z</time>
      </trkpt>
      <trkpt lat="45.9983" lon="4.58348">
        <ele>529.4</ele>
        <time>2021-09-08T13:09:31Z</time>
      </trkpt>
      <trkpt lat="45.99787" lon="4.58366">
        <ele>529.2</ele>
        <time>2021-09-08T13:09:39Z</time>
      </trkpt>
      <trkpt lat="45.99731" lon="4.58382">
        <ele>530</ele>
        <time>2021-09-08T13:09:48Z</time>
      </trkpt>
      <trkpt lat="45.99702" lon="4.58402">
        <ele>529.8</ele>
        <time>2021-09-08T13:09:53Z</time>
      </trkpt>
      <trkpt lat="45.99689" lon="4.58412">
        <ele>529.8</ele>
        <time>2021-09-08T13:09:55Z</time>
      </trkpt>
      <trkpt lat="45.99677" lon="4.58416">
        <ele>529.8</ele>
        <time>2021-09-08T13:09:57Z</time>
      </trkpt>
      <trkpt lat="45.99672" lon="4.58417">
        <ele>529.8</ele>
        <time>2021-09-08T13:09:58Z</time>
      </trkpt>
      <trkpt lat="45.99647" lon="4.58418">
        <ele>529.4</ele>
        <time>2021-09-08T13:10:02Z</time>
      </trkpt>
      <trkpt lat="45.99634" lon="4.58424">
        <ele>529.2</ele>
        <time>2021-09-08T13:10:04Z</time>
      </trkpt>
      <trkpt lat="45.99625" lon="4.58429">
        <ele>529</ele>
        <time>2021-09-08T13:10:06Z</time>
      </trkpt>
      <trkpt lat="45.99607" lon="4.58439">
        <ele>529</ele>
        <time>2021-09-08T13:10:09Z</time>
      </trkpt>
      <trkpt lat="45.99602" lon="4.58441">
        <ele>529</ele>
        <time>2021-09-08T13:10:10Z</time>
      </trkpt>
      <trkpt lat="45.99587" lon="4.5844">
        <ele>529</ele>
        <time>2021-09-08T13:10:13Z</time>
      </trkpt>
      <trkpt lat="45.99556" lon="4.58435">
        <ele>529.2</ele>
        <time>2021-09-08T13:10:19Z</time>
      </trkpt>
      <trkpt lat="45.99552" lon="4.58434">
        <ele>529.4</ele>
        <time>2021-09-08T13:10:20Z</time>
      </trkpt>
      <trkpt lat="45.99546" lon="4.58433">
        <ele>529.6</ele>
        <time>2021-09-08T13:10:21Z</time>
      </trkpt>
      <trkpt lat="45.99537" lon="4.58435">
        <ele>529.8</ele>
        <time>2021-09-08T13:10:23Z</time>
      </trkpt>
      <trkpt lat="45.99534" lon="4.58438">
        <ele>529.8</ele>
        <time>2021-09-08T13:10:24Z</time>
      </trkpt>
      <trkpt lat="45.99527" lon="4.5845">
        <ele>530.2</ele>
        <time>2021-09-08T13:10:27Z</time>
      </trkpt>
      <trkpt lat="45.99526" lon="4.58447">
        <ele>530.2</ele>
        <time>2021-09-08T13:10:30Z</time>
      </trkpt>
      <trkpt lat="45.99527" lon="4.58445">
        <ele>530.2</ele>
        <time>2021-09-08T13:10:31Z</time>
      </trkpt>
      <trkpt lat="45.99528" lon="4.58444">
        <ele>530.4</ele>
        <time>2021-09-08T13:10:32Z</time>
      </trkpt>
      <trkpt lat="45.99534" lon="4.5844">
        <ele>530.4</ele>
        <time>2021-09-08T13:10:36Z</time>
      </trkpt>
      <trkpt lat="45.99536" lon="4.58434">
        <ele>530</ele>
        <time>2021-09-08T13:10:42Z</time>
      </trkpt>
      <trkpt lat="45.99536" lon="4.58434">
        <ele>530.8</ele>
        <time>2021-09-08T13:12:23Z</time>
      </trkpt>
      <trkpt lat="45.99537" lon="4.58434">
        <ele>531</ele>
        <time>2021-09-08T13:12:28Z</time>
      </trkpt>
      <trkpt lat="45.99536" lon="4.58436">
        <ele>531</ele>
        <time>2021-09-08T13:12:30Z</time>
      </trkpt>
      <trkpt lat="45.99531" lon="4.58441">
        <ele>530.8</ele>
        <time>2021-09-08T13:12:33Z</time>
      </trkpt>
      <trkpt lat="45.99528" lon="4.58448">
        <ele>530.8</ele>
        <time>2021-09-08T13:12:35Z</time>
      </trkpt>
      <trkpt lat="45.99521" lon="4.58477">
        <ele>530.8</ele>
        <time>2021-09-08T13:12:42Z</time>
      </trkpt>
      <trkpt lat="45.99509" lon="4.58494">
        <ele>531.6</ele>
        <time>2021-09-08T13:12:47Z</time>
      </trkpt>
      <trkpt lat="45.99506" lon="4.58495">
        <ele>532</ele>
        <time>2021-09-08T13:12:48Z</time>
      </trkpt>
      <trkpt lat="45.99484" lon="4.58508">
        <ele>532.8</ele>
        <time>2021-09-08T13:12:54Z</time>
      </trkpt>
      <trkpt lat="45.99481" lon="4.5851">
        <ele>533.2</ele>
        <time>2021-09-08T13:12:55Z</time>
      </trkpt>
      <trkpt lat="45.99461" lon="4.58523">
        <ele>534.2</ele>
        <time>2021-09-08T13:13:00Z</time>
      </trkpt>
      <trkpt lat="45.99457" lon="4.58526">
        <ele>534.8</ele>
        <time>2021-09-08T13:13:02Z</time>
      </trkpt>
      <trkpt lat="45.99427" lon="4.58545">
        <ele>535.6</ele>
        <time>2021-09-08T13:13:09Z</time>
      </trkpt>
      <trkpt lat="45.99415" lon="4.58554">
        <ele>535.8</ele>
        <time>2021-09-08T13:13:12Z</time>
      </trkpt>
      <trkpt lat="45.99404" lon="4.58561">
        <ele>536</ele>
        <time>2021-09-08T13:13:15Z</time>
      </trkpt>
      <trkpt lat="45.99389" lon="4.58573">
        <ele>536.2</ele>
        <time>2021-09-08T13:13:19Z</time>
      </trkpt>
      <trkpt lat="45.99377" lon="4.58587">
        <ele>536.6</ele>
        <time>2021-09-08T13:13:23Z</time>
      </trkpt>
      <trkpt lat="45.99371" lon="4.58595">
        <ele>537.2</ele>
        <time>2021-09-08T13:13:25Z</time>
      </trkpt>
      <trkpt lat="45.99367" lon="4.586">
        <ele>537.4</ele>
        <time>2021-09-08T13:13:26Z</time>
      </trkpt>
      <trkpt lat="45.99356" lon="4.58616">
        <ele>537.6</ele>
        <time>2021-09-08T13:13:30Z</time>
      </trkpt>
      <trkpt lat="45.99344" lon="4.58631">
        <ele>538.2</ele>
        <time>2021-09-08T13:13:34Z</time>
      </trkpt>
      <trkpt lat="45.99321" lon="4.58665">
        <ele>538.8</ele>
        <time>2021-09-08T13:13:43Z</time>
      </trkpt>
      <trkpt lat="45.99319" lon="4.58668">
        <ele>538.8</ele>
        <time>2021-09-08T13:13:44Z</time>
      </trkpt>
      <trkpt lat="45.9932" lon="4.58675">
        <ele>539</ele>
        <time>2021-09-08T13:13:46Z</time>
      </trkpt>
      <trkpt lat="45.99326" lon="4.58681">
        <ele>539.2</ele>
        <time>2021-09-08T13:13:48Z</time>
      </trkpt>
      <trkpt lat="45.99334" lon="4.58689">
        <ele>539.6</ele>
        <time>2021-09-08T13:13:51Z</time>
      </trkpt>
      <trkpt lat="45.99345" lon="4.58696">
        <ele>540.4</ele>
        <time>2021-09-08T13:13:55Z</time>
      </trkpt>
      <trkpt lat="45.99348" lon="4.58698">
        <ele>540.8</ele>
        <time>2021-09-08T13:13:56Z</time>
      </trkpt>
      <trkpt lat="45.99356" lon="4.58706">
        <ele>541.6</ele>
        <time>2021-09-08T13:13:59Z</time>
      </trkpt>
      <trkpt lat="45.99364" lon="4.58713">
        <ele>542</ele>
        <time>2021-09-08T13:14:03Z</time>
      </trkpt>
      <trkpt lat="45.99376" lon="4.58721">
        <ele>542.8</ele>
        <time>2021-09-08T13:14:06Z</time>
      </trkpt>
      <trkpt lat="45.99391" lon="4.58734">
        <ele>543.6</ele>
        <time>2021-09-08T13:14:12Z</time>
      </trkpt>
      <trkpt lat="45.99394" lon="4.58736">
        <ele>543.8</ele>
        <time>2021-09-08T13:14:13Z</time>
      </trkpt>
      <trkpt lat="45.99405" lon="4.58745">
        <ele>544.8</ele>
        <time>2021-09-08T13:14:17Z</time>
      </trkpt>
      <trkpt lat="45.99409" lon="4.5875">
        <ele>545.6</ele>
        <time>2021-09-08T13:14:19Z</time>
      </trkpt>
      <trkpt lat="45.99412" lon="4.58752">
        <ele>546</ele>
        <time>2021-09-08T13:14:20Z</time>
      </trkpt>
      <trkpt lat="45.99422" lon="4.58759">
        <ele>547.2</ele>
        <time>2021-09-08T13:14:24Z</time>
      </trkpt>
      <trkpt lat="45.9943" lon="4.58765">
        <ele>547.8</ele>
        <time>2021-09-08T13:14:27Z</time>
      </trkpt>
      <trkpt lat="45.99433" lon="4.58767">
        <ele>548.2</ele>
        <time>2021-09-08T13:14:28Z</time>
      </trkpt>
      <trkpt lat="45.99437" lon="4.58771">
        <ele>549.4</ele>
        <time>2021-09-08T13:14:30Z</time>
      </trkpt>
      <trkpt lat="45.99445" lon="4.58776">
        <ele>550.6</ele>
        <time>2021-09-08T13:14:33Z</time>
      </trkpt>
      <trkpt lat="45.99451" lon="4.5878">
        <ele>551.8</ele>
        <time>2021-09-08T13:14:35Z</time>
      </trkpt>
      <trkpt lat="45.99453" lon="4.58781">
        <ele>552.2</ele>
        <time>2021-09-08T13:14:36Z</time>
      </trkpt>
      <trkpt lat="45.9946" lon="4.58787">
        <ele>553.4</ele>
        <time>2021-09-08T13:14:39Z</time>
      </trkpt>
      <trkpt lat="45.99466" lon="4.58791">
        <ele>554.6</ele>
        <time>2021-09-08T13:14:41Z</time>
      </trkpt>
      <trkpt lat="45.99469" lon="4.58793">
        <ele>555.2</ele>
        <time>2021-09-08T13:14:43Z</time>
      </trkpt>
      <trkpt lat="45.99474" lon="4.58796">
        <ele>555.8</ele>
        <time>2021-09-08T13:14:44Z</time>
      </trkpt>
      <trkpt lat="45.99484" lon="4.58801">
        <ele>557.4</ele>
        <time>2021-09-08T13:14:48Z</time>
      </trkpt>
      <trkpt lat="45.99487" lon="4.58804">
        <ele>557.6</ele>
        <time>2021-09-08T13:14:49Z</time>
      </trkpt>
      <trkpt lat="45.9949" lon="4.5881">
        <ele>559</ele>
        <time>2021-09-08T13:14:51Z</time>
      </trkpt>
      <trkpt lat="45.99493" lon="4.58817">
        <ele>560.2</ele>
        <time>2021-09-08T13:14:53Z</time>
      </trkpt>
      <trkpt lat="45.99494" lon="4.58821">
        <ele>560.6</ele>
        <time>2021-09-08T13:14:54Z</time>
      </trkpt>
      <trkpt lat="45.99496" lon="4.58827">
        <ele>561.6</ele>
        <time>2021-09-08T13:14:56Z</time>
      </trkpt>
      <trkpt lat="45.99502" lon="4.58842">
        <ele>562.8</ele>
        <time>2021-09-08T13:15:01Z</time>
      </trkpt>
      <trkpt lat="45.99506" lon="4.58851">
        <ele>563.2</ele>
        <time>2021-09-08T13:15:03Z</time>
      </trkpt>
      <trkpt lat="45.99511" lon="4.58866">
        <ele>564</ele>
        <time>2021-09-08T13:15:07Z</time>
      </trkpt>
      <trkpt lat="45.99514" lon="4.58882">
        <ele>564.6</ele>
        <time>2021-09-08T13:15:11Z</time>
      </trkpt>
      <trkpt lat="45.99516" lon="4.5889">
        <ele>565.2</ele>
        <time>2021-09-08T13:15:13Z</time>
      </trkpt>
      <trkpt lat="45.99523" lon="4.58921">
        <ele>566.2</ele>
        <time>2021-09-08T13:15:20Z</time>
      </trkpt>
      <trkpt lat="45.99525" lon="4.58926">
        <ele>566.2</ele>
        <time>2021-09-08T13:15:21Z</time>
      </trkpt>
      <trkpt lat="45.99533" lon="4.58942">
        <ele>567.6</ele>
        <time>2021-09-08T13:15:25Z</time>
      </trkpt>
      <trkpt lat="45.99537" lon="4.58948">
        <ele>568.6</ele>
        <time>2021-09-08T13:15:27Z</time>
      </trkpt>
      <trkpt lat="45.9954" lon="4.58951">
        <ele>568.8</ele>
        <time>2021-09-08T13:15:28Z</time>
      </trkpt>
      <trkpt lat="45.99552" lon="4.5896">
        <ele>569.8</ele>
        <time>2021-09-08T13:15:32Z</time>
      </trkpt>
      <trkpt lat="45.99556" lon="4.58962">
        <ele>570</ele>
        <time>2021-09-08T13:15:33Z</time>
      </trkpt>
      <trkpt lat="45.99567" lon="4.58972">
        <ele>571.2</ele>
        <time>2021-09-08T13:15:37Z</time>
      </trkpt>
      <trkpt lat="45.99578" lon="4.5898">
        <ele>571.8</ele>
        <time>2021-09-08T13:15:41Z</time>
      </trkpt>
      <trkpt lat="45.99583" lon="4.58985">
        <ele>572.2</ele>
        <time>2021-09-08T13:15:43Z</time>
      </trkpt>
      <trkpt lat="45.99595" lon="4.59002">
        <ele>572.8</ele>
        <time>2021-09-08T13:15:48Z</time>
      </trkpt>
      <trkpt lat="45.996" lon="4.59017">
        <ele>572.4</ele>
        <time>2021-09-08T13:15:53Z</time>
      </trkpt>
      <trkpt lat="45.996" lon="4.59017">
        <ele>571.4</ele>
        <time>2021-09-08T13:16:31Z</time>
      </trkpt>
      <trkpt lat="45.996" lon="4.59017">
        <ele>570.6</ele>
        <time>2021-09-08T13:17:33Z</time>
      </trkpt>
      <trkpt lat="45.996" lon="4.59017">
        <ele>570.4</ele>
        <time>2021-09-08T13:17:37Z</time>
      </trkpt>
      <trkpt lat="45.996" lon="4.59017">
        <ele>571.8</ele>
        <time>2021-09-08T13:18:02Z</time>
      </trkpt>
      <trkpt lat="45.996" lon="4.59017">
        <ele>572.4</ele>
        <time>2021-09-08T13:18:29Z</time>
      </trkpt>
      <trkpt lat="45.99603" lon="4.59022">
        <ele>572.4</ele>
        <time>2021-09-08T13:18:31Z</time>
      </trkpt>
      <trkpt lat="45.99611" lon="4.59044">
        <ele>572.2</ele>
        <time>2021-09-08T13:18:36Z</time>
      </trkpt>
      <trkpt lat="45.99619" lon="4.59071">
        <ele>571.6</ele>
        <time>2021-09-08T13:18:40Z</time>
      </trkpt>
      <trkpt lat="45.99619" lon="4.59078">
        <ele>571.4</ele>
        <time>2021-09-08T13:18:41Z</time>
      </trkpt>
      <trkpt lat="45.99619" lon="4.59095">
        <ele>570.6</ele>
        <time>2021-09-08T13:18:43Z</time>
      </trkpt>
      <trkpt lat="45.9962" lon="4.59114">
        <ele>568.8</ele>
        <time>2021-09-08T13:18:45Z</time>
      </trkpt>
      <trkpt lat="45.99624" lon="4.59128">
        <ele>567.6</ele>
        <time>2021-09-08T13:18:47Z</time>
      </trkpt>
      <trkpt lat="45.99626" lon="4.59133">
        <ele>567</ele>
        <time>2021-09-08T13:18:48Z</time>
      </trkpt>
      <trkpt lat="45.99629" lon="4.59136">
        <ele>566.6</ele>
        <time>2021-09-08T13:18:49Z</time>
      </trkpt>
      <trkpt lat="45.99631" lon="4.59138">
        <ele>566</ele>
        <time>2021-09-08T13:18:50Z</time>
      </trkpt>
      <trkpt lat="45.99633" lon="4.59139">
        <ele>565.8</ele>
        <time>2021-09-08T13:18:51Z</time>
      </trkpt>
      <trkpt lat="45.99633" lon="4.59139">
        <ele>565.2</ele>
        <time>2021-09-08T13:18:52Z</time>
      </trkpt>
      <trkpt lat="45.99645" lon="4.59144">
        <ele>564.2</ele>
        <time>2021-09-08T13:18:54Z</time>
      </trkpt>
      <trkpt lat="45.99649" lon="4.59146">
        <ele>563.8</ele>
        <time>2021-09-08T13:18:55Z</time>
      </trkpt>
      <trkpt lat="45.99654" lon="4.5915">
        <ele>563.6</ele>
        <time>2021-09-08T13:18:56Z</time>
      </trkpt>
      <trkpt lat="45.99664" lon="4.59161">
        <ele>562.6</ele>
        <time>2021-09-08T13:18:58Z</time>
      </trkpt>
      <trkpt lat="45.99675" lon="4.59172">
        <ele>561.2</ele>
        <time>2021-09-08T13:19:00Z</time>
      </trkpt>
      <trkpt lat="45.9968" lon="4.59178">
        <ele>560.6</ele>
        <time>2021-09-08T13:19:01Z</time>
      </trkpt>
      <trkpt lat="45.99684" lon="4.59184">
        <ele>560</ele>
        <time>2021-09-08T13:19:02Z</time>
      </trkpt>
      <trkpt lat="45.99694" lon="4.59204">
        <ele>559</ele>
        <time>2021-09-08T13:19:05Z</time>
      </trkpt>
      <trkpt lat="45.99698" lon="4.59209">
        <ele>558</ele>
        <time>2021-09-08T13:19:06Z</time>
      </trkpt>
      <trkpt lat="45.99702" lon="4.59214">
        <ele>557</ele>
        <time>2021-09-08T13:19:07Z</time>
      </trkpt>
      <trkpt lat="45.99705" lon="4.59219">
        <ele>556.6</ele>
        <time>2021-09-08T13:19:08Z</time>
      </trkpt>
      <trkpt lat="45.99709" lon="4.59225">
        <ele>556</ele>
        <time>2021-09-08T13:19:09Z</time>
      </trkpt>
      <trkpt lat="45.99713" lon="4.59231">
        <ele>555.6</ele>
        <time>2021-09-08T13:19:10Z</time>
      </trkpt>
      <trkpt lat="45.99721" lon="4.59241">
        <ele>554.4</ele>
        <time>2021-09-08T13:19:12Z</time>
      </trkpt>
      <trkpt lat="45.99725" lon="4.59246">
        <ele>553.6</ele>
        <time>2021-09-08T13:19:13Z</time>
      </trkpt>
      <trkpt lat="45.99726" lon="4.59251">
        <ele>552.6</ele>
        <time>2021-09-08T13:19:14Z</time>
      </trkpt>
      <trkpt lat="45.99725" lon="4.59256">
        <ele>552.2</ele>
        <time>2021-09-08T13:19:15Z</time>
      </trkpt>
      <trkpt lat="45.99723" lon="4.59261">
        <ele>551.6</ele>
        <time>2021-09-08T13:19:16Z</time>
      </trkpt>
      <trkpt lat="45.99716" lon="4.59267">
        <ele>550.2</ele>
        <time>2021-09-08T13:19:18Z</time>
      </trkpt>
      <trkpt lat="45.99713" lon="4.5927">
        <ele>549.2</ele>
        <time>2021-09-08T13:19:19Z</time>
      </trkpt>
      <trkpt lat="45.99704" lon="4.59276">
        <ele>547.6</ele>
        <time>2021-09-08T13:19:21Z</time>
      </trkpt>
      <trkpt lat="45.99698" lon="4.5928">
        <ele>547.2</ele>
        <time>2021-09-08T13:19:22Z</time>
      </trkpt>
      <trkpt lat="45.99683" lon="4.59284">
        <ele>546.6</ele>
        <time>2021-09-08T13:19:24Z</time>
      </trkpt>
      <trkpt lat="45.99675" lon="4.59285">
        <ele>546.4</ele>
        <time>2021-09-08T13:19:25Z</time>
      </trkpt>
      <trkpt lat="45.99659" lon="4.5928">
        <ele>545.4</ele>
        <time>2021-09-08T13:19:27Z</time>
      </trkpt>
      <trkpt lat="45.99652" lon="4.59277">
        <ele>545</ele>
        <time>2021-09-08T13:19:28Z</time>
      </trkpt>
      <trkpt lat="45.99646" lon="4.59273">
        <ele>544</ele>
        <time>2021-09-08T13:19:29Z</time>
      </trkpt>
      <trkpt lat="45.99641" lon="4.59269">
        <ele>542.8</ele>
        <time>2021-09-08T13:19:30Z</time>
      </trkpt>
      <trkpt lat="45.99635" lon="4.59265">
        <ele>541.2</ele>
        <time>2021-09-08T13:19:32Z</time>
      </trkpt>
      <trkpt lat="45.99625" lon="4.5926">
        <ele>540.2</ele>
        <time>2021-09-08T13:19:33Z</time>
      </trkpt>
      <trkpt lat="45.99621" lon="4.59258">
        <ele>539.8</ele>
        <time>2021-09-08T13:19:34Z</time>
      </trkpt>
      <trkpt lat="45.99612" lon="4.59254">
        <ele>538.4</ele>
        <time>2021-09-08T13:19:36Z</time>
      </trkpt>
      <trkpt lat="45.99607" lon="4.59254">
        <ele>538.2</ele>
        <time>2021-09-08T13:19:37Z</time>
      </trkpt>
      <trkpt lat="45.99601" lon="4.59254">
        <ele>537.8</ele>
        <time>2021-09-08T13:19:38Z</time>
      </trkpt>
      <trkpt lat="45.99589" lon="4.59251">
        <ele>537.4</ele>
        <time>2021-09-08T13:19:40Z</time>
      </trkpt>
      <trkpt lat="45.99584" lon="4.59249">
        <ele>537.2</ele>
        <time>2021-09-08T13:19:41Z</time>
      </trkpt>
      <trkpt lat="45.99573" lon="4.59243">
        <ele>536.6</ele>
        <time>2021-09-08T13:19:43Z</time>
      </trkpt>
      <trkpt lat="45.99567" lon="4.59239">
        <ele>536.6</ele>
        <time>2021-09-08T13:19:44Z</time>
      </trkpt>
      <trkpt lat="45.99556" lon="4.59228">
        <ele>536.6</ele>
        <time>2021-09-08T13:19:46Z</time>
      </trkpt>
      <trkpt lat="45.99545" lon="4.59216">
        <ele>535.6</ele>
        <time>2021-09-08T13:19:48Z</time>
      </trkpt>
      <trkpt lat="45.99531" lon="4.59204">
        <ele>535.2</ele>
        <time>2021-09-08T13:19:50Z</time>
      </trkpt>
      <trkpt lat="45.99514" lon="4.59191">
        <ele>534.6</ele>
        <time>2021-09-08T13:19:53Z</time>
      </trkpt>
      <trkpt lat="45.99508" lon="4.59186">
        <ele>534</ele>
        <time>2021-09-08T13:19:54Z</time>
      </trkpt>
      <trkpt lat="45.99503" lon="4.59183">
        <ele>533.4</ele>
        <time>2021-09-08T13:19:55Z</time>
      </trkpt>
      <trkpt lat="45.995" lon="4.5918">
        <ele>533.2</ele>
        <time>2021-09-08T13:19:56Z</time>
      </trkpt>
      <trkpt lat="45.99488" lon="4.59172">
        <ele>532.6</ele>
        <time>2021-09-08T13:19:58Z</time>
      </trkpt>
      <trkpt lat="45.99477" lon="4.59167">
        <ele>532.6</ele>
        <time>2021-09-08T13:20:00Z</time>
      </trkpt>
      <trkpt lat="45.99465" lon="4.59165">
        <ele>532.4</ele>
        <time>2021-09-08T13:20:02Z</time>
      </trkpt>
      <trkpt lat="45.9944" lon="4.59159">
        <ele>532.6</ele>
        <time>2021-09-08T13:20:07Z</time>
      </trkpt>
      <trkpt lat="45.9942" lon="4.59159">
        <ele>533.2</ele>
        <time>2021-09-08T13:20:12Z</time>
      </trkpt>
      <trkpt lat="45.99395" lon="4.59162">
        <ele>534.4</ele>
        <time>2021-09-08T13:20:18Z</time>
      </trkpt>
      <trkpt lat="45.99381" lon="4.59167">
        <ele>534.4</ele>
        <time>2021-09-08T13:20:21Z</time>
      </trkpt>
      <trkpt lat="45.99365" lon="4.59171">
        <ele>534.4</ele>
        <time>2021-09-08T13:20:25Z</time>
      </trkpt>
      <trkpt lat="45.99338" lon="4.59174">
        <ele>534.4</ele>
        <time>2021-09-08T13:20:31Z</time>
      </trkpt>
      <trkpt lat="45.9933" lon="4.59172">
        <ele>534.2</ele>
        <time>2021-09-08T13:20:33Z</time>
      </trkpt>
      <trkpt lat="45.99302" lon="4.59161">
        <ele>533.2</ele>
        <time>2021-09-08T13:20:39Z</time>
      </trkpt>
      <trkpt lat="45.99297" lon="4.59159">
        <ele>533</ele>
        <time>2021-09-08T13:20:40Z</time>
      </trkpt>
      <trkpt lat="45.99282" lon="4.59154">
        <ele>532.8</ele>
        <time>2021-09-08T13:20:43Z</time>
      </trkpt>
      <trkpt lat="45.99274" lon="4.59152">
        <ele>532.6</ele>
        <time>2021-09-08T13:20:45Z</time>
      </trkpt>
      <trkpt lat="45.99269" lon="4.59153">
        <ele>532.6</ele>
        <time>2021-09-08T13:20:46Z</time>
      </trkpt>
      <trkpt lat="45.99264" lon="4.59155">
        <ele>532.4</ele>
        <time>2021-09-08T13:20:47Z</time>
      </trkpt>
      <trkpt lat="45.99257" lon="4.59162">
        <ele>532.4</ele>
        <time>2021-09-08T13:20:49Z</time>
      </trkpt>
      <trkpt lat="45.99255" lon="4.59166">
        <ele>532.2</ele>
        <time>2021-09-08T13:20:50Z</time>
      </trkpt>
      <trkpt lat="45.99253" lon="4.59172">
        <ele>532</ele>
        <time>2021-09-08T13:20:51Z</time>
      </trkpt>
      <trkpt lat="45.99253" lon="4.59177">
        <ele>531.6</ele>
        <time>2021-09-08T13:20:52Z</time>
      </trkpt>
      <trkpt lat="45.99255" lon="4.59185">
        <ele>531.2</ele>
        <time>2021-09-08T13:20:54Z</time>
      </trkpt>
      <trkpt lat="45.99256" lon="4.59189">
        <ele>530.8</ele>
        <time>2021-09-08T13:20:55Z</time>
      </trkpt>
      <trkpt lat="45.99252" lon="4.59209">
        <ele>530</ele>
        <time>2021-09-08T13:20:59Z</time>
      </trkpt>
      <trkpt lat="45.99251" lon="4.59213">
        <ele>529.6</ele>
        <time>2021-09-08T13:21:00Z</time>
      </trkpt>
      <trkpt lat="45.9925" lon="4.59217">
        <ele>529.2</ele>
        <time>2021-09-08T13:21:02Z</time>
      </trkpt>
      <trkpt lat="45.99248" lon="4.59218">
        <ele>529</ele>
        <time>2021-09-08T13:21:03Z</time>
      </trkpt>
      <trkpt lat="45.99246" lon="4.59219">
        <ele>528.8</ele>
        <time>2021-09-08T13:21:04Z</time>
      </trkpt>
      <trkpt lat="45.9924" lon="4.5922">
        <ele>528.2</ele>
        <time>2021-09-08T13:21:07Z</time>
      </trkpt>
      <trkpt lat="45.99243" lon="4.59216">
        <ele>527.6</ele>
        <time>2021-09-08T13:21:10Z</time>
      </trkpt>
      <trkpt lat="45.99248" lon="4.59213">
        <ele>527.2</ele>
        <time>2021-09-08T13:21:12Z</time>
      </trkpt>
      <trkpt lat="45.9925" lon="4.59207">
        <ele>527</ele>
        <time>2021-09-08T13:21:14Z</time>
      </trkpt>
      <trkpt lat="45.99252" lon="4.59198">
        <ele>526.6</ele>
        <time>2021-09-08T13:21:16Z</time>
      </trkpt>
      <trkpt lat="45.99254" lon="4.59186">
        <ele>526.8</ele>
        <time>2021-09-08T13:21:19Z</time>
      </trkpt>
      <trkpt lat="45.99253" lon="4.59182">
        <ele>526.8</ele>
        <time>2021-09-08T13:21:20Z</time>
      </trkpt>
      <trkpt lat="45.99252" lon="4.59179">
        <ele>526.8</ele>
        <time>2021-09-08T13:21:24Z</time>
      </trkpt>
      <trkpt lat="45.99242" lon="4.59174">
        <ele>526.8</ele>
        <time>2021-09-08T13:21:30Z</time>
      </trkpt>
      <trkpt lat="45.9922" lon="4.59168">
        <ele>526.8</ele>
        <time>2021-09-08T13:21:35Z</time>
      </trkpt>
      <trkpt lat="45.99205" lon="4.59165">
        <ele>526</ele>
        <time>2021-09-08T13:21:38Z</time>
      </trkpt>
      <trkpt lat="45.99197" lon="4.59166">
        <ele>525.6</ele>
        <time>2021-09-08T13:21:40Z</time>
      </trkpt>
      <trkpt lat="45.99194" lon="4.59168">
        <ele>525.6</ele>
        <time>2021-09-08T13:21:41Z</time>
      </trkpt>
      <trkpt lat="45.99187" lon="4.59177">
        <ele>525.4</ele>
        <time>2021-09-08T13:21:44Z</time>
      </trkpt>
      <trkpt lat="45.99185" lon="4.59182">
        <ele>525</ele>
        <time>2021-09-08T13:21:45Z</time>
      </trkpt>
      <trkpt lat="45.99185" lon="4.59195">
        <ele>524.6</ele>
        <time>2021-09-08T13:21:47Z</time>
      </trkpt>
      <trkpt lat="45.9918" lon="4.59242">
        <ele>523.6</ele>
        <time>2021-09-08T13:21:53Z</time>
      </trkpt>
      <trkpt lat="45.99178" lon="4.59251">
        <ele>523.6</ele>
        <time>2021-09-08T13:21:54Z</time>
      </trkpt>
      <trkpt lat="45.99177" lon="4.5926">
        <ele>523.4</ele>
        <time>2021-09-08T13:21:55Z</time>
      </trkpt>
      <trkpt lat="45.9917" lon="4.59286">
        <ele>523.2</ele>
        <time>2021-09-08T13:21:58Z</time>
      </trkpt>
      <trkpt lat="45.99167" lon="4.59293">
        <ele>523</ele>
        <time>2021-09-08T13:21:59Z</time>
      </trkpt>
      <trkpt lat="45.9916" lon="4.59308">
        <ele>522.4</ele>
        <time>2021-09-08T13:22:01Z</time>
      </trkpt>
      <trkpt lat="45.99154" lon="4.59321">
        <ele>521.8</ele>
        <time>2021-09-08T13:22:03Z</time>
      </trkpt>
      <trkpt lat="45.9915" lon="4.59326">
        <ele>521.6</ele>
        <time>2021-09-08T13:22:04Z</time>
      </trkpt>
      <trkpt lat="45.99145" lon="4.59335">
        <ele>521.4</ele>
        <time>2021-09-08T13:22:06Z</time>
      </trkpt>
      <trkpt lat="45.99148" lon="4.59341">
        <ele>521.4</ele>
        <time>2021-09-08T13:22:08Z</time>
      </trkpt>
      <trkpt lat="45.9915" lon="4.59342">
        <ele>521.4</ele>
        <time>2021-09-08T13:22:09Z</time>
      </trkpt>
      <trkpt lat="45.9916" lon="4.59345">
        <ele>521.4</ele>
        <time>2021-09-08T13:22:13Z</time>
      </trkpt>
      <trkpt lat="45.99195" lon="4.59352">
        <ele>521.6</ele>
        <time>2021-09-08T13:22:21Z</time>
      </trkpt>
      <trkpt lat="45.99222" lon="4.59359">
        <ele>522.2</ele>
        <time>2021-09-08T13:22:28Z</time>
      </trkpt>
      <trkpt lat="45.99234" lon="4.59362">
        <ele>522.6</ele>
        <time>2021-09-08T13:22:31Z</time>
      </trkpt>
      <trkpt lat="45.99261" lon="4.5937">
        <ele>523.2</ele>
        <time>2021-09-08T13:22:38Z</time>
      </trkpt>
      <trkpt lat="45.99276" lon="4.59374">
        <ele>523.8</ele>
        <time>2021-09-08T13:22:42Z</time>
      </trkpt>
      <trkpt lat="45.99293" lon="4.59379">
        <ele>524.4</ele>
        <time>2021-09-08T13:22:47Z</time>
      </trkpt>
      <trkpt lat="45.99305" lon="4.59382">
        <ele>524.8</ele>
        <time>2021-09-08T13:22:50Z</time>
      </trkpt>
      <trkpt lat="45.99324" lon="4.59387">
        <ele>525.2</ele>
        <time>2021-09-08T13:22:54Z</time>
      </trkpt>
      <trkpt lat="45.99359" lon="4.59399">
        <ele>524.6</ele>
        <time>2021-09-08T13:23:00Z</time>
      </trkpt>
      <trkpt lat="45.99378" lon="4.59419">
        <ele>524.2</ele>
        <time>2021-09-08T13:23:04Z</time>
      </trkpt>
      <trkpt lat="45.99392" lon="4.59433">
        <ele>523.8</ele>
        <time>2021-09-08T13:23:07Z</time>
      </trkpt>
      <trkpt lat="45.99412" lon="4.59451">
        <ele>522.6</ele>
        <time>2021-09-08T13:23:11Z</time>
      </trkpt>
      <trkpt lat="45.99417" lon="4.59454">
        <ele>522</ele>
        <time>2021-09-08T13:23:12Z</time>
      </trkpt>
      <trkpt lat="45.99423" lon="4.59459">
        <ele>520.8</ele>
        <time>2021-09-08T13:23:13Z</time>
      </trkpt>
      <trkpt lat="45.99428" lon="4.59463">
        <ele>519.4</ele>
        <time>2021-09-08T13:23:14Z</time>
      </trkpt>
      <trkpt lat="45.99432" lon="4.59473">
        <ele>517.6</ele>
        <time>2021-09-08T13:23:16Z</time>
      </trkpt>
      <trkpt lat="45.99432" lon="4.59489">
        <ele>516</ele>
        <time>2021-09-08T13:23:18Z</time>
      </trkpt>
      <trkpt lat="45.99432" lon="4.59506">
        <ele>514.8</ele>
        <time>2021-09-08T13:23:20Z</time>
      </trkpt>
      <trkpt lat="45.99432" lon="4.59523">
        <ele>513.8</ele>
        <time>2021-09-08T13:23:22Z</time>
      </trkpt>
      <trkpt lat="45.99434" lon="4.59541">
        <ele>512.8</ele>
        <time>2021-09-08T13:23:24Z</time>
      </trkpt>
      <trkpt lat="45.99434" lon="4.59559">
        <ele>511.6</ele>
        <time>2021-09-08T13:23:26Z</time>
      </trkpt>
      <trkpt lat="45.99434" lon="4.59566">
        <ele>511.2</ele>
        <time>2021-09-08T13:23:27Z</time>
      </trkpt>
      <trkpt lat="45.99435" lon="4.59577">
        <ele>510.6</ele>
        <time>2021-09-08T13:23:28Z</time>
      </trkpt>
      <trkpt lat="45.99437" lon="4.59611">
        <ele>509.6</ele>
        <time>2021-09-08T13:23:32Z</time>
      </trkpt>
      <trkpt lat="45.99437" lon="4.59639">
        <ele>508.8</ele>
        <time>2021-09-08T13:23:35Z</time>
      </trkpt>
      <trkpt lat="45.99438" lon="4.59656">
        <ele>508.6</ele>
        <time>2021-09-08T13:23:37Z</time>
      </trkpt>
      <trkpt lat="45.9944" lon="4.59689">
        <ele>508.4</ele>
        <time>2021-09-08T13:23:41Z</time>
      </trkpt>
      <trkpt lat="45.99442" lon="4.59725">
        <ele>507.6</ele>
        <time>2021-09-08T13:23:45Z</time>
      </trkpt>
      <trkpt lat="45.99442" lon="4.59751">
        <ele>506.2</ele>
        <time>2021-09-08T13:23:48Z</time>
      </trkpt>
      <trkpt lat="45.99443" lon="4.59783">
        <ele>505</ele>
        <time>2021-09-08T13:23:52Z</time>
      </trkpt>
      <trkpt lat="45.99445" lon="4.59805">
        <ele>505</ele>
        <time>2021-09-08T13:23:55Z</time>
      </trkpt>
      <trkpt lat="45.99447" lon="4.59812">
        <ele>504.8</ele>
        <time>2021-09-08T13:23:56Z</time>
      </trkpt>
      <trkpt lat="45.99453" lon="4.5983">
        <ele>504.4</ele>
        <time>2021-09-08T13:23:59Z</time>
      </trkpt>
      <trkpt lat="45.99455" lon="4.59838">
        <ele>504.4</ele>
        <time>2021-09-08T13:24:00Z</time>
      </trkpt>
      <trkpt lat="45.99461" lon="4.59868">
        <ele>504.2</ele>
        <time>2021-09-08T13:24:04Z</time>
      </trkpt>
      <trkpt lat="45.99462" lon="4.59876">
        <ele>504</ele>
        <time>2021-09-08T13:24:05Z</time>
      </trkpt>
      <trkpt lat="45.99465" lon="4.59904">
        <ele>503.2</ele>
        <time>2021-09-08T13:24:09Z</time>
      </trkpt>
      <trkpt lat="45.99467" lon="4.59935">
        <ele>502.4</ele>
        <time>2021-09-08T13:24:11Z</time>
      </trkpt>
      <trkpt lat="45.99467" lon="4.59943">
        <ele>502</ele>
        <time>2021-09-08T13:24:12Z</time>
      </trkpt>
      <trkpt lat="45.99467" lon="4.59968">
        <ele>500.6</ele>
        <time>2021-09-08T13:24:14Z</time>
      </trkpt>
      <trkpt lat="45.99467" lon="4.59988">
        <ele>499.2</ele>
        <time>2021-09-08T13:24:16Z</time>
      </trkpt>
      <trkpt lat="45.99467" lon="4.60001">
        <ele>498.8</ele>
        <time>2021-09-08T13:24:17Z</time>
      </trkpt>
      <trkpt lat="45.99466" lon="4.60011">
        <ele>498</ele>
        <time>2021-09-08T13:24:18Z</time>
      </trkpt>
      <trkpt lat="45.99465" lon="4.60033">
        <ele>496.8</ele>
        <time>2021-09-08T13:24:20Z</time>
      </trkpt>
      <trkpt lat="45.99464" lon="4.6004">
        <ele>495.6</ele>
        <time>2021-09-08T13:24:21Z</time>
      </trkpt>
      <trkpt lat="45.99463" lon="4.60056">
        <ele>495</ele>
        <time>2021-09-08T13:24:23Z</time>
      </trkpt>
      <trkpt lat="45.99463" lon="4.60065">
        <ele>494.2</ele>
        <time>2021-09-08T13:24:25Z</time>
      </trkpt>
      <trkpt lat="45.99465" lon="4.60082">
        <ele>493.2</ele>
        <time>2021-09-08T13:24:28Z</time>
      </trkpt>
      <trkpt lat="45.99465" lon="4.60085">
        <ele>492.6</ele>
        <time>2021-09-08T13:24:29Z</time>
      </trkpt>
      <trkpt lat="45.99465" lon="4.60086">
        <ele>491.8</ele>
        <time>2021-09-08T13:24:30Z</time>
      </trkpt>
      <trkpt lat="45.99465" lon="4.60086">
        <ele>491.6</ele>
        <time>2021-09-08T13:24:31Z</time>
      </trkpt>
      <trkpt lat="45.99465" lon="4.60086">
        <ele>490.8</ele>
        <time>2021-09-08T13:24:35Z</time>
      </trkpt>
      <trkpt lat="45.99467" lon="4.60088">
        <ele>490.2</ele>
        <time>2021-09-08T13:24:38Z</time>
      </trkpt>
      <trkpt lat="45.99469" lon="4.60085">
        <ele>490.2</ele>
        <time>2021-09-08T13:24:40Z</time>
      </trkpt>
      <trkpt lat="45.99476" lon="4.60063">
        <ele>489.6</ele>
        <time>2021-09-08T13:24:44Z</time>
      </trkpt>
      <trkpt lat="45.99489" lon="4.60025">
        <ele>489</ele>
        <time>2021-09-08T13:24:50Z</time>
      </trkpt>
      <trkpt lat="45.99496" lon="4.60014">
        <ele>488.8</ele>
        <time>2021-09-08T13:24:52Z</time>
      </trkpt>
      <trkpt lat="45.99513" lon="4.5999">
        <ele>488.2</ele>
        <time>2021-09-08T13:24:56Z</time>
      </trkpt>
      <trkpt lat="45.99521" lon="4.59977">
        <ele>487.8</ele>
        <time>2021-09-08T13:24:58Z</time>
      </trkpt>
      <trkpt lat="45.99539" lon="4.59943">
        <ele>486.8</ele>
        <time>2021-09-08T13:25:03Z</time>
      </trkpt>
      <trkpt lat="45.99543" lon="4.59936">
        <ele>486.6</ele>
        <time>2021-09-08T13:25:04Z</time>
      </trkpt>
      <trkpt lat="45.99559" lon="4.59915">
        <ele>485.6</ele>
        <time>2021-09-08T13:25:08Z</time>
      </trkpt>
      <trkpt lat="45.99563" lon="4.59911">
        <ele>485.6</ele>
        <time>2021-09-08T13:25:09Z</time>
      </trkpt>
      <trkpt lat="45.99602" lon="4.59883">
        <ele>485</ele>
        <time>2021-09-08T13:25:17Z</time>
      </trkpt>
      <trkpt lat="45.99617" lon="4.59872">
        <ele>484.6</ele>
        <time>2021-09-08T13:25:20Z</time>
      </trkpt>
      <trkpt lat="45.99633" lon="4.59865">
        <ele>483.4</ele>
        <time>2021-09-08T13:25:23Z</time>
      </trkpt>
      <trkpt lat="45.99638" lon="4.59864">
        <ele>483.4</ele>
        <time>2021-09-08T13:25:24Z</time>
      </trkpt>
      <trkpt lat="45.99645" lon="4.59863">
        <ele>483.2</ele>
        <time>2021-09-08T13:25:25Z</time>
      </trkpt>
      <trkpt lat="45.99674" lon="4.59862">
        <ele>482.6</ele>
        <time>2021-09-08T13:25:30Z</time>
      </trkpt>
      <trkpt lat="45.99679" lon="4.59862">
        <ele>482.4</ele>
        <time>2021-09-08T13:25:31Z</time>
      </trkpt>
      <trkpt lat="45.99696" lon="4.59866">
        <ele>481.6</ele>
        <time>2021-09-08T13:25:34Z</time>
      </trkpt>
      <trkpt lat="45.99701" lon="4.59869">
        <ele>481.2</ele>
        <time>2021-09-08T13:25:35Z</time>
      </trkpt>
      <trkpt lat="45.99708" lon="4.59869">
        <ele>481.2</ele>
        <time>2021-09-08T13:25:36Z</time>
      </trkpt>
      <trkpt lat="45.99721" lon="4.59866">
        <ele>481</ele>
        <time>2021-09-08T13:25:38Z</time>
      </trkpt>
      <trkpt lat="45.99728" lon="4.59864">
        <ele>480.6</ele>
        <time>2021-09-08T13:25:39Z</time>
      </trkpt>
      <trkpt lat="45.99735" lon="4.59861">
        <ele>480.4</ele>
        <time>2021-09-08T13:25:40Z</time>
      </trkpt>
      <trkpt lat="45.9975" lon="4.59858">
        <ele>480</ele>
        <time>2021-09-08T13:25:42Z</time>
      </trkpt>
      <trkpt lat="45.99764" lon="4.59856">
        <ele>479.4</ele>
        <time>2021-09-08T13:25:44Z</time>
      </trkpt>
      <trkpt lat="45.99771" lon="4.59855">
        <ele>479.2</ele>
        <time>2021-09-08T13:25:45Z</time>
      </trkpt>
      <trkpt lat="45.99785" lon="4.59849">
        <ele>479</ele>
        <time>2021-09-08T13:25:47Z</time>
      </trkpt>
      <trkpt lat="45.99792" lon="4.59846">
        <ele>479</ele>
        <time>2021-09-08T13:25:48Z</time>
      </trkpt>
      <trkpt lat="45.99799" lon="4.59843">
        <ele>478.8</ele>
        <time>2021-09-08T13:25:49Z</time>
      </trkpt>
      <trkpt lat="45.9982" lon="4.59837">
        <ele>477</ele>
        <time>2021-09-08T13:25:52Z</time>
      </trkpt>
      <trkpt lat="45.99827" lon="4.59835">
        <ele>476.6</ele>
        <time>2021-09-08T13:25:53Z</time>
      </trkpt>
      <trkpt lat="45.99833" lon="4.59834">
        <ele>476</ele>
        <time>2021-09-08T13:25:54Z</time>
      </trkpt>
      <trkpt lat="45.99845" lon="4.59834">
        <ele>474.8</ele>
        <time>2021-09-08T13:25:56Z</time>
      </trkpt>
      <trkpt lat="45.99863" lon="4.59831">
        <ele>473.4</ele>
        <time>2021-09-08T13:25:59Z</time>
      </trkpt>
      <trkpt lat="45.99868" lon="4.59828">
        <ele>473.2</ele>
        <time>2021-09-08T13:26:00Z</time>
      </trkpt>
      <trkpt lat="45.99873" lon="4.59827">
        <ele>472.2</ele>
        <time>2021-09-08T13:26:01Z</time>
      </trkpt>
      <trkpt lat="45.9988" lon="4.59826">
        <ele>471.2</ele>
        <time>2021-09-08T13:26:03Z</time>
      </trkpt>
      <trkpt lat="45.99884" lon="4.59824">
        <ele>470.6</ele>
        <time>2021-09-08T13:26:04Z</time>
      </trkpt>
      <trkpt lat="45.99893" lon="4.59821">
        <ele>469.8</ele>
        <time>2021-09-08T13:26:06Z</time>
      </trkpt>
      <trkpt lat="45.999" lon="4.5982">
        <ele>468.4</ele>
        <time>2021-09-08T13:26:08Z</time>
      </trkpt>
      <trkpt lat="45.99906" lon="4.59819">
        <ele>467.2</ele>
        <time>2021-09-08T13:26:09Z</time>
      </trkpt>
      <trkpt lat="45.99915" lon="4.59817">
        <ele>465.4</ele>
        <time>2021-09-08T13:26:11Z</time>
      </trkpt>
      <trkpt lat="45.9992" lon="4.59816">
        <ele>464.8</ele>
        <time>2021-09-08T13:26:12Z</time>
      </trkpt>
      <trkpt lat="45.99923" lon="4.59815">
        <ele>464</ele>
        <time>2021-09-08T13:26:13Z</time>
      </trkpt>
      <trkpt lat="45.99928" lon="4.59812">
        <ele>463.6</ele>
        <time>2021-09-08T13:26:14Z</time>
      </trkpt>
      <trkpt lat="45.99933" lon="4.59808">
        <ele>462.8</ele>
        <time>2021-09-08T13:26:15Z</time>
      </trkpt>
      <trkpt lat="45.99943" lon="4.59801">
        <ele>461.8</ele>
        <time>2021-09-08T13:26:17Z</time>
      </trkpt>
      <trkpt lat="45.99949" lon="4.59797">
        <ele>460.8</ele>
        <time>2021-09-08T13:26:18Z</time>
      </trkpt>
      <trkpt lat="45.99955" lon="4.59794">
        <ele>460.2</ele>
        <time>2021-09-08T13:26:19Z</time>
      </trkpt>
      <trkpt lat="45.99965" lon="4.59789">
        <ele>458.4</ele>
        <time>2021-09-08T13:26:21Z</time>
      </trkpt>
      <trkpt lat="45.99975" lon="4.59784">
        <ele>457</ele>
        <time>2021-09-08T13:26:23Z</time>
      </trkpt>
      <trkpt lat="45.99986" lon="4.59784">
        <ele>455.4</ele>
        <time>2021-09-08T13:26:25Z</time>
      </trkpt>
      <trkpt lat="45.99997" lon="4.59784">
        <ele>453.4</ele>
        <time>2021-09-08T13:26:27Z</time>
      </trkpt>
      <trkpt lat="46.00004" lon="4.59784">
        <ele>452.2</ele>
        <time>2021-09-08T13:26:28Z</time>
      </trkpt>
      <trkpt lat="46.00009" lon="4.59785">
        <ele>451.6</ele>
        <time>2021-09-08T13:26:29Z</time>
      </trkpt>
      <trkpt lat="46.00017" lon="4.59785">
        <ele>450.8</ele>
        <time>2021-09-08T13:26:30Z</time>
      </trkpt>
      <trkpt lat="46.00022" lon="4.59786">
        <ele>450.4</ele>
        <time>2021-09-08T13:26:31Z</time>
      </trkpt>
      <trkpt lat="46.00029" lon="4.59789">
        <ele>449</ele>
        <time>2021-09-08T13:26:32Z</time>
      </trkpt>
      <trkpt lat="46.00036" lon="4.59791">
        <ele>447.2</ele>
        <time>2021-09-08T13:26:33Z</time>
      </trkpt>
      <trkpt lat="46.00046" lon="4.59795">
        <ele>445.2</ele>
        <time>2021-09-08T13:26:35Z</time>
      </trkpt>
      <trkpt lat="46.00056" lon="4.59798">
        <ele>443.2</ele>
        <time>2021-09-08T13:26:37Z</time>
      </trkpt>
      <trkpt lat="46.00063" lon="4.59802">
        <ele>442.2</ele>
        <time>2021-09-08T13:26:39Z</time>
      </trkpt>
      <trkpt lat="46.00072" lon="4.59806">
        <ele>440.8</ele>
        <time>2021-09-08T13:26:41Z</time>
      </trkpt>
      <trkpt lat="46.00076" lon="4.59809">
        <ele>440</ele>
        <time>2021-09-08T13:26:42Z</time>
      </trkpt>
      <trkpt lat="46.00086" lon="4.59816">
        <ele>438.8</ele>
        <time>2021-09-08T13:26:45Z</time>
      </trkpt>
      <trkpt lat="46.00095" lon="4.59819">
        <ele>436.8</ele>
        <time>2021-09-08T13:26:47Z</time>
      </trkpt>
      <trkpt lat="46.00099" lon="4.59819">
        <ele>436</ele>
        <time>2021-09-08T13:26:48Z</time>
      </trkpt>
      <trkpt lat="46.00102" lon="4.5982">
        <ele>435.4</ele>
        <time>2021-09-08T13:26:49Z</time>
      </trkpt>
      <trkpt lat="46.00109" lon="4.59821">
        <ele>433.8</ele>
        <time>2021-09-08T13:26:51Z</time>
      </trkpt>
      <trkpt lat="46.00113" lon="4.59822">
        <ele>432.6</ele>
        <time>2021-09-08T13:26:52Z</time>
      </trkpt>
      <trkpt lat="46.00116" lon="4.59823">
        <ele>432.2</ele>
        <time>2021-09-08T13:26:53Z</time>
      </trkpt>
      <trkpt lat="46.0012" lon="4.59824">
        <ele>431</ele>
        <time>2021-09-08T13:26:54Z</time>
      </trkpt>
      <trkpt lat="46.0013" lon="4.59831">
        <ele>429.8</ele>
        <time>2021-09-08T13:26:57Z</time>
      </trkpt>
      <trkpt lat="46.00133" lon="4.59833">
        <ele>428.8</ele>
        <time>2021-09-08T13:26:58Z</time>
      </trkpt>
      <trkpt lat="46.00133" lon="4.59833">
        <ele>427.4</ele>
        <time>2021-09-08T13:26:59Z</time>
      </trkpt>
      <trkpt lat="46.00142" lon="4.59838">
        <ele>426</ele>
        <time>2021-09-08T13:27:01Z</time>
      </trkpt>
      <trkpt lat="46.00144" lon="4.59839">
        <ele>425</ele>
        <time>2021-09-08T13:27:02Z</time>
      </trkpt>
      <trkpt lat="46.00148" lon="4.59839">
        <ele>424.2</ele>
        <time>2021-09-08T13:27:03Z</time>
      </trkpt>
      <trkpt lat="46.00154" lon="4.59838">
        <ele>423</ele>
        <time>2021-09-08T13:27:05Z</time>
      </trkpt>
      <trkpt lat="46.00159" lon="4.59836">
        <ele>421.8</ele>
        <time>2021-09-08T13:27:07Z</time>
      </trkpt>
      <trkpt lat="46.00163" lon="4.59834">
        <ele>420.6</ele>
        <time>2021-09-08T13:27:08Z</time>
      </trkpt>
      <trkpt lat="46.00174" lon="4.5983">
        <ele>419.2</ele>
        <time>2021-09-08T13:27:10Z</time>
      </trkpt>
      <trkpt lat="46.00179" lon="4.59829">
        <ele>418.2</ele>
        <time>2021-09-08T13:27:11Z</time>
      </trkpt>
      <trkpt lat="46.00187" lon="4.59829">
        <ele>417.6</ele>
        <time>2021-09-08T13:27:12Z</time>
      </trkpt>
      <trkpt lat="46.00198" lon="4.59829">
        <ele>416.8</ele>
        <time>2021-09-08T13:27:14Z</time>
      </trkpt>
      <trkpt lat="46.00203" lon="4.59828">
        <ele>416.2</ele>
        <time>2021-09-08T13:27:15Z</time>
      </trkpt>
      <trkpt lat="46.00209" lon="4.59828">
        <ele>415</ele>
        <time>2021-09-08T13:27:16Z</time>
      </trkpt>
      <trkpt lat="46.00213" lon="4.59828">
        <ele>414.2</ele>
        <time>2021-09-08T13:27:17Z</time>
      </trkpt>
      <trkpt lat="46.00217" lon="4.59827">
        <ele>413</ele>
        <time>2021-09-08T13:27:18Z</time>
      </trkpt>
      <trkpt lat="46.00221" lon="4.59827">
        <ele>412.4</ele>
        <time>2021-09-08T13:27:19Z</time>
      </trkpt>
      <trkpt lat="46.00224" lon="4.59827">
        <ele>411.6</ele>
        <time>2021-09-08T13:27:20Z</time>
      </trkpt>
      <trkpt lat="46.00231" lon="4.59826">
        <ele>410.2</ele>
        <time>2021-09-08T13:27:22Z</time>
      </trkpt>
      <trkpt lat="46.00238" lon="4.59826">
        <ele>408.6</ele>
        <time>2021-09-08T13:27:24Z</time>
      </trkpt>
      <trkpt lat="46.0024" lon="4.59827">
        <ele>407.4</ele>
        <time>2021-09-08T13:27:25Z</time>
      </trkpt>
      <trkpt lat="46.00244" lon="4.59829">
        <ele>405.6</ele>
        <time>2021-09-08T13:27:27Z</time>
      </trkpt>
      <trkpt lat="46.00247" lon="4.59831">
        <ele>403.8</ele>
        <time>2021-09-08T13:27:28Z</time>
      </trkpt>
      <trkpt lat="46.00251" lon="4.59832">
        <ele>401.8</ele>
        <time>2021-09-08T13:27:30Z</time>
      </trkpt>
      <trkpt lat="46.00254" lon="4.59833">
        <ele>400.4</ele>
        <time>2021-09-08T13:27:32Z</time>
      </trkpt>
      <trkpt lat="46.00258" lon="4.59835">
        <ele>398.2</ele>
        <time>2021-09-08T13:27:34Z</time>
      </trkpt>
      <trkpt lat="46.00261" lon="4.59836">
        <ele>397</ele>
        <time>2021-09-08T13:27:36Z</time>
      </trkpt>
      <trkpt lat="46.00263" lon="4.59839">
        <ele>395.8</ele>
        <time>2021-09-08T13:27:38Z</time>
      </trkpt>
      <trkpt lat="46.00266" lon="4.59841">
        <ele>395.2</ele>
        <time>2021-09-08T13:27:39Z</time>
      </trkpt>
      <trkpt lat="46.00269" lon="4.59842">
        <ele>394.2</ele>
        <time>2021-09-08T13:27:40Z</time>
      </trkpt>
      <trkpt lat="46.00275" lon="4.59845">
        <ele>392.8</ele>
        <time>2021-09-08T13:27:42Z</time>
      </trkpt>
      <trkpt lat="46.00287" lon="4.5985">
        <ele>392</ele>
        <time>2021-09-08T13:27:45Z</time>
      </trkpt>
      <trkpt lat="46.0029" lon="4.59851">
        <ele>391.2</ele>
        <time>2021-09-08T13:27:46Z</time>
      </trkpt>
      <trkpt lat="46.00296" lon="4.59854">
        <ele>390.2</ele>
        <time>2021-09-08T13:27:48Z</time>
      </trkpt>
      <trkpt lat="46.00304" lon="4.59858">
        <ele>389</ele>
        <time>2021-09-08T13:27:50Z</time>
      </trkpt>
      <trkpt lat="46.00308" lon="4.5986">
        <ele>388.2</ele>
        <time>2021-09-08T13:27:51Z</time>
      </trkpt>
      <trkpt lat="46.00312" lon="4.59862">
        <ele>387.8</ele>
        <time>2021-09-08T13:27:52Z</time>
      </trkpt>
      <trkpt lat="46.0032" lon="4.59866">
        <ele>386.8</ele>
        <time>2021-09-08T13:27:54Z</time>
      </trkpt>
      <trkpt lat="46.00327" lon="4.59869">
        <ele>385.6</ele>
        <time>2021-09-08T13:27:56Z</time>
      </trkpt>
      <trkpt lat="46.00335" lon="4.59869">
        <ele>384</ele>
        <time>2021-09-08T13:27:58Z</time>
      </trkpt>
      <trkpt lat="46.00339" lon="4.59869">
        <ele>382.8</ele>
        <time>2021-09-08T13:27:59Z</time>
      </trkpt>
      <trkpt lat="46.00345" lon="4.59867">
        <ele>381</ele>
        <time>2021-09-08T13:28:01Z</time>
      </trkpt>
      <trkpt lat="46.00358" lon="4.59862">
        <ele>379.4</ele>
        <time>2021-09-08T13:28:05Z</time>
      </trkpt>
      <trkpt lat="46.0037" lon="4.59857">
        <ele>378.8</ele>
        <time>2021-09-08T13:28:08Z</time>
      </trkpt>
      <trkpt lat="46.00387" lon="4.59854">
        <ele>378.4</ele>
        <time>2021-09-08T13:28:13Z</time>
      </trkpt>
      <trkpt lat="46.00391" lon="4.59855">
        <ele>378.4</ele>
        <time>2021-09-08T13:28:14Z</time>
      </trkpt>
      <trkpt lat="46.00392" lon="4.59856">
        <ele>378.2</ele>
        <time>2021-09-08T13:28:15Z</time>
      </trkpt>
      <trkpt lat="46.00403" lon="4.59864">
        <ele>377.4</ele>
        <time>2021-09-08T13:28:18Z</time>
      </trkpt>
      <trkpt lat="46.00408" lon="4.59866">
        <ele>377.2</ele>
        <time>2021-09-08T13:28:19Z</time>
      </trkpt>
      <trkpt lat="46.00416" lon="4.59876">
        <ele>376</ele>
        <time>2021-09-08T13:28:22Z</time>
      </trkpt>
      <trkpt lat="46.00427" lon="4.59883">
        <ele>375.2</ele>
        <time>2021-09-08T13:28:25Z</time>
      </trkpt>
      <trkpt lat="46.00432" lon="4.59889">
        <ele>373.8</ele>
        <time>2021-09-08T13:28:27Z</time>
      </trkpt>
      <trkpt lat="46.00442" lon="4.59898">
        <ele>372</ele>
        <time>2021-09-08T13:28:30Z</time>
      </trkpt>
      <trkpt lat="46.0045" lon="4.59902">
        <ele>370.8</ele>
        <time>2021-09-08T13:28:32Z</time>
      </trkpt>
      <trkpt lat="46.00453" lon="4.59902">
        <ele>370.4</ele>
        <time>2021-09-08T13:28:33Z</time>
      </trkpt>
      <trkpt lat="46.00456" lon="4.59903">
        <ele>368.8</ele>
        <time>2021-09-08T13:28:34Z</time>
      </trkpt>
      <trkpt lat="46.00458" lon="4.59906">
        <ele>367.8</ele>
        <time>2021-09-08T13:28:35Z</time>
      </trkpt>
      <trkpt lat="46.00465" lon="4.59909">
        <ele>366.8</ele>
        <time>2021-09-08T13:28:37Z</time>
      </trkpt>
      <trkpt lat="46.00465" lon="4.59909">
        <ele>366.4</ele>
        <time>2021-09-08T13:28:38Z</time>
      </trkpt>
      <trkpt lat="46.00481" lon="4.59912">
        <ele>365.4</ele>
        <time>2021-09-08T13:28:40Z</time>
      </trkpt>
      <trkpt lat="46.0049" lon="4.59916">
        <ele>362.8</ele>
        <time>2021-09-08T13:28:42Z</time>
      </trkpt>
      <trkpt lat="46.005" lon="4.59919">
        <ele>361.4</ele>
        <time>2021-09-08T13:28:44Z</time>
      </trkpt>
      <trkpt lat="46.00503" lon="4.5992">
        <ele>360.8</ele>
        <time>2021-09-08T13:28:45Z</time>
      </trkpt>
      <trkpt lat="46.00505" lon="4.59921">
        <ele>360.2</ele>
        <time>2021-09-08T13:28:46Z</time>
      </trkpt>
      <trkpt lat="46.00517" lon="4.59924">
        <ele>359</ele>
        <time>2021-09-08T13:28:49Z</time>
      </trkpt>
      <trkpt lat="46.00525" lon="4.5992">
        <ele>358.2</ele>
        <time>2021-09-08T13:28:51Z</time>
      </trkpt>
      <trkpt lat="46.00528" lon="4.59916">
        <ele>358</ele>
        <time>2021-09-08T13:28:52Z</time>
      </trkpt>
      <trkpt lat="46.00531" lon="4.59911">
        <ele>357.6</ele>
        <time>2021-09-08T13:28:53Z</time>
      </trkpt>
      <trkpt lat="46.00534" lon="4.59907">
        <ele>357.2</ele>
        <time>2021-09-08T13:28:54Z</time>
      </trkpt>
      <trkpt lat="46.00538" lon="4.59904">
        <ele>357</ele>
        <time>2021-09-08T13:28:55Z</time>
      </trkpt>
      <trkpt lat="46.00548" lon="4.59893">
        <ele>355.2</ele>
        <time>2021-09-08T13:28:58Z</time>
      </trkpt>
      <trkpt lat="46.00559" lon="4.59886">
        <ele>353.8</ele>
        <time>2021-09-08T13:29:01Z</time>
      </trkpt>
      <trkpt lat="46.0057" lon="4.59881">
        <ele>353.4</ele>
        <time>2021-09-08T13:29:04Z</time>
      </trkpt>
      <trkpt lat="46.00595" lon="4.59877">
        <ele>353.2</ele>
        <time>2021-09-08T13:29:10Z</time>
      </trkpt>
      <trkpt lat="46.00605" lon="4.59877">
        <ele>354</ele>
        <time>2021-09-08T13:29:13Z</time>
      </trkpt>
      <trkpt lat="46.00609" lon="4.59882">
        <ele>354.2</ele>
        <time>2021-09-08T13:29:15Z</time>
      </trkpt>
      <trkpt lat="46.00612" lon="4.599">
        <ele>354.8</ele>
        <time>2021-09-08T13:29:20Z</time>
      </trkpt>
      <trkpt lat="46.0061" lon="4.59929">
        <ele>354.6</ele>
        <time>2021-09-08T13:29:26Z</time>
      </trkpt>
      <trkpt lat="46.00606" lon="4.59966">
        <ele>353.6</ele>
        <time>2021-09-08T13:29:32Z</time>
      </trkpt>
      <trkpt lat="46.00605" lon="4.59979">
        <ele>353.2</ele>
        <time>2021-09-08T13:29:34Z</time>
      </trkpt>
      <trkpt lat="46.00606" lon="4.59994">
        <ele>353</ele>
        <time>2021-09-08T13:29:36Z</time>
      </trkpt>
      <trkpt lat="46.00609" lon="4.60017">
        <ele>352</ele>
        <time>2021-09-08T13:29:39Z</time>
      </trkpt>
      <trkpt lat="46.00609" lon="4.60025">
        <ele>351.8</ele>
        <time>2021-09-08T13:29:40Z</time>
      </trkpt>
      <trkpt lat="46.00608" lon="4.60033">
        <ele>351.4</ele>
        <time>2021-09-08T13:29:41Z</time>
      </trkpt>
      <trkpt lat="46.00607" lon="4.60054">
        <ele>350.6</ele>
        <time>2021-09-08T13:29:44Z</time>
      </trkpt>
      <trkpt lat="46.00608" lon="4.60061">
        <ele>350.6</ele>
        <time>2021-09-08T13:29:45Z</time>
      </trkpt>
      <trkpt lat="46.00609" lon="4.60067">
        <ele>350.4</ele>
        <time>2021-09-08T13:29:46Z</time>
      </trkpt>
      <trkpt lat="46.00612" lon="4.60072">
        <ele>350.4</ele>
        <time>2021-09-08T13:29:47Z</time>
      </trkpt>
      <trkpt lat="46.00621" lon="4.60079">
        <ele>350.2</ele>
        <time>2021-09-08T13:29:49Z</time>
      </trkpt>
      <trkpt lat="46.00629" lon="4.6008">
        <ele>350</ele>
        <time>2021-09-08T13:29:51Z</time>
      </trkpt>
      <trkpt lat="46.00632" lon="4.60082">
        <ele>350</ele>
        <time>2021-09-08T13:29:52Z</time>
      </trkpt>
      <trkpt lat="46.00633" lon="4.60085">
        <ele>350</ele>
        <time>2021-09-08T13:29:53Z</time>
      </trkpt>
      <trkpt lat="46.00632" lon="4.60091">
        <ele>350</ele>
        <time>2021-09-08T13:29:55Z</time>
      </trkpt>
      <trkpt lat="46.00631" lon="4.60093">
        <ele>350</ele>
        <time>2021-09-08T13:29:56Z</time>
      </trkpt>
    </trkseg>
  </trk>
</gpx>